[[{"header":{"parameterUnit":"m.s-1","parameterCategory":1,"la1":31.0,"la2":29.5877,"lo1":-88.7671,"lo2":-86.6584,"dy":0.0162,"dx":0.0185,"nx":115,"ny":88,"refTime":"2024-05-10T06:00:00:Z","depth":0,"parameterNumber":2,"parameterNumberName":"U-component_of_WINDS"},"data":[0.0,0.0,0.0,0.0,0.0,0.0,0.0,0.0,0.0,0.0,0.0,0.0,0.0,0.0,0.0,0.0,0.0,0.0,0.0,0.0,0.0,0.0,0.0,0.0,0.0,0.0,0.0,0.0,0.0,0.0,0.0,0.0,0.0,0.0,0.0,0.0,0.0,0.0,0.0,0.0,0.0,0.0,0.0,0.0,0.0,0.0,0.0,0.0,0.0,0.0,0.0,0.0,0.0,0.0,0.0,0.0,0.0,0.0,0.0,0.0,0.0,0.0,0.0,0.0,0.0,0.0,0.0,0.0,0.0,0.0,0.0,0.0,0.0,0.0,0.0,0.0,0.0,0.0,0.0,0.0,0.0,0.0,0.0,0.0,0.0,0.0,0.0,0.0,0.0,0.0,0.0,0.0,0.0,0.0,0.0,0.0,0.0,0.0,0.0,0.0,0.0,0.0,0.0,0.0,0.0,0.0,0.0,0.0,0.0,0.0,0.0,0.0,0.0,0.0,0.0,0.0,0.0,0.0,0.0,0.0,0.0,0.0,0.0,0.0,0.0,0.0,0.0,0.0,0.0,0.0,0.0,0.0,0.0,0.0,0.0,0.0,0.0,0.0,0.0,0.0,0.0,0.0,0.0,0.0,0.0,0.0,0.0,0.0,0.0,0.0,0.0,0.0,0.0,0.0,0.0,0.0,0.0,0.0,0.0,0.0,0.0,0.0,0.0,0.0,0.0,0.0,0.0,0.0,0.0,0.0,0.0,0.0,0.0,0.0,0.0,0.0,0.0,0.0,0.0,0.0,0.0,0.0,0.0,0.0,0.0,0.0,0.0,0.0,0.0,0.0,0.0,0.0,0.0,0.0,0.0,0.0,0.0,0.0,0.0,0.0,0.0,0.0,0.0,0.0,0.0,0.0,0.0,0.0,0.0,0.0,0.0,0.0,0.0,0.0,0.0,0.0,0.0,0.0,0.0,0.0,0.0,0.0,0.0,0.0,0.0,0.0,0.0,0.0,0.0,0.0,0.0,0.0,0.0,0.0,0.0,0.0,0.0,0.0,0.0,0.0,0.0,0.0,0.0,0.0,0.0,0.0,0.0,0.0,0.0,0.0,0.0,0.0,0.0,0.0,0.0,0.0,0.0,0.0,0.0,0.0,0.0,0.0,0.0,0.0,0.0,0.0,0.0,0.0,0.0,0.0,0.0,0.0,0.0,0.0,0.0,0.0,0.0,0.0,0.0,0.0,0.0,0.0,0.0,0.0,0.0,0.0,0.0,0.0,0.0,0.0,0.0,0.0,0.0,0.0,0.0,0.0,0.0,0.0,0.0,0.0,0.0,0.0,0.0,0.0,0.0,0.0,0.0,0.0,0.0,0.0,0.0,0.0,0.0,0.0,0.0,0.0,0.0,0.0,0.0,0.0,0.0,0.0,0.0,0.0,0.0,0.0,0.0,0.0,0.0,0.0,0.0,0.0,0.0,0.0,0.0,0.0,0.0,0.0,0.0,0.0,0.0,0.0,0.0,0.0,0.0,0.0,0.0,0.0,0.0,0.0,0.0,0.0,0.0,0.0,0.0,0.0,0.0,0.0,0.0,0.0,0.0,0.0,0.0,0.0,0.0,0.0,0.0,0.0,0.0,0.0,0.0,0.0,0.0,0.0,0.0,0.0,0.0,0.0,0.0,0.0,0.0,0.0,0.0,0.0,0.0,0.0,0.0,0.0,0.0,0.0,0.0,0.0,0.0,0.0,0.0,0.0,0.0,0.0,0.0,0.0,0.0,0.0,0.0,0.0,0.0,0.0,0.0,0.0,0.0,0.0,0.0,0.0,0.0,0.0,0.0,0.0,0.0,0.0,0.0,0.0,0.0,0.0,0.0,0.0,0.0,0.0,0.0,0.0,0.0,0.0,0.0,0.0,0.0,0.0,0.0,0.0,0.0,0.0,0.0,0.0,0.0,0.0,0.0,0.0,0.0,0.0,0.0,0.0,0.0,0.0,0.0,0.0,0.0,0.0,0.0,0.0,0.0,0.0,0.0,0.0,0.0,0.0,0.0,0.0,0.0,0.0,0.0,0.0,0.0,0.0,0.0,0.0,0.0,0.0,0.0,0.0,0.0,0.0,0.0,0.0,0.0,0.0,0.0,0.0,0.0,0.0,0.0,0.0,0.0,0.0,0.0,0.0,0.0,0.0,0.0,0.0,0.0,0.0,0.0,0.0,0.0,0.0,0.0,0.0,0.0,0.0,0.0,0.0,0.0,0.0,0.0,0.0,0.0,0.0,0.0,0.0,0.0,0.0,0.0,0.0,0.0,0.0,0.0,0.0,0.0,0.0,0.0,0.0,0.0,0.0,0.0,0.0,0.0,0.0,0.0,0.0,0.0,0.0,0.0,0.0,0.0,0.0,0.0,0.0,0.0,0.0,0.0,0.0,0.0,0.0,0.0,0.0,0.0,0.0,0.0,0.0,0.0,0.0,0.0,0.0,0.0,0.0,0.0,0.0,0.0,0.0,0.0,0.0,0.0,0.0,0.0,0.0,0.0,0.0,0.0,0.0,0.0,0.0,0.0,0.0,0.0,0.0,0.0,0.0,0.0,0.0,0.0,0.0,0.0,0.0,0.0,0.0,0.0,0.0,0.0,0.0,0.0,0.0,0.0,0.0,0.0,0.0,0.0,0.0,0.0,0.0,0.0,0.0,0.0,0.0,0.0,0.0,0.0,0.0,0.0,0.0,0.0,0.0,0.0,0.0,0.0,0.0,0.0,0.0,0.0,0.0,0.0,0.0,0.0,0.0,0.0,0.0,0.0,0.0,0.0,0.0,0.0,0.0,0.0,0.0,0.0,0.0,0.0,0.0,0.0,0.0,0.0,0.0,0.0,0.0,0.0,0.0,0.0,0.0,0.0,0.0,0.0,0.0,0.0,0.0,0.0,0.0,0.0,0.0,0.0,0.0,0.0,0.0,0.0,0.0,0.0,0.0,0.0,0.0,0.0,0.0,0.0,0.0,0.0,0.0,0.0,0.0,0.0,0.0,0.0,0.0,0.0,0.0,0.0,0.0,0.0,0.0,0.0,0.0,0.0,0.0,0.0,0.0,0.0,0.0,0.0,0.0,0.0,0.0,0.0,0.0,0.0,0.0,0.0,0.0,0.0,0.0,0.0,0.0,0.0,0.0,0.0,0.0,0.0,0.0,0.0,0.0,0.0,0.0,0.0,0.0,0.0,0.0,0.0,0.0,0.0,0.0,0.0,0.0,0.0,0.0,0.0,0.0,0.0,0.0,0.0,0.0,0.0,0.0,0.0,0.0,0.0,0.0,0.0,0.0,0.0,0.0,0.0,0.0,0.0,0.0,0.0,0.0,0.0,0.0,0.0,0.0,0.0,0.0,0.0,0.0,0.0,0.0,0.0,0.0,0.0,0.0,0.0,0.0,0.0,0.0,0.0,0.0,0.0,0.0,0.0,0.0,0.0,0.0,0.0,0.0,0.0,0.0,0.0,0.0,0.0,0.0,0.0,0.0,0.0,0.0,0.0,0.0,0.0,0.0,0.0,0.0,0.0,0.0,0.0,0.0,0.0,0.0,0.0,0.0,0.0,0.0,0.0,0.0,0.0,0.0,0.0,0.0,0.0,0.0,0.0,0.0,0.0,0.0,0.0,0.0,0.0,0.0,0.0,0.0,0.0,0.0,0.0,0.0,0.0,0.0,0.0,0.0,0.0,0.0,0.0,0.0,0.0,0.0,0.0,0.0,0.0,0.0,0.0,0.0,0.0,0.0,0.0,0.0,0.0,0.0,0.0,0.0,0.0,0.0,0.0,0.0,0.0,0.0,0.0,0.0,0.0,0.0,0.0,0.0,0.0,0.0,0.0,0.0,0.0,0.0,0.0,0.0,0.0,0.0,0.0,0.0,0.0,0.0,0.0,0.0,0.0,0.0,0.0,0.0,0.0,0.0,0.0,0.0,0.0,0.0,0.0,0.0,0.0,0.0,0.0,0.0,0.0,0.0,0.0,0.0,0.0,0.0,0.0,0.0,0.0,0.0,0.0,0.0,0.0,0.0,0.0,0.0,0.0,0.0,0.0,0.0,0.0,0.0,0.0,0.0,0.0,0.0,0.0,0.0,0.0,0.0,0.0,0.0,0.0,0.0,0.0,0.0,0.0,0.0,0.0,0.0,0.0,0.0,0.0,0.0,0.0,0.0,0.0,0.0,0.0,0.0,0.0,0.0,0.0,0.0,0.0,0.0,0.0,0.0,0.0,0.0,0.0,0.0,0.0,0.0,-4.2921,0.0,0.0,0.0,0.0,0.0,0.0,0.0,0.0,0.0,0.0,0.0,0.0,0.0,0.0,0.0,0.0,0.0,0.0,0.0,0.0,0.0,0.0,0.0,0.0,0.0,0.0,0.0,0.0,0.0,0.0,0.0,0.0,0.0,0.0,0.0,0.0,0.0,0.0,0.0,0.0,0.0,0.0,0.0,0.0,0.0,0.0,0.0,0.0,0.0,0.0,0.0,0.0,0.0,0.0,0.0,0.0,0.0,0.0,0.0,0.0,0.0,0.0,0.0,0.0,0.0,0.0,0.0,0.0,0.0,0.0,0.0,0.0,0.0,0.0,0.0,0.0,0.0,0.0,0.0,0.0,0.0,0.0,0.0,0.0,0.0,0.0,0.0,0.0,0.0,0.0,0.0,0.0,0.0,0.0,0.0,0.0,0.0,0.0,0.0,0.0,0.0,0.0,0.0,0.0,0.0,0.0,0.0,0.0,0.0,0.0,-4.4217,-4.4217,-4.3215,-4.2676,-4.2676,0.0,0.0,0.0,0.0,0.0,0.0,0.0,0.0,0.0,0.0,0.0,0.0,0.0,0.0,0.0,0.0,0.0,0.0,0.0,0.0,0.0,0.0,0.0,0.0,0.0,0.0,0.0,0.0,0.0,0.0,0.0,0.0,0.0,0.0,0.0,0.0,0.0,0.0,0.0,0.0,0.0,0.0,0.0,0.0,0.0,0.0,0.0,0.0,0.0,0.0,0.0,0.0,0.0,0.0,0.0,0.0,0.0,0.0,0.0,0.0,0.0,0.0,0.0,0.0,0.0,0.0,0.0,0.0,0.0,0.0,0.0,0.0,0.0,0.0,0.0,0.0,0.0,0.0,0.0,0.0,0.0,0.0,0.0,0.0,0.0,0.0,0.0,0.0,0.0,0.0,0.0,0.0,0.0,0.0,0.0,0.0,0.0,0.0,0.0,0.0,0.0,0.0,0.0,0.0,0.0,0.0,0.0,0.0,0.0,0.0,0.0,0.0,-4.3304,-4.291,-4.2946,0.0,0.0,0.0,0.0,0.0,0.0,0.0,0.0,0.0,0.0,0.0,0.0,0.0,0.0,0.0,0.0,0.0,0.0,0.0,0.0,0.0,0.0,0.0,0.0,0.0,0.0,0.0,0.0,0.0,0.0,0.0,0.0,0.0,0.0,0.0,0.0,0.0,0.0,0.0,0.0,0.0,0.0,0.0,0.0,0.0,0.0,0.0,0.0,0.0,0.0,0.0,0.0,0.0,0.0,0.0,0.0,0.0,0.0,0.0,0.0,0.0,0.0,0.0,0.0,0.0,0.0,0.0,0.0,0.0,0.0,0.0,0.0,0.0,0.0,0.0,0.0,0.0,0.0,0.0,0.0,0.0,0.0,0.0,0.0,0.0,0.0,0.0,0.0,0.0,0.0,0.0,0.0,0.0,0.0,0.0,0.0,0.0,0.0,0.0,0.0,0.0,0.0,0.0,0.0,0.0,0.0,0.0,0.0,0.0,0.0,-4.4642,-4.3956,-4.4534,0.0,-4.4854,0.0,0.0,0.0,0.0,0.0,0.0,0.0,0.0,0.0,0.0,0.0,0.0,0.0,0.0,0.0,0.0,0.0,0.0,0.0,0.0,0.0,0.0,0.0,0.0,0.0,0.0,0.0,0.0,0.0,0.0,0.0,0.0,0.0,0.0,0.0,0.0,0.0,0.0,0.0,0.0,0.0,0.0,0.0,0.0,0.0,0.0,0.0,0.0,0.0,0.0,0.0,0.0,0.0,0.0,0.0,0.0,0.0,0.0,0.0,0.0,0.0,0.0,0.0,0.0,0.0,0.0,0.0,0.0,0.0,0.0,0.0,0.0,0.0,0.0,0.0,0.0,0.0,0.0,0.0,0.0,0.0,0.0,0.0,0.0,0.0,0.0,0.0,0.0,0.0,0.0,0.0,0.0,0.0,0.0,0.0,0.0,0.0,0.0,0.0,0.0,0.0,0.0,0.0,0.0,0.0,0.0,0.0,0.0,0.0,0.0,-4.559,-4.515,-4.5115,-4.5116,0.0,0.0,0.0,0.0,0.0,0.0,0.0,0.0,0.0,0.0,0.0,0.0,0.0,0.0,0.0,0.0,0.0,0.0,0.0,0.0,0.0,0.0,0.0,0.0,0.0,0.0,0.0,0.0,0.0,0.0,0.0,0.0,0.0,0.0,0.0,0.0,0.0,0.0,0.0,0.0,0.0,0.0,0.0,0.0,0.0,0.0,0.0,0.0,0.0,0.0,0.0,0.0,0.0,0.0,0.0,0.0,0.0,0.0,0.0,0.0,0.0,0.0,0.0,0.0,0.0,0.0,0.0,0.0,0.0,0.0,0.0,0.0,0.0,0.0,0.0,0.0,0.0,0.0,0.0,0.0,0.0,0.0,0.0,0.0,0.0,0.0,0.0,0.0,0.0,0.0,0.0,0.0,0.0,0.0,0.0,0.0,0.0,0.0,0.0,0.0,0.0,0.0,0.0,0.0,0.0,0.0,0.0,0.0,0.0,0.0,-4.644,-4.6692,-4.6743,-4.6226,-4.5989,-4.6009,0.0,0.0,0.0,0.0,0.0,0.0,0.0,0.0,0.0,0.0,0.0,0.0,0.0,0.0,0.0,0.0,0.0,0.0,0.0,0.0,0.0,0.0,0.0,0.0,0.0,0.0,0.0,0.0,0.0,0.0,0.0,0.0,0.0,0.0,0.0,0.0,0.0,0.0,0.0,0.0,0.0,0.0,0.0,0.0,0.0,0.0,0.0,0.0,0.0,0.0,0.0,0.0,0.0,0.0,0.0,0.0,0.0,0.0,0.0,0.0,0.0,0.0,0.0,0.0,0.0,0.0,0.0,0.0,0.0,0.0,0.0,0.0,0.0,0.0,0.0,0.0,0.0,0.0,0.0,0.0,0.0,0.0,0.0,0.0,0.0,0.0,0.0,0.0,0.0,0.0,0.0,0.0,0.0,0.0,0.0,0.0,0.0,0.0,0.0,0.0,0.0,0.0,0.0,0.0,0.0,0.0,0.0,0.0,-4.7174,-4.7445,-4.7938,-4.8527,-4.8237,-4.8105,0.0,0.0,0.0,0.0,0.0,0.0,0.0,0.0,0.0,0.0,0.0,0.0,0.0,0.0,0.0,0.0,0.0,0.0,0.0,0.0,0.0,0.0,0.0,0.0,0.0,0.0,0.0,0.0,0.0,0.0,0.0,0.0,0.0,0.0,0.0,0.0,0.0,0.0,0.0,0.0,0.0,0.0,0.0,0.0,0.0,0.0,0.0,0.0,0.0,0.0,0.0,0.0,0.0,0.0,0.0,0.0,0.0,0.0,0.0,0.0,0.0,0.0,0.0,0.0,0.0,0.0,0.0,0.0,0.0,0.0,0.0,0.0,0.0,0.0,0.0,0.0,0.0,0.0,0.0,0.0,0.0,0.0,0.0,0.0,0.0,0.0,0.0,0.0,0.0,0.0,0.0,0.0,0.0,0.0,0.0,0.0,0.0,0.0,0.0,0.0,0.0,0.0,0.0,0.0,0.0,0.0,0.0,0.0,0.0,-4.807,-4.8514,-4.8856,-4.899,-4.8713,-4.8384,0.0,0.0,0.0,0.0,0.0,0.0,0.0,0.0,0.0,0.0,0.0,0.0,0.0,0.0,0.0,0.0,0.0,0.0,0.0,0.0,0.0,0.0,0.0,0.0,0.0,0.0,0.0,0.0,0.0,0.0,0.0,0.0,0.0,0.0,0.0,0.0,0.0,0.0,0.0,0.0,0.0,0.0,0.0,0.0,0.0,0.0,0.0,0.0,0.0,0.0,0.0,0.0,0.0,0.0,0.0,0.0,0.0,0.0,0.0,0.0,0.0,0.0,0.0,0.0,0.0,0.0,0.0,0.0,0.0,0.0,0.0,0.0,0.0,0.0,0.0,0.0,0.0,0.0,0.0,0.0,0.0,0.0,0.0,0.0,0.0,0.0,0.0,0.0,0.0,0.0,0.0,0.0,0.0,0.0,0.0,0.0,0.0,0.0,0.0,0.0,0.0,0.0,0.0,0.0,0.0,0.0,0.0,0.0,0.0,-4.8971,0.0,-4.9491,-4.9374,-4.9073,-4.8766,0.0,0.0,0.0,0.0,0.0,0.0,0.0,0.0,0.0,0.0,0.0,0.0,0.0,0.0,0.0,0.0,0.0,0.0,0.0,0.0,0.0,0.0,0.0,0.0,0.0,0.0,0.0,0.0,0.0,0.0,0.0,0.0,0.0,0.0,0.0,0.0,0.0,0.0,0.0,0.0,0.0,0.0,0.0,0.0,0.0,0.0,0.0,0.0,0.0,0.0,0.0,0.0,0.0,0.0,0.0,0.0,0.0,0.0,0.0,0.0,0.0,0.0,0.0,0.0,0.0,0.0,0.0,0.0,0.0,0.0,0.0,0.0,0.0,0.0,0.0,0.0,0.0,0.0,0.0,0.0,0.0,0.0,0.0,0.0,0.0,0.0,0.0,0.0,0.0,0.0,0.0,0.0,0.0,0.0,0.0,0.0,0.0,0.0,0.0,0.0,0.0,0.0,0.0,0.0,0.0,0.0,0.0,0.0,-4.9917,-4.9917,-4.9879,-4.9797,-4.9692,-4.9476,-4.9321,0.0,0.0,0.0,0.0,0.0,0.0,0.0,0.0,0.0,0.0,0.0,0.0,0.0,0.0,0.0,0.0,0.0,0.0,0.0,0.0,0.0,0.0,0.0,0.0,0.0,0.0,0.0,0.0,0.0,0.0,0.0,0.0,0.0,0.0,0.0,0.0,0.0,0.0,0.0,0.0,0.0,0.0,0.0,0.0,0.0,0.0,0.0,0.0,0.0,0.0,0.0,0.0,0.0,0.0,0.0,0.0,0.0,0.0,0.0,0.0,0.0,0.0,0.0,0.0,0.0,0.0,0.0,0.0,0.0,0.0,0.0,0.0,0.0,0.0,0.0,0.0,0.0,0.0,0.0,0.0,0.0,0.0,0.0,0.0,0.0,0.0,0.0,0.0,0.0,0.0,0.0,0.0,0.0,0.0,0.0,0.0,0.0,0.0,0.0,0.0,0.0,0.0,0.0,0.0,0.0,0.0,0.0,0.0,0.0,-5.0789,-5.022,-4.9811,-4.9707,-4.9648,-4.9368,0.0,0.0,0.0,0.0,0.0,0.0,0.0,0.0,0.0,0.0,0.0,0.0,0.0,0.0,0.0,0.0,0.0,0.0,0.0,0.0,0.0,0.0,0.0,0.0,0.0,0.0,0.0,0.0,0.0,0.0,0.0,0.0,0.0,0.0,0.0,0.0,0.0,0.0,0.0,0.0,0.0,0.0,0.0,0.0,0.0,0.0,0.0,0.0,0.0,0.0,0.0,0.0,0.0,0.0,0.0,0.0,0.0,0.0,0.0,0.0,0.0,0.0,0.0,0.0,0.0,0.0,0.0,0.0,0.0,0.0,0.0,0.0,0.0,0.0,0.0,0.0,0.0,0.0,0.0,0.0,0.0,0.0,0.0,0.0,0.0,0.0,0.0,0.0,0.0,0.0,0.0,0.0,0.0,0.0,0.0,0.0,0.0,0.0,0.0,0.0,0.0,0.0,0.0,0.0,0.0,0.0,0.0,0.0,0.0,-5.1646,-5.113,-5.0785,-5.0723,-5.0642,-5.0146,-4.9127,0.0,0.0,0.0,0.0,0.0,0.0,0.0,0.0,0.0,0.0,0.0,0.0,0.0,0.0,0.0,0.0,0.0,0.0,0.0,0.0,0.0,0.0,0.0,0.0,0.0,0.0,0.0,0.0,0.0,0.0,0.0,0.0,0.0,0.0,0.0,0.0,0.0,0.0,0.0,0.0,0.0,0.0,0.0,0.0,0.0,0.0,0.0,0.0,0.0,0.0,0.0,0.0,0.0,0.0,0.0,0.0,0.0,0.0,0.0,0.0,0.0,0.0,0.0,0.0,0.0,0.0,0.0,0.0,0.0,0.0,0.0,0.0,0.0,0.0,0.0,0.0,0.0,0.0,0.0,0.0,0.0,0.0,0.0,0.0,0.0,0.0,0.0,0.0,0.0,0.0,0.0,0.0,0.0,0.0,0.0,0.0,0.0,0.0,0.0,0.0,0.0,0.0,0.0,0.0,0.0,0.0,0.0,0.0,-5.2684,-5.2684,-5.2632,-5.2556,-5.2363,-5.1496,0.0,0.0,0.0,0.0,0.0,0.0,0.0,0.0,0.0,0.0,0.0,0.0,0.0,0.0,0.0,0.0,0.0,0.0,0.0,0.0,0.0,0.0,0.0,0.0,0.0,0.0,0.0,0.0,0.0,0.0,0.0,0.0,0.0,0.0,0.0,0.0,0.0,0.0,0.0,0.0,0.0,0.0,0.0,0.0,0.0,0.0,0.0,0.0,0.0,0.0,0.0,0.0,0.0,0.0,0.0,0.0,0.0,0.0,0.0,0.0,0.0,0.0,0.0,0.0,0.0,0.0,0.0,0.0,0.0,0.0,0.0,0.0,0.0,0.0,0.0,0.0,0.0,0.0,0.0,0.0,0.0,0.0,0.0,0.0,0.0,0.0,0.0,0.0,0.0,0.0,0.0,0.0,0.0,0.0,0.0,0.0,0.0,0.0,0.0,0.0,0.0,0.0,0.0,0.0,0.0,0.0,0.0,0.0,0.0,-5.6019,-5.6095,-5.5527,-5.4314,-5.3625,-5.2771,0.0,0.0,0.0,0.0,0.0,0.0,0.0,0.0,0.0,0.0,0.0,0.0,0.0,0.0,0.0,0.0,0.0,0.0,0.0,0.0,0.0,0.0,0.0,0.0,0.0,0.0,0.0,0.0,0.0,0.0,0.0,0.0,0.0,0.0,0.0,0.0,0.0,0.0,0.0,0.0,0.0,0.0,0.0,0.0,0.0,0.0,0.0,0.0,0.0,0.0,0.0,0.0,0.0,0.0,0.0,0.0,0.0,0.0,0.0,0.0,0.0,0.0,0.0,0.0,0.0,0.0,0.0,0.0,0.0,0.0,0.0,0.0,0.0,0.0,0.0,0.0,0.0,0.0,0.0,0.0,0.0,0.0,0.0,0.0,0.0,0.0,0.0,0.0,0.0,0.0,0.0,0.0,0.0,0.0,0.0,0.0,0.0,0.0,0.0,0.0,0.0,0.0,0.0,0.0,0.0,0.0,0.0,0.0,-5.5792,-5.6891,-5.8256,-5.8483,-5.7535,-5.5716,-5.4118,0.0,0.0,0.0,0.0,0.0,0.0,0.0,0.0,0.0,0.0,0.0,0.0,0.0,0.0,0.0,0.0,0.0,0.0,0.0,0.0,0.0,0.0,0.0,0.0,0.0,0.0,0.0,0.0,0.0,0.0,0.0,0.0,0.0,0.0,0.0,0.0,0.0,0.0,0.0,0.0,0.0,0.0,0.0,0.0,0.0,0.0,0.0,0.0,0.0,0.0,0.0,0.0,0.0,0.0,0.0,0.0,0.0,0.0,0.0,0.0,0.0,0.0,0.0,0.0,0.0,0.0,0.0,0.0,0.0,0.0,0.0,0.0,0.0,0.0,0.0,0.0,0.0,0.0,0.0,0.0,0.0,0.0,0.0,0.0,0.0,0.0,0.0,0.0,0.0,0.0,0.0,0.0,0.0,0.0,0.0,0.0,0.0,0.0,0.0,0.0,0.0,0.0,0.0,0.0,0.0,0.0,0.0,0.0,-5.7232,-5.6626,-5.962,-6.1212,-6.1136,-5.8142,-5.5716,0.0,0.0,0.0,0.0,0.0,0.0,0.0,0.0,0.0,0.0,0.0,0.0,0.0,0.0,0.0,0.0,0.0,0.0,0.0,0.0,0.0,0.0,0.0,0.0,0.0,0.0,0.0,0.0,0.0,0.0,0.0,0.0,0.0,0.0,0.0,0.0,0.0,0.0,0.0,0.0,0.0,0.0,0.0,0.0,0.0,0.0,0.0,0.0,0.0,0.0,0.0,0.0,0.0,0.0,0.0,0.0,0.0,0.0,0.0,0.0,0.0,0.0,0.0,0.0,0.0,0.0,0.0,0.0,0.0,0.0,0.0,0.0,0.0,0.0,0.0,0.0,0.0,0.0,0.0,0.0,0.0,0.0,0.0,0.0,0.0,0.0,0.0,0.0,0.0,0.0,0.0,0.0,0.0,0.0,0.0,0.0,0.0,0.0,0.0,0.0,0.0,0.0,0.0,0.0,0.0,0.0,0.0,0.0,-5.8635,-5.9143,-6.1098,-6.2122,-6.2122,-5.9544,-5.7687,0.0,0.0,0.0,0.0,0.0,0.0,0.0,0.0,0.0,0.0,0.0,0.0,0.0,0.0,0.0,0.0,0.0,0.0,0.0,0.0,0.0,0.0,0.0,0.0,0.0,0.0,0.0,0.0,0.0,0.0,0.0,0.0,0.0,0.0,0.0,0.0,0.0,0.0,0.0,0.0,0.0,0.0,0.0,0.0,0.0,0.0,0.0,0.0,-4.8639,0.0,0.0,0.0,0.0,0.0,0.0,0.0,0.0,0.0,0.0,0.0,0.0,0.0,0.0,0.0,0.0,0.0,0.0,0.0,0.0,0.0,0.0,0.0,0.0,0.0,0.0,0.0,0.0,0.0,0.0,0.0,0.0,0.0,0.0,0.0,0.0,0.0,0.0,0.0,0.0,0.0,0.0,0.0,0.0,0.0,0.0,0.0,0.0,0.0,0.0,0.0,0.0,0.0,0.0,0.0,0.0,0.0,0.0,0.0,-5.9241,-6.047,-6.2084,-6.2976,-6.29,-6.1326,-5.9658,0.0,0.0,0.0,0.0,0.0,0.0,0.0,0.0,0.0,0.0,0.0,0.0,0.0,0.0,0.0,0.0,0.0,0.0,0.0,0.0,0.0,0.0,0.0,0.0,0.0,0.0,0.0,0.0,0.0,0.0,0.0,0.0,0.0,0.0,0.0,0.0,0.0,0.0,0.0,0.0,0.0,0.0,0.0,0.0,0.0,0.0,0.0,0.0,0.0,0.0,0.0,0.0,0.0,0.0,0.0,0.0,0.0,0.0,0.0,0.0,0.0,0.0,0.0,0.0,0.0,0.0,0.0,0.0,0.0,0.0,0.0,0.0,0.0,0.0,0.0,0.0,0.0,0.0,0.0,0.0,0.0,0.0,0.0,0.0,0.0,0.0,0.0,0.0,0.0,0.0,0.0,0.0,0.0,0.0,0.0,0.0,0.0,0.0,0.0,0.0,0.0,0.0,0.0,0.0,0.0,0.0,0.0,-5.8644,-5.9847,-6.1439,-6.2993,-6.3789,-6.3772,-6.3014,-6.1477,-5.9181,0.0,0.0,0.0,0.0,0.0,0.0,0.0,0.0,0.0,0.0,0.0,0.0,0.0,0.0,0.0,0.0,0.0,0.0,0.0,0.0,0.0,0.0,0.0,0.0,0.0,0.0,0.0,0.0,0.0,0.0,0.0,0.0,0.0,0.0,0.0,0.0,0.0,0.0,-5.0015,-5.0015,0.0,0.0,0.0,0.0,0.0,0.0,0.0,0.0,-5.0378,0.0,0.0,0.0,0.0,0.0,0.0,0.0,0.0,0.0,0.0,0.0,0.0,0.0,0.0,0.0,0.0,0.0,0.0,0.0,0.0,0.0,0.0,0.0,0.0,0.0,0.0,0.0,0.0,0.0,0.0,0.0,0.0,0.0,0.0,0.0,0.0,0.0,0.0,0.0,0.0,0.0,0.0,0.0,0.0,0.0,0.0,0.0,0.0,0.0,0.0,0.0,0.0,0.0,0.0,0.0,0.0,-5.9501,-6.0319,-6.1515,-6.3183,-6.4168,-6.4699,-6.4661,-6.3848,-6.2576,-6.0757,0.0,0.0,0.0,0.0,0.0,0.0,0.0,0.0,0.0,0.0,0.0,0.0,0.0,0.0,0.0,0.0,0.0,0.0,0.0,0.0,0.0,0.0,0.0,0.0,0.0,0.0,0.0,0.0,0.0,0.0,0.0,0.0,0.0,0.0,0.0,0.0,0.0,0.0,0.0,-5.0518,-5.0262,0.0,0.0,0.0,0.0,0.0,0.0,0.0,0.0,-5.0854,0.0,0.0,0.0,0.0,0.0,0.0,0.0,0.0,0.0,0.0,0.0,0.0,0.0,0.0,0.0,0.0,0.0,0.0,0.0,0.0,0.0,0.0,0.0,0.0,0.0,0.0,0.0,0.0,0.0,0.0,0.0,0.0,0.0,0.0,0.0,0.0,0.0,0.0,0.0,0.0,0.0,0.0,0.0,0.0,0.0,0.0,0.0,0.0,0.0,0.0,0.0,0.0,0.0,0.0,0.0,-6.0583,-6.1413,-6.2576,-6.4244,-6.4661,-6.4926,-6.4888,-6.4055,-6.2804,0.0,0.0,0.0,0.0,0.0,0.0,0.0,0.0,0.0,0.0,0.0,0.0,0.0,0.0,0.0,0.0,0.0,0.0,0.0,0.0,0.0,0.0,0.0,0.0,0.0,0.0,0.0,0.0,0.0,0.0,0.0,0.0,0.0,0.0,0.0,0.0,0.0,0.0,0.0,0.0,-5.2463,-5.2558,-5.3338,0.0,0.0,0.0,0.0,0.0,0.0,-5.2786,-5.245,0.0,0.0,0.0,0.0,0.0,0.0,0.0,0.0,0.0,0.0,0.0,0.0,0.0,0.0,0.0,0.0,0.0,0.0,0.0,0.0,0.0,0.0,0.0,0.0,0.0,0.0,0.0,0.0,0.0,0.0,0.0,0.0,0.0,0.0,0.0,0.0,0.0,0.0,0.0,0.0,0.0,0.0,0.0,0.0,0.0,0.0,0.0,0.0,0.0,0.0,0.0,0.0,0.0,0.0,0.0,-6.159,-6.2302,-6.3355,-6.485,-6.4926,-6.4926,-6.4888,-6.3903,-6.2728,0.0,0.0,0.0,0.0,0.0,0.0,0.0,0.0,0.0,0.0,0.0,0.0,0.0,0.0,0.0,0.0,0.0,0.0,0.0,0.0,0.0,0.0,0.0,0.0,0.0,0.0,0.0,0.0,0.0,0.0,0.0,0.0,0.0,0.0,0.0,0.0,0.0,0.0,0.0,0.0,0.0,-5.4706,-5.5316,-5.4596,0.0,0.0,0.0,0.0,-5.3951,-5.4153,0.0,0.0,0.0,0.0,0.0,0.0,0.0,0.0,0.0,0.0,0.0,0.0,0.0,0.0,0.0,0.0,0.0,0.0,0.0,0.0,0.0,0.0,0.0,0.0,0.0,0.0,0.0,0.0,0.0,0.0,0.0,0.0,0.0,0.0,0.0,0.0,0.0,0.0,0.0,0.0,0.0,0.0,0.0,0.0,0.0,0.0,0.0,0.0,0.0,0.0,0.0,0.0,0.0,0.0,0.0,0.0,-6.2347,-6.3082,-6.3941,-6.485,-6.4926,-6.4926,-6.4888,-6.3372,-6.2446,0.0,0.0,0.0,0.0,0.0,0.0,0.0,0.0,0.0,0.0,0.0,0.0,0.0,0.0,0.0,0.0,0.0,0.0,0.0,0.0,0.0,0.0,0.0,0.0,0.0,0.0,0.0,0.0,0.0,0.0,0.0,0.0,0.0,0.0,0.0,0.0,0.0,0.0,0.0,0.0,0.0,-5.4933,-5.6031,-5.4942,-5.4181,0.0,0.0,-5.5167,-5.539,-5.552,0.0,0.0,0.0,0.0,0.0,0.0,0.0,0.0,0.0,0.0,0.0,0.0,0.0,0.0,0.0,0.0,0.0,0.0,0.0,0.0,0.0,0.0,0.0,0.0,0.0,0.0,0.0,0.0,0.0,0.0,0.0,0.0,0.0,0.0,0.0,0.0,0.0,0.0,0.0,0.0,0.0,0.0,0.0,0.0,0.0,0.0,0.0,0.0,0.0,0.0,0.0,0.0,0.0,0.0,0.0,-6.1879,-6.2665,-6.379,-6.4579,-6.4958,-6.5431,-6.5434,-6.4926,-6.3713,-6.288,0.0,0.0,0.0,0.0,0.0,0.0,0.0,0.0,0.0,0.0,0.0,0.0,0.0,0.0,0.0,0.0,0.0,0.0,0.0,0.0,0.0,0.0,0.0,0.0,0.0,0.0,0.0,0.0,0.0,0.0,0.0,0.0,0.0,0.0,0.0,0.0,0.0,0.0,0.0,0.0,0.0,0.0,-5.6226,-5.5764,0.0,0.0,0.0,-5.5607,-5.5085,0.0,0.0,0.0,0.0,0.0,0.0,0.0,0.0,0.0,0.0,0.0,0.0,0.0,0.0,0.0,0.0,0.0,0.0,0.0,0.0,0.0,0.0,0.0,0.0,0.0,0.0,0.0,0.0,0.0,0.0,0.0,0.0,0.0,0.0,0.0,0.0,0.0,0.0,0.0,0.0,0.0,0.0,0.0,0.0,0.0,0.0,0.0,0.0,0.0,0.0,0.0,0.0,0.0,0.0,0.0,0.0,0.0,-6.3375,-6.4655,-6.5407,-6.5635,-6.6263,-6.6266,-6.5568,-6.4661,0.0,0.0,0.0,0.0,0.0,0.0,0.0,0.0,0.0,0.0,0.0,0.0,0.0,0.0,0.0,0.0,0.0,0.0,0.0,0.0,0.0,0.0,0.0,0.0,0.0,0.0,0.0,-5.3182,0.0,0.0,0.0,0.0,0.0,0.0,0.0,0.0,0.0,0.0,0.0,0.0,0.0,0.0,-5.632,-5.632,-5.632,-5.6357,0.0,0.0,-5.6054,-5.5364,-5.6402,-5.664,0.0,0.0,0.0,0.0,0.0,0.0,0.0,0.0,0.0,0.0,0.0,0.0,0.0,0.0,0.0,0.0,0.0,0.0,0.0,0.0,0.0,0.0,0.0,0.0,0.0,0.0,0.0,0.0,0.0,0.0,0.0,0.0,0.0,0.0,0.0,0.0,0.0,0.0,0.0,0.0,0.0,0.0,0.0,0.0,0.0,0.0,0.0,0.0,0.0,0.0,0.0,0.0,0.0,0.0,0.0,-6.4932,-6.58,-6.6584,-6.7306,-6.7331,-6.7331,-6.7326,-6.642,-6.5154,0.0,0.0,0.0,0.0,0.0,0.0,0.0,0.0,0.0,0.0,0.0,0.0,0.0,0.0,0.0,0.0,0.0,0.0,0.0,0.0,0.0,0.0,0.0,0.0,0.0,0.0,0.0,0.0,0.0,0.0,0.0,0.0,0.0,0.0,0.0,0.0,0.0,0.0,0.0,0.0,0.0,-5.632,-5.632,-5.632,-5.658,0.0,0.0,-5.6543,-5.7171,-5.7676,-5.7479,-5.5837,0.0,0.0,0.0,0.0,0.0,0.0,0.0,0.0,0.0,0.0,0.0,0.0,0.0,0.0,0.0,0.0,0.0,0.0,0.0,0.0,0.0,0.0,0.0,0.0,0.0,0.0,0.0,0.0,0.0,0.0,0.0,0.0,0.0,0.0,0.0,0.0,0.0,0.0,0.0,0.0,0.0,0.0,0.0,0.0,0.0,0.0,0.0,0.0,0.0,0.0,0.0,0.0,0.0,-6.4556,-6.5267,-6.6459,-6.7227,-6.7621,-6.8028,-6.7994,-6.7445,-6.7105,-6.5874,0.0,0.0,0.0,0.0,0.0,0.0,0.0,0.0,0.0,0.0,0.0,0.0,0.0,0.0,0.0,0.0,0.0,0.0,0.0,0.0,0.0,0.0,0.0,0.0,0.0,0.0,0.0,0.0,-5.5614,-5.5614,-5.5057,0.0,0.0,0.0,0.0,0.0,0.0,0.0,0.0,0.0,0.0,-5.6469,-5.6989,-5.7026,0.0,0.0,-5.7249,-5.6989,-5.6803,-5.7332,-5.7154,-5.5545,-5.5266,0.0,0.0,0.0,0.0,0.0,0.0,0.0,0.0,0.0,0.0,0.0,0.0,0.0,0.0,0.0,0.0,0.0,0.0,0.0,0.0,0.0,0.0,0.0,0.0,0.0,0.0,0.0,0.0,0.0,0.0,0.0,0.0,0.0,0.0,0.0,0.0,0.0,0.0,0.0,0.0,0.0,0.0,0.0,0.0,0.0,0.0,0.0,0.0,0.0,0.0,0.0,0.0,-6.5503,-6.6131,-6.7326,-6.8095,-6.8434,-6.8917,-6.8827,-6.8203,-6.8166,-6.7087,0.0,0.0,0.0,0.0,0.0,0.0,0.0,0.0,0.0,0.0,0.0,0.0,0.0,0.0,0.0,0.0,0.0,0.0,0.0,0.0,0.0,0.0,0.0,0.0,0.0,0.0,0.0,0.0,-5.5802,-5.5689,-5.5057,0.0,0.0,0.0,0.0,0.0,0.0,0.0,0.0,0.0,0.0,-5.6766,-5.71,-5.7138,-5.7138,-5.7138,-5.6915,-5.6655,-5.6357,-5.6766,-5.6766,-5.5577,0.0,0.0,0.0,0.0,0.0,0.0,0.0,0.0,0.0,0.0,0.0,0.0,0.0,0.0,0.0,0.0,0.0,0.0,0.0,0.0,0.0,0.0,0.0,0.0,0.0,0.0,0.0,0.0,0.0,0.0,-5.5441,0.0,0.0,0.0,0.0,0.0,0.0,0.0,0.0,0.0,0.0,0.0,0.0,0.0,0.0,0.0,0.0,0.0,0.0,0.0,0.0,0.0,0.0,-6.6169,-6.7714,-6.8553,-6.932,-7.0071,-7.0019,-6.9927,-6.9889,-6.9872,-6.902,-6.7314,0.0,0.0,0.0,0.0,0.0,0.0,0.0,0.0,0.0,0.0,0.0,0.0,0.0,0.0,0.0,0.0,0.0,0.0,0.0,0.0,0.0,0.0,0.0,0.0,0.0,0.0,-5.4333,-5.4689,-5.502,0.0,0.0,0.0,0.0,0.0,0.0,0.0,0.0,0.0,0.0,-5.6432,-5.7175,-5.6432,-5.632,-5.6357,-5.6357,-5.5652,-5.5391,-5.6172,-5.632,-5.632,0.0,0.0,0.0,0.0,0.0,0.0,0.0,0.0,0.0,0.0,0.0,0.0,0.0,0.0,0.0,0.0,0.0,0.0,0.0,0.0,0.0,0.0,0.0,0.0,0.0,0.0,0.0,-5.7835,-5.7835,0.0,0.0,0.0,0.0,0.0,0.0,0.0,0.0,0.0,0.0,0.0,-6.079,-6.1626,0.0,0.0,0.0,0.0,0.0,0.0,0.0,0.0,0.0,0.0,0.0,0.0,-6.7283,-6.7888,-6.9146,-6.995,-7.0234,-7.0185,-7.0114,-7.0003,-6.9966,-6.917,-6.7428,0.0,0.0,0.0,0.0,0.0,0.0,0.0,0.0,0.0,0.0,0.0,0.0,0.0,0.0,0.0,0.0,0.0,0.0,0.0,0.0,0.0,0.0,0.0,0.0,0.0,-5.5601,0.0,0.0,0.0,0.0,0.0,0.0,0.0,0.0,0.0,0.0,0.0,-5.5206,-5.58,-5.5874,-5.5949,-5.6246,-5.632,-5.6506,0.0,0.0,0.0,0.0,0.0,0.0,0.0,0.0,0.0,0.0,0.0,0.0,0.0,0.0,-5.3701,-5.2691,-5.3114,-5.3598,-5.3437,0.0,0.0,0.0,0.0,0.0,0.0,0.0,0.0,0.0,0.0,0.0,0.0,0.0,0.0,-5.9376,0.0,-5.9415,0.0,0.0,0.0,0.0,0.0,0.0,0.0,0.0,-6.1535,-6.2237,-6.251,-6.3039,-6.3459,0.0,-6.3503,-6.293,0.0,0.0,0.0,0.0,0.0,0.0,0.0,0.0,-6.7719,-6.7591,-6.9311,-7.0289,-7.0286,-7.0272,-7.0185,-7.0096,-7.0021,-6.9491,-6.8317,-6.5816,-6.4244,0.0,0.0,0.0,0.0,0.0,0.0,0.0,0.0,0.0,0.0,0.0,0.0,0.0,0.0,0.0,0.0,0.0,0.0,0.0,0.0,0.0,0.0,0.0,-5.5894,0.0,0.0,0.0,0.0,0.0,0.0,0.0,0.0,0.0,-5.5,-5.528,-5.5652,-5.6209,-5.606,-5.5874,-5.5837,0.0,0.0,0.0,0.0,0.0,0.0,0.0,-5.5354,-5.5131,-5.5577,-5.6023,-5.6246,-5.6203,-5.6064,-5.5748,0.0,0.0,-5.394,-5.4204,-5.4589,-5.4428,-5.4174,-5.4054,-5.4184,-5.4106,-5.4001,0.0,0.0,0.0,0.0,0.0,0.0,0.0,0.0,-6.0575,-6.0102,0.0,-6.0217,0.0,0.0,0.0,0.0,0.0,-6.2089,0.0,0.0,-6.4535,-6.4993,-6.432,-6.4305,-6.4726,-6.5413,-6.4726,-6.4764,-6.5413,-6.4726,0.0,0.0,0.0,0.0,0.0,0.0,-6.7515,-6.6942,-6.918,-7.0369,-7.0324,-7.0324,-7.0272,-7.0185,-7.0058,-6.9965,-6.9889,-6.7482,-6.6101,-6.6025,-6.2955,0.0,0.0,0.0,0.0,0.0,0.0,0.0,0.0,0.0,0.0,0.0,0.0,0.0,0.0,0.0,0.0,0.0,0.0,0.0,0.0,-5.6053,0.0,0.0,0.0,0.0,0.0,0.0,0.0,0.0,0.0,0.0,-5.5169,-5.5763,-5.6283,-5.6246,0.0,0.0,0.0,0.0,-5.5726,-5.424,-5.398,-5.4054,-5.4091,-5.5391,-5.6655,-5.7398,0.0,0.0,-5.8846,-5.7851,-5.6934,-5.6064,-5.641,-5.6304,-5.5597,-5.5123,-5.4894,-5.5205,-5.4758,-5.4307,-5.4586,-5.4553,-5.4232,-6.217,0.0,0.0,0.0,0.0,-6.1868,-6.2319,-6.3136,-6.3136,-6.2983,-6.2739,-6.3006,0.0,0.0,0.0,0.0,0.0,0.0,-6.3236,-6.3885,-6.4917,-6.5605,-6.5987,-6.656,-6.6957,-6.7171,-6.6942,-6.7286,-6.805,-6.7897,-6.6942,-6.5413,0.0,0.0,0.0,0.0,-6.7515,-6.847,-6.9769,-7.0402,-7.0369,-7.0369,-7.0336,-7.0251,-7.0203,-7.0076,-7.0003,-6.8124,-6.678,-6.6101,-6.4055,0.0,0.0,0.0,0.0,0.0,0.0,0.0,0.0,0.0,0.0,0.0,0.0,0.0,0.0,0.0,0.0,0.0,0.0,0.0,-5.6209,-5.6655,-5.6468,0.0,0.0,0.0,0.0,0.0,0.0,0.0,0.0,0.0,-5.6692,-5.5949,-5.5391,0.0,0.0,-5.4686,-5.4203,-5.5354,-5.6357,-5.6432,0.0,0.0,0.0,-5.8066,-5.8103,-5.8326,-5.9218,-5.985,-5.9589,-5.9801,-5.9906,-5.9625,-5.9745,-5.9753,-5.9435,-5.7964,-5.6891,-5.6842,-5.6697,-5.6599,-5.6709,-5.64,-5.6119,-6.414,-6.3219,-6.2567,-6.2797,-6.3564,-6.3461,-6.3885,-6.4649,-6.4688,-6.4496,-6.4244,-6.4535,-6.4038,-6.293,-6.3274,0.0,0.0,0.0,-6.484,-6.5696,-6.6178,-6.6674,-6.7209,-6.7668,-6.8088,-6.8394,-6.8394,-6.8852,-6.9655,-6.9349,-6.8432,-6.6942,0.0,0.0,-6.6713,-6.7362,-6.8012,-6.8699,-6.9846,-7.0402,-7.0402,-7.0402,-7.0386,-7.0336,-7.0289,-7.022,-7.0129,-6.8443,-6.725,-6.6648,-6.4716,-6.3145,0.0,0.0,0.0,0.0,0.0,0.0,0.0,0.0,0.0,0.0,0.0,-5.5981,-5.5451,0.0,0.0,0.0,-5.6664,-5.6633,-5.657,-5.6721,0.0,0.0,0.0,0.0,0.0,0.0,0.0,-5.5763,-5.6617,-5.7435,-5.7881,-5.71,-5.658,-5.6915,-5.6523,-5.6097,-5.58,0.0,-5.7806,-5.7955,-5.8401,-5.8884,-5.9346,-5.9589,-5.9924,-6.0534,-6.1038,-6.1224,-6.0964,-6.1336,-6.1558,-6.1298,-6.1187,-6.1187,-6.1187,-5.9981,-5.8974,-5.8796,-5.8653,-5.8482,-5.8154,-5.7885,-5.7612,-6.5528,-6.5452,-6.3962,-6.3732,-6.4382,-6.4397,-6.4879,-6.5566,-6.5605,-6.5184,-6.455,-6.5261,-6.4764,-6.335,-6.4114,0.0,-6.6789,-6.6789,-6.7171,-6.7897,-6.7973,-6.8012,-6.7973,-6.805,-6.8508,-6.9311,-6.9273,-6.9693,-7.0342,-6.9655,-6.9273,-6.9196,-6.9196,-6.8394,-6.698,-6.8241,-6.8661,-6.8012,-6.954,-7.0326,-7.0419,-7.0402,-7.0402,-7.0402,-7.0336,-7.0286,-7.0286,-6.8476,-6.7514,-6.742,-6.5055,-6.3658,-6.3544,0.0,0.0,0.0,0.0,0.0,0.0,0.0,0.0,0.0,0.0,0.0,0.0,0.0,0.0,0.0,-5.7422,0.0,-5.731,-5.6635,0.0,0.0,0.0,-5.6183,-5.7676,-5.7705,-5.7843,-5.8512,0.0,0.0,-5.8677,0.0,-5.9032,-5.9865,-5.985,-5.9441,-5.8698,-5.9181,-5.9552,-5.8772,-5.8809,-5.8921,-5.9181,-6.0295,-6.1707,-6.3044,-6.3602,-6.323,-6.2599,-6.2487,-6.219,-6.1633,-6.141,-6.1447,-6.141,-6.1366,-6.1285,-6.0909,-6.0419,-5.9847,-5.9189,-5.8957,-5.8677,-6.6751,-6.7286,-6.6865,-6.6483,-6.6101,-6.6101,-6.656,-6.7286,-6.7324,-6.7209,-6.7018,-6.7209,-6.7056,-6.6713,-6.6942,-6.7209,-6.7591,-6.7591,-6.7706,-6.7935,-6.8585,-6.889,-6.8929,-6.9502,-6.9922,-7.0113,-7.0113,-7.0228,-7.0381,-7.0228,-6.9807,-6.9234,-6.9196,-6.8661,-6.763,-6.74,-6.7821,-6.889,-6.9273,-6.9807,-7.0364,-7.0402,-7.0402,-7.0402,-7.0386,-7.0353,-7.0286,-6.8621,-6.7604,-6.7458,-6.5624,-6.4282,-6.3638,-6.2652,0.0,0.0,0.0,0.0,0.0,0.0,0.0,0.0,0.0,-5.5906,-5.5261,0.0,-5.6285,0.0,-5.7649,-5.8619,-5.9154,-5.8929,0.0,0.0,-5.8353,-5.8196,-5.8483,-5.8421,-5.8252,-5.7843,-5.7806,-5.8029,-5.8624,-5.8677,-5.9255,-6.063,-5.9255,-5.8029,-5.7843,-5.8475,-5.8921,-5.8884,-5.9775,-6.0593,-6.063,-6.1447,-6.245,-6.3453,-6.3602,-6.3527,-6.3342,-6.3282,-6.3267,-6.3082,-6.3044,-6.3044,-6.3007,-6.3044,-6.2985,-6.2821,-6.1841,-6.0848,-6.0535,-6.0231,-5.992,-6.7477,-6.7897,-6.7897,-6.7859,-6.7782,-6.74,-6.7477,-6.7897,-6.7897,-6.7897,-6.7897,-6.7897,-6.8126,-6.847,-6.847,-6.8661,-6.9005,-6.9005,-6.9005,-6.9043,-6.9502,-6.9731,-6.9769,-7.019,-7.0402,-7.0402,-7.0402,-7.0402,-7.0402,-7.0402,-7.019,-6.9769,-6.9731,-6.9311,-6.847,-6.7668,-6.7897,-6.9158,-6.9196,-6.9578,-7.0364,-7.0402,-7.0228,-6.9884,-6.9846,-6.9677,-6.9246,-6.7545,-6.6602,-6.6476,-6.4816,-6.3664,-6.312,-6.2362,-6.1662,0.0,0.0,0.0,0.0,0.0,0.0,0.0,0.0,0.0,0.0,0.0,-5.7475,-5.7801,-5.903,-5.9826,-5.9902,-5.9379,-5.9186,-5.9381,-5.8859,-5.8721,-5.9309,-5.9281,-5.9218,-5.9144,-5.9144,-5.9329,-5.9738,-5.9812,-6.0147,-6.1076,-5.9701,-5.8698,-5.9107,-5.9552,-5.9812,-5.9887,-6.063,-6.1187,-6.1187,-6.1893,-6.2562,-6.3007,-6.3379,-6.3602,-6.3602,-6.3602,-6.3602,-6.3602,-6.3602,-6.3602,-6.3602,-6.3602,-6.3602,-6.349,-6.2896,-6.2168,-6.173,-6.1462,-6.1168,-6.8126,-6.8203,-6.8203,-6.8661,-6.9273,-6.8661,-6.8317,-6.8203,-6.8203,-6.8203,-6.8203,-6.8203,-6.8699,-6.9502,-6.9502,-6.996,-7.0724,-7.0724,-7.0763,-7.0724,-7.0763,-7.0763,-7.0724,-7.0763,-7.0724,-7.0724,-7.0763,-7.0763,-7.0724,-7.0724,-7.0686,-7.0572,-7.0572,-7.0151,-6.9349,-6.8508,-6.8394,-6.9005,-6.912,-6.954,-7.0211,-7.0151,-6.9769,-6.9082,-6.9043,-6.8661,-6.7897,-6.6214,-6.529,-6.522,-6.3556,-6.2585,-6.2618,-6.1858,-6.1446,0.0,-6.0643,0.0,0.0,0.0,0.0,0.0,0.0,0.0,0.0,-5.8878,-5.9181,-5.9961,-6.0681,-6.0833,-6.0264,-5.9396,-5.9163,-5.9787,-5.8934,-5.8855,-6.018,-6.0087,-6.0184,-6.0964,-6.0964,-6.089,-6.0778,-6.089,-6.0853,-6.0741,-6.0258,-5.9977,-6.0741,-6.0741,-6.0667,-6.1001,-6.115,-6.1224,-6.1447,-6.1967,-6.245,-6.2636,-6.3156,-6.3602,-6.3602,-6.3602,-6.3602,-6.3602,-6.3602,-6.3602,-6.3602,-6.3602,-6.3602,-6.3602,-6.3527,-6.3245,-6.2703,-6.2495,-6.2235,-6.9311,-6.9922,-6.9922,-7.0037,-7.0228,-7.0724,-7.0572,-6.9922,-6.9922,-6.9922,-6.9922,-6.996,-7.0381,-7.1238,-7.1221,-7.1718,-7.2482,-7.252,-7.252,-7.252,-7.252,-7.2482,-7.252,-7.2482,-7.252,-7.2482,-7.252,-7.252,-7.252,-7.252,-7.2138,-7.1489,-7.145,-7.103,-7.019,0.0,0.0,0.0,-6.8852,-6.9273,-6.9387,-6.8738,-6.8317,-6.8165,-6.8126,0.0,-6.7859,-6.6214,-6.5296,-6.5155,-6.3514,0.0,0.0,0.0,0.0,0.0,0.0,0.0,0.0,0.0,0.0,0.0,-5.9809,-5.9317,-5.962,-5.9658,-5.9999,-6.0795,-6.1039,-6.1326,-6.1877,-6.1609,-6.1446,-6.1579,-6.1147,-6.0927,-6.1168,-6.0422,-5.9998,-6.011,-5.9589,-5.9218,-5.9292,-5.9181,-5.9218,-5.9383,-5.9627,-5.994,-6.0147,-5.9738,-5.9478,-6.0035,-6.0778,-6.1447,-6.2079,-6.2301,-6.2636,-6.3193,-6.3431,-6.3602,-6.3602,-6.3602,-6.3602,-6.3602,-6.3602,-6.3602,-6.3602,-6.3602,-6.3602,-6.3602,-6.3602,-6.3519,-6.3243,-6.3206,-6.31,-7.0916,0.0,-7.168,-7.168,0.0,-7.2138,-7.21,-7.168,-7.168,-7.168,-7.168,-7.168,-7.1947,-7.2329,-7.2329,-7.2597,-7.2979,-7.2979,-7.2979,-7.2979,-7.2979,-7.2979,-7.2979,-7.2979,-7.2979,-7.2979,-7.2979,-7.2979,-7.2979,-7.2979,-7.275,-7.2329,-7.2329,-7.2138,-7.168,-7.0839,-6.9807,-6.8547,-6.8967,-6.9387,-6.9769,-6.9387,-6.8967,-6.8547,0.0,0.0,0.0,0.0,0.0,0.0,0.0,0.0,0.0,0.0,0.0,-6.3562,-6.2825,-6.2425,-6.2425,-6.2349,-6.2311,-6.2349,-6.2349,-6.2008,-6.1212,-6.1894,-6.2538,-6.2917,-6.2614,-6.2538,-6.29,-6.2188,-6.1606,-6.1588,-6.0886,-6.0413,-6.0336,-5.9797,-5.9329,-5.9292,-5.8958,-5.8846,-5.9255,-5.9292,-5.9478,-5.9887,-6.0258,-6.0555,-6.0518,-6.0221,-6.0147,-6.0481,-6.089,-6.1336,-6.1744,-6.2227,-6.2524,-6.2933,-6.3342,-6.3565,-6.3602,-6.3602,-6.3602,-6.3602,-6.3602,-6.3602,-6.3602,-6.3602,-6.3602,-6.3602,-6.3602,-6.3579,-6.3511,-6.3511,-6.3428,-7.2329,-7.2979,-7.2979,-7.2979,-7.3017,-7.317,-7.3284,-7.3437,0.0,0.0,0.0,-7.2979,-7.3055,-7.3208,-7.3208,-7.3284,-7.3437,-7.3437,-7.3437,-7.3437,-7.3437,-7.3437,-7.3437,-7.3437,-7.3437,-7.3437,-7.3437,-7.3437,-7.3437,-7.3437,-7.3437,-7.3437,-7.3437,-7.3361,-7.317,-7.2367,-7.1183,-6.9693,-6.9349,-6.954,-7.0151,-7.0037,-6.9655,-6.8967,-6.8967,-6.8623,-6.7897,-6.7133,-6.6697,-6.6659,-6.5779,-6.5318,-6.5373,-6.466,-6.4255,-6.4244,-6.362,-6.3203,-6.3069,-6.3676,-6.3979,-6.381,-6.4509,-6.432,-6.2917,-6.4092,-6.485,-6.4699,-6.4017,-6.3486,-6.3183,-6.197,-6.1022,-6.0909,-6.0126,-5.959,-5.9534,-5.9338,-5.9318,-5.9144,-5.9255,-5.9367,-6.0035,-6.0147,-6.037,-6.1038,-6.1261,-6.1484,-6.1558,-6.1484,-6.1336,-6.141,-6.167,-6.1707,-6.1744,-6.2227,-6.2599,-6.2747,-6.3208,-6.3602,-6.3602,-6.3602,-6.3602,-6.3602,-6.3602,-6.3602,-6.3602,-6.3602,-6.3602,-6.3602,-6.3602,-6.3602,-6.3602,-6.3602,-6.3557,-7.2902,-7.2979,-7.2979,-7.2979,-7.3055,-7.3743,-7.4469,-7.5004,-7.3628,-7.3017,-7.2979,-7.2979,-7.3399,-7.4049,-7.4049,-7.4469,-7.5136,-7.5174,-7.5157,0.0,-7.5174,-7.5174,-7.5119,-7.5157,-7.5119,-7.5174,-7.5119,-7.5174,-7.5174,-7.5136,-7.5174,-7.5136,-7.5157,-7.4736,-7.401,-7.3208,-7.2329,-7.1336,-6.9922,-6.9273,-6.9349,-6.8623,-6.8203,-6.8088,-6.8126,-6.805,-6.7897,-6.7133,-6.6681,-6.6618,-6.5763,-6.5569,-6.6087,-6.6032,-6.6208,-6.6783,-6.6746,-6.6367,-6.5609,-6.5684,-6.5457,-6.4813,-6.485,-6.4775,-6.4585,-6.4775,-6.4585,-6.3886,-6.3696,-6.2993,-6.1667,-6.1288,-6.0925,-6.0302,-6.0458,-6.062,-6.0398,-6.0728,-6.0916,-6.0763,-6.0853,-6.0815,-6.0964,-6.1038,-6.1076,-6.1298,-6.1893,-6.245,-6.2836,-6.2673,-6.2301,-6.2339,-6.2822,-6.3193,-6.3119,-6.3305,-6.3379,-6.3453,-6.349,-6.3602,-6.3602,-6.3602,-6.3602,-6.3602,-6.3602,-6.3602,-6.3602,-6.3602,-6.3602,-6.3602,-6.3602,-6.3602,-6.3602,-6.3602,-6.3557,-7.3934,-7.4316,-7.4354,-7.4372,-7.4393,-7.4736,-7.5119,-7.5442,-7.4715,-7.4354,-7.4354,-7.4372,-7.4545,-7.4889,-7.4889,-7.5119,-7.5518,-7.5518,-7.5518,-7.5518,-7.5518,-7.5518,-7.5518,-7.5518,-7.5518,-7.5518,-7.5518,-7.5518,-7.5518,-7.5518,-7.5518,-7.5518,-7.5518,-7.531,-7.4889,-7.4049,-7.3246,-7.2406,-7.1183,-7.0304,-6.9846,-6.9464,-6.9234,-6.9234,-6.9273,-6.9273,-6.9234,-6.889,-6.8683,-6.8651,-6.8259,-6.8138,-6.8382,-6.7949,-6.7802,-6.8015,-6.72,-6.6329,-6.5495,-6.5002,-6.4813,-6.4888,-6.4926,-6.4926,-6.4926,-6.4926,-6.4737,-6.432,-6.3903,-6.3296,-6.2501,-6.2046,-6.1667,-6.1288,-6.1475,-6.1467,-6.1262,-6.1329,-6.1425,-6.123,-6.1187,-6.1373,-6.1819,-6.1856,-6.2079,-6.2413,-6.2896,-6.323,-6.3542,-6.3282,-6.3022,-6.3059,-6.3356,-6.3565,-6.3602,-6.3602,-6.3602,-6.3602,-6.3602,-6.3602,-6.3602,-6.3602,-6.3602,-6.3602,-6.3602,-6.3602,-6.3602,-6.3602,-6.3602,-6.3602,-6.3602,-6.3602,-6.3602,-6.3602,-6.3557,-7.4889,-7.5518,-7.5518,-7.5518,-7.5518,-7.5518,-7.5518,-7.5518,-7.548,-7.5518,-7.5518,-7.5518,-7.5518,-7.5518,-7.5518,-7.5518,-7.5518,-7.5518,-7.5518,-7.5518,-7.5518,-7.5518,-7.5518,-7.5518,-7.5518,-7.5518,-7.5518,-7.5518,-7.5518,-7.5518,-7.5518,-7.5518,-7.5518,-7.5518,-7.548,-7.4813,-7.4087,-7.3284,-7.2406,-7.1489,-7.0441,-7.0402,-7.0402,-7.0402,-7.0402,-7.0402,-7.0402,-7.0402,-7.0402,-7.0402,-7.0353,-7.0268,-7.0182,-6.9523,-6.9053,-6.881,-6.7522,-6.6215,-6.5229,-6.4396,-6.4206,-6.485,-6.4926,-6.4926,-6.4926,-6.4926,-6.4813,-6.4585,-6.3961,-6.3507,-6.3203,-6.2766,-6.2425,-6.2408,-6.2455,-6.2352,-6.2108,-6.2081,-6.199,-6.1772,-6.1744,-6.2041,-6.2524,-6.2673,-6.2896,-6.3379,-6.3602,-6.3602,-6.3602,-6.3602,-6.3602,-6.3602,-6.3602,-6.3602,-6.3602,-6.3602,-6.3602,-6.3602,-6.3602,-6.3602,-6.3602,-6.3602,-6.3602,-6.3602,-6.3602,-6.3602,-6.3602,-6.3602,-6.3602,-6.3602,-6.3602,-6.3602,-6.3602,-6.3602,-6.3557,-7.5442,-7.5518,-7.5518,-7.5518,-7.5518,-7.5518,-7.5518,-7.5518,-7.5518,-7.5518,-7.5518,-7.5518,-7.5518,-7.5518,-7.5518,-7.5518,-7.5518,-7.5518,-7.5518,-7.5518,-7.5518,-7.5518,-7.5518,-7.5518,-7.5518,-7.5518,-7.5518,-7.5518,-7.5518,-7.5518,-7.5518,-7.5518,-7.5518,-7.5518,-7.548,-7.5386,-7.4927,-7.4125,-7.3284,-7.2062,-7.0533,-7.0402,-7.0402,-7.0402,-7.0402,-7.0402,-7.0402,-7.0402,-7.0402,-7.0402,-7.0402,-7.0353,-7.0268,-7.0144,-7.0017,-6.9795,-6.8886,-6.7693,-6.6139,-6.5229,-6.4813,-6.4888,-6.4926,-6.4926,-6.4926,-6.4926,-6.4547,-6.3961,-6.3713,-6.3355,-6.2652,-6.2521,-6.2559,-6.2673,-6.3093,-6.331,-6.3048,-6.3513,-6.3801,-6.3424,-6.3193,-6.3416,-6.3379,-6.3379,-6.349,-6.3565,-6.3602,-6.3602,-6.3602,-6.3602,-6.3602,-6.3602,-6.3602,-6.3602,-6.3602,-6.3602,-6.3602,-6.3602,-6.3602,-6.3602,-6.3602,-6.3602,-6.3602,-6.3602,-6.3602,-6.3602,-6.3602,-6.3602,-6.3602,-6.3602,-6.3602,-6.3602,-6.3602,-6.3602,-6.3579,-7.5518,-7.5518,-7.5518,-7.5518,-7.5518,-7.5518,-7.5518,-7.5518,-7.5518,-7.5518,-7.5518,-7.5518,-7.5518,-7.5518,-7.5518,-7.5518,-7.5518,-7.5518,-7.5518,-7.5518,-7.5518,-7.5518,-7.5518,-7.5518,-7.5518,-7.5518,-7.5518,-7.5518,-7.5518,-7.5518,-7.5518,-7.5518,-7.5518,-7.5518,-7.5518,-7.5518,-7.508,-7.424,-7.3858,-7.3132,-7.1947,-7.0916,-7.0402,-7.0402,-7.0402,-7.0402,-7.0402,-7.0402,-7.0402,-7.0402,-7.0369,-7.0341,-7.0238,-7.0149,-7.0021,-6.9853,-6.864,-6.7162,-6.5495,-6.5078,-6.4926,-6.4926,-6.4926,-6.4926,-6.4926,-6.4926,-6.4737,-6.4471,-6.4396,-6.4206,-6.3903,-6.3865,-6.3848,-6.3886,-6.4062,-6.403,-6.3761,-6.3883,-6.3878,-6.3647,-6.3602,-6.3602,-6.3602,-6.3602,-6.3602,-6.3602,-6.3602,-6.3602,-6.3602,-6.3602,-6.3602,-6.3602,-6.3602,-6.3602,-6.3602,-6.3602,-6.3602,-6.3602,-6.3602,-6.3602,-6.3602,-6.3602,-6.3602,-6.3602,-6.3602,-6.3602,-6.3602,-6.3602,-6.3602,-6.3602,-6.3602,-6.3602,-6.3602,-6.3602,-6.3602,-7.5518,-7.5518,-7.5518,-7.5518,-7.5518,-7.5518,-7.5518,-7.5518,-7.5518,-7.5518,-7.5518,-7.5518,-7.5518,-7.5518,-7.5518,-7.5518,-7.5518,-7.5518,-7.5518,-7.5518,-7.5518,-7.5518,-7.5518,-7.5518,-7.5518,-7.5518,-7.5518,-7.5518,-7.5518,-7.5518,-7.5518,-7.5518,-7.5518,-7.5518,-7.5518,-7.5518,-7.5195,-7.4622,-7.4354,-7.3934,-7.3208,-7.1871,-7.1107,-7.1107,-7.1107,-7.1107,-7.1107,-7.0877,-7.0763,-7.0763,-7.0489,-7.0251,-7.022,-7.0076,-6.9776,-6.9152,-6.7883,-6.6404,-6.5002,-6.4926,-6.4926,-6.4926,-6.4926,-6.4926,-6.4926,-6.4926,-6.4926,-6.4888,-6.4926,-6.4888,-6.4926,-6.4926,-6.4926,-6.4909,-6.4763,-6.4539,-6.4249,-6.4067,-6.3878,-6.3669,-6.3602,-6.3602,-6.3602,-6.3602,-6.3602,-6.3602,-6.3602,-6.3602,-6.3602,-6.3602,-6.3602,-6.3602,-6.3602,-6.3602,-6.3602,-6.3602,-6.3602,-6.3602,-6.3602,-6.3602,-6.3602,-6.3602,-6.3602,-6.3602,-6.3602,-6.3602,-6.3602,-6.3602,-6.3602,-6.3602,-6.3602,-6.3602,-6.3602,-6.3602,-6.3602,-7.5518,-7.5518,-7.5518,-7.5518,-7.5518,-7.5518,-7.5518,-7.5518,-7.5518,-7.5518,-7.5518,-7.5518,-7.5518,-7.5518,-7.5518,-7.5518,-7.5518,-7.5518,-7.5518,-7.5518,-7.5518,-7.5518,-7.5518,-7.5518,-7.5518,-7.5518,-7.5518,-7.5518,-7.5518,-7.5518,-7.5518,-7.5518,-7.5518,-7.5518,-7.5518,-7.5518,-7.548,-7.5289,-7.466,-7.4201,-7.4087,-7.3323,-7.2902,-7.2864,-7.2826,-7.275,-7.2711,-7.2062,-7.1603,-7.1603,-7.0794,-7.0268,-7.0251,-7.0055,-6.9226,-6.7749,-6.6708,-6.5836,-6.504,-6.4926,-6.4926,-6.4926,-6.4926,-6.4926,-6.4926,-6.4926,-6.4926,-6.4926,-6.4926,-6.4926,-6.4926,-6.4926,-6.4926,-6.4888,-6.4871,-6.4671,-6.4249,-6.4149,-6.3984,-6.3714,-6.3602,-6.3602,-6.3602,-6.3602,-6.3602,-6.3602,-6.3602,-6.3602,-6.3602,-6.3602,-6.3602,-6.3602,-6.3602,-6.3602,-6.3602,-6.3602,-6.3602,-6.3602,-6.3602,-6.3602,-6.3602,-6.3602,-6.3602,-6.3602,-6.3602,-6.3602,-6.3602,-6.3602,-6.3602,-6.3602,-6.3602,-6.3602,-6.3602,-6.3602,-6.3602,-7.5518,-7.5518,-7.5518,-7.5518,-7.5518,-7.5518,-7.5518,-7.5518,-7.5518,-7.5518,-7.5518,-7.5518,-7.5518,-7.5518,-7.5518,-7.5518,-7.5518,-7.5518,-7.5518,-7.5518,-7.5518,-7.5518,-7.5518,-7.5518,-7.5518,-7.5518,-7.5518,-7.5518,-7.5518,-7.5518,-7.5518,-7.5518,-7.5518,-7.5518,-7.5518,-7.5518,-7.5518,-7.548,-7.5157,-7.5042,-7.5004,-7.4736,-7.4584,-7.4545,-7.3552,-7.2979,-7.2979,-7.2176,-7.168,-7.168,-7.0781,-7.0238,-7.0182,-6.9527,-6.8602,-6.7466,-6.6594,-6.576,-6.504,-6.4926,-6.4926,-6.4926,-6.4926,-6.4926,-6.4926,-6.4926,-6.4926,-6.4926,-6.4926,-6.4926,-6.4926,-6.4926,-6.4926,-6.4891,-6.4633,-6.4444,-6.4209,-6.3963,-6.3742,-6.3624,-6.3602,-6.3602,-6.3602,-6.3602,-6.3602,-6.3602,-6.3602,-6.3602,-6.3602,-6.3602,-6.3602,-6.3602,-6.3602,-6.3602,-6.3602,-6.3602,-6.3602,-6.3602,-6.3602,-6.3602,-6.3602,-6.3602,-6.3602,-6.3602,-6.3602,-6.3602,-6.3602,-6.3602,-6.3602,-6.3602,-6.3602,-6.3602,-6.3602,-6.3602,-6.3602,-7.5518,-7.5518,-7.5518,-7.5518,-7.5518,-7.5518,-7.5518,-7.5518,-7.5518,-7.5518,-7.5518,-7.5518,-7.5518,-7.5518,-7.5518,-7.5518,-7.5518,-7.5518,-7.5518,-7.5518,-7.5518,-7.5518,-7.5518,-7.5518,-7.5518,-7.5518,-7.5518,-7.5518,-7.5518,-7.5518,-7.5518,-7.5518,-7.5518,-7.5518,-7.5518,-7.5518,-7.5518,-7.5518,-7.5518,-7.5518,-7.5518,-7.5518,-7.5518,-7.5365,-7.4393,-7.3819,-7.3781,-7.2979,-7.2367,-7.2045,-7.1128,-7.0416,-7.0058,-6.9132,-6.8224,-6.7428,-6.6594,-6.576,-6.504,-6.4926,-6.4926,-6.4926,-6.4926,-6.4926,-6.4926,-6.4926,-6.4926,-6.4926,-6.4926,-6.4926,-6.4926,-6.4926,-6.4926,-6.4853,-6.4558,-6.4289,-6.4209,-6.3878,-6.3676,-6.3624,-6.3602,-6.3602,-6.3602,-6.3602,-6.3602,-6.3602,-6.3602,-6.3602,-6.3602,-6.3602,-6.3602,-6.3602,-6.3602,-6.3602,-6.3602,-6.3602,-6.3602,-6.3602,-6.3602,-6.3602,-6.3602,-6.3602,-6.3602,-6.3602,-6.3602,-6.3602,-6.3602,-6.3602,-6.3602,-6.3602,-6.3602,-6.3602,-6.3602,-6.3602,-6.3602,-7.5518,-7.5518,-7.5518,-7.5518,-7.5518,-7.5518,-7.5518,-7.5518,-7.5518,-7.5518,-7.5518,-7.5518,-7.5518,-7.5518,-7.5518,-7.5518,-7.5518,-7.5518,-7.5518,-7.5518,-7.5518,-7.5518,-7.5518,-7.5518,-7.5518,-7.5518,-7.5518,-7.5518,-7.5518,-7.5518,-7.5518,-7.5518,-7.5518,-7.5518,-7.5518,-7.5518,-7.5518,-7.5518,-7.5518,-7.5518,-7.5518,-7.5518,-7.5518,-7.5518,-7.5365,-7.5327,-7.5365,-7.4507,-7.3628,-7.2885,-7.189,-7.0894,-6.9986,-6.9058,-6.8262,-6.7428,-6.6594,-6.576,-6.504,-6.4926,-6.4926,-6.4926,-6.4926,-6.4926,-6.4926,-6.4926,-6.4926,-6.4926,-6.4926,-6.4926,-6.4926,-6.4926,-6.4926,-6.4891,-6.4671,-6.4424,-6.4229,-6.4004,-6.383,-6.3647,-6.3602,-6.3602,-6.3602,-6.3602,-6.3602,-6.3602,-6.3602,-6.3602,-6.3602,-6.3602,-6.3602,-6.3602,-6.3602,-6.3602,-6.3602,-6.3602,-6.3602,-6.3602,-6.3602,-6.3602,-6.3602,-6.3602,-6.3602,-6.3602,-6.3602,-6.3602,-6.3602,-6.3602,-6.3602,-6.3602,-6.3602,-6.3602,-6.3602,-6.3602,-6.3602,-7.5518,-7.5518,-7.5518,-7.5518,-7.5518,-7.5518,-7.5518,-7.5518,-7.5518,-7.5518,-7.5518,-7.5518,-7.5518,-7.5518,-7.5518,-7.5518,-7.5518,-7.5518,-7.5518,-7.5518,-7.5518,-7.5518,-7.5518,-7.5518,-7.5518,-7.5518,-7.5518,-7.5518,-7.5518,-7.5518,-7.5518,-7.5518,-7.5518,-7.5518,-7.5518,-7.5518,-7.5518,-7.5518,-7.5518,-7.5518,-7.5518,-7.5518,-7.5518,-7.5518,-7.5518,-7.5518,-7.548,-7.466,-7.3785,-7.2931,-7.1931,-7.0932,-6.9986,-6.9058,-6.8262,-6.7428,-6.6594,-6.576,-6.504,-6.4926,-6.4926,-6.4926,-6.4926,-6.4926,-6.4926,-6.4926,-6.4926,-6.4926,-6.4926,-6.4926,-6.4926,-6.4926,-6.4926,-6.4926,-6.4558,-6.4309,-6.4169,-6.3915,-6.3714,-6.3624,-6.3602,-6.3602,-6.3602,-6.3602,-6.3602,-6.3602,-6.3602,-6.3602,-6.3602,-6.3602,-6.3602,-6.3602,-6.3602,-6.3602,-6.3602,-6.3602,-6.3602,-6.3602,-6.3602,-6.3602,-6.3602,-6.3602,-6.3602,-6.3602,-6.3602,-6.3602,-6.3602,-6.3602,-6.3602,-6.3602,-6.3602,-6.3602,-6.3602,-6.3602,-6.3602,-7.5518,-7.5518,-7.5518,-7.5518,-7.5518,-7.5518,-7.5518,-7.5518,-7.5518,-7.5518,-7.5518,-7.5518,-7.5518,-7.5518,-7.5518,-7.5518,-7.5518,-7.5518,-7.5518,-7.5518,-7.5518,-7.5518,-7.5518,-7.5518,-7.5518,-7.5518,-7.5518,-7.5518,-7.5518,-7.5518,-7.5518,-7.5518,-7.5518,-7.5518,-7.5518,-7.5518,-7.5518,-7.5518,-7.5518,-7.5518,-7.5518,-7.5518,-7.5518,-7.5518,-7.5518,-7.5518,-7.548,-7.4927,-7.4091,-7.2841,-7.1611,-7.0591,-6.991,-6.9361,-6.8716,-6.7883,-6.7049,-6.6253,-6.5457,-6.5116,-6.4926,-6.4926,-6.4926,-6.4926,-6.4926,-6.4926,-6.4926,-6.4926,-6.4926,-6.4926,-6.4926,-6.4926,-6.4926,-6.4888,-6.4577,-6.4269,-6.4108,-6.3808,-6.3624,-6.3602,-6.3602,-6.3602,-6.3602,-6.3602,-6.3602,-6.3602,-6.3602,-6.3602,-6.3602,-6.3602,-6.3602,-6.3602,-6.3602,-6.3602,-6.3602,-6.3602,-6.3602,-6.3602,-6.3602,-6.3602,-6.3602,-6.3602,-6.3602,-6.3602,-6.3602,-6.3602,-6.3602,-6.3602,-6.3602,-6.3602,-6.3602,-6.3602,-6.3602,-6.3602,-6.3602,-7.5518,-7.5518,-7.5518,-7.5518,-7.5518,-7.5518,-7.5518,-7.5518,-7.5518,-7.5518,-7.5518,-7.5518,-7.5518,-7.5518,-7.5518,-7.5518,-7.5518,-7.5518,-7.5518,-7.5518,-7.5518,-7.5518,-7.5518,-7.5518,-7.5518,-7.5518,-7.5518,-7.5518,-7.5518,-7.5518,-7.5518,-7.5518,-7.5518,-7.5518,-7.5518,-7.5518,-7.5518,-7.5518,-7.5518,-7.5518,-7.5518,-7.5518,-7.5518,-7.5518,-7.5518,-7.5518,-7.548,-7.5216,-7.4437,-7.2823,-7.1082,-7.0061,-6.991,-6.9891,-6.9437,-6.8565,-6.7845,-6.7011,-6.6177,-6.5495,-6.504,-6.4926,-6.4926,-6.4926,-6.4926,-6.4926,-6.4926,-6.4926,-6.4926,-6.4926,-6.4926,-6.4926,-6.4926,-6.4853,-6.4652,-6.4346,-6.3942,-6.3758,-6.3624,-6.3602,-6.3602,-6.3602,-6.3602,-6.3602,-6.3602,-6.3602,-6.3602,-6.3602,-6.3602,-6.3602,-6.3602,-6.3602,-6.3602,-6.3602,-6.3602,-6.3602,-6.3602,-6.3602,-6.3602,-6.3602,-6.3602,-6.3602,-6.3602,-6.3602,-6.3602,-6.3602,-6.3602,-6.3602,-6.3602,-6.3602,-6.3602,-6.3602,-6.3602,-6.3602,-6.3602,-7.5518,-7.5518,-7.5518,-7.5518,-7.5518,-7.5518,-7.5518,-7.5518,-7.5556,-7.5633,-7.5556,-7.5518,-7.5594,-7.5518,-7.5556,-7.5518,-7.5556,-7.5556,-7.5518,-7.5518,-7.5518,-7.5518,-7.5518,-7.5518,-7.5518,-7.5518,-7.5518,-7.5518,-7.5518,-7.5518,-7.5518,-7.5518,-7.5518,-7.5518,-7.5518,-7.5518,-7.5518,-7.5518,-7.5518,-7.5518,-7.5518,-7.5518,-7.5518,-7.5518,-7.5518,-7.5518,-7.5424,-7.4727,-7.3893,-7.2733,-7.0971,-6.9929,-6.991,-6.9891,-6.955,-6.8792,-6.8375,-6.7617,-6.6442,-6.5912,-6.5533,-6.4964,-6.4926,-6.4926,-6.4926,-6.4926,-6.4926,-6.4926,-6.4926,-6.4926,-6.4926,-6.4926,-6.4926,-6.4853,-6.4558,-6.4209,-6.3942,-6.372,-6.3602,-6.3602,-6.3602,-6.3602,-6.3602,-6.3602,-6.3602,-6.3602,-6.3602,-6.3602,-6.3602,-6.3602,-6.3602,-6.3602,-6.3602,-6.3602,-6.3602,-6.3602,-6.3602,-6.3602,-6.3602,-6.3602,-6.3602,-6.3602,-6.3602,-6.3602,-6.3602,-6.3602,-6.3602,-6.3602,-6.3602,-6.3602,-6.3602,-6.3602,-6.3602,-6.3602,-6.3602,-7.5518,-7.5518,-7.5518,-7.5518,-7.5556,-7.5844,-7.5997,-7.6074,-7.6418,-7.6532,-7.6532,-7.6532,-7.6532,-7.657,-7.657,-7.6303,-7.6036,-7.5997,-7.5806,-7.5518,-7.5518,-7.5518,-7.5518,-7.5518,-7.5518,-7.5518,-7.5518,-7.5518,-7.5518,-7.5518,-7.5518,-7.5518,-7.5518,-7.5518,-7.5518,-7.5518,-7.5518,-7.5518,-7.5518,-7.5518,-7.5518,-7.5518,-7.5518,-7.5518,-7.5518,-7.5462,-7.5277,-7.4427,-7.3478,-7.2509,-7.1238,-7.027,-6.9929,-6.9891,-6.9664,-6.9133,-6.883,-6.811,-6.7276,-6.6594,-6.5912,-6.5457,-6.5154,-6.4926,-6.4926,-6.4926,-6.4926,-6.4926,-6.4926,-6.4926,-6.4926,-6.4926,-6.4926,-6.4835,-6.4501,-6.4169,-6.4025,-6.3764,-6.3624,-6.3602,-6.3602,-6.3602,-6.3602,-6.3602,-6.3602,-6.3602,-6.3602,-6.3602,-6.3602,-6.3602,-6.3602,-6.3602,-6.3602,-6.3602,-6.3602,-6.3602,-6.3602,-6.3602,-6.3602,-6.3602,-6.3602,-6.3602,-6.3602,-6.3602,-6.3602,-6.3602,-6.3602,-6.3602,-6.3602,-6.3602,-6.3602,-6.3602,-6.3602,-6.3602,-6.3602,-7.5518,-7.5518,-7.5518,-7.5556,-7.573,-7.6379,-7.6723,-7.6991,-7.7526,-7.787,-7.787,-7.7946,-7.7755,-7.8022,-7.7678,-7.7526,-7.6838,-7.6838,-7.6341,-7.5883,-7.5577,-7.5518,-7.5518,-7.5518,-7.5518,-7.5518,-7.5518,-7.5518,-7.5518,-7.5518,-7.5518,-7.5518,-7.5518,-7.5518,-7.5518,-7.5518,-7.5518,-7.5518,-7.5518,-7.5518,-7.5518,-7.5518,-7.5518,-7.5501,-7.5483,-7.5374,-7.5074,-7.441,-7.3535,-7.2529,-7.1617,-7.0707,-7.0005,-6.9891,-6.9854,-6.974,-6.9209,-6.8754,-6.8375,-6.72,-6.6291,-6.6025,-6.5381,-6.4964,-6.4964,-6.4926,-6.4926,-6.4926,-6.4926,-6.4926,-6.4926,-6.4926,-6.4926,-6.4835,-6.4501,-6.4289,-6.4149,-6.3851,-6.3602,-6.3602,-6.3602,-6.3602,-6.3602,-6.3602,-6.3602,-6.3602,-6.3602,-6.3602,-6.3602,-6.3602,-6.3602,-6.3602,-6.3602,-6.3602,-6.3602,-6.3602,-6.3602,-6.3602,-6.3602,-6.3602,-6.3602,-6.3602,-6.3602,-6.3602,-6.3602,-6.3602,-6.3602,-6.3602,-6.3602,-6.3602,-6.3602,-6.3602,-6.3602,-6.3602,-6.3602,-7.5518,-7.5518,-7.5518,-7.5883,-7.6418,-7.6647,-7.7105,-7.7755,-7.7946,-7.8137,-7.8061,-7.8061,-7.8061,-7.8061,-7.8175,-7.787,-7.7717,-7.764,-7.7258,-7.6456,-7.573,-7.5518,-7.5518,-7.5518,-7.5518,-7.5518,-7.5518,-7.5518,-7.5518,-7.5518,-7.5518,-7.5518,-7.5518,-7.5518,-7.5518,-7.5518,-7.5518,-7.5518,-7.5518,-7.5518,-7.5518,-7.5518,-7.5518,-7.5501,-7.5392,-7.5264,-7.5076,-7.4846,-7.399,-7.2641,-7.1579,-7.0725,-7.0081,-6.9891,-6.9891,-6.9854,-6.974,-6.9323,-6.8679,-6.8186,-6.7466,-6.6367,-6.595,-6.5571,-6.4964,-6.4926,-6.4926,-6.4926,-6.4926,-6.4926,-6.4926,-6.4926,-6.4926,-6.4835,-6.4671,-6.4424,-6.4189,-6.3851,-6.3647,-6.3602,-6.3602,-6.3602,-6.3602,-6.3602,-6.3602,-6.3602,-6.3602,-6.3602,-6.3602,-6.3602,-6.3602,-6.3602,-6.3602,-6.3602,-6.3602,-6.3602,-6.3602,-6.3602,-6.3602,-6.3602,-6.3602,-6.3602,-6.3602,-6.3602,-6.3602,-6.3602,-6.3602,-6.3602,-6.3602,-6.3602,-6.3602,-6.3602,-6.3602,-6.3602,-6.3602,-7.5518,-7.5556,-7.5883,-7.6303,-7.68,-7.7564,-7.8175,-7.8634,-7.9054,-7.9169,-7.9169,-7.9169,-7.9169,-7.9169,-7.9169,-7.9016,-7.8557,-7.8137,-7.7526,-7.6761,-7.6188,-7.5883,-7.5518,-7.5518,-7.5518,-7.5518,-7.5518,-7.5518,-7.5518,-7.5518,-7.5518,-7.5518,-7.5518,-7.5518,-7.5518,-7.5518,-7.5518,-7.5518,-7.5518,-7.5518,-7.5518,-7.5518,-7.5445,-7.5374,-7.5264,-7.5076,-7.4998,-7.4502,-7.3666,-7.2526,-7.1559,-7.0725,-7.0081,-6.9891,-6.9891,-6.9891,-6.9891,-6.974,-6.9285,-6.8792,-6.8224,-6.7314,-6.6632,-6.595,-6.5457,-6.5154,-6.4926,-6.4926,-6.4926,-6.4926,-6.4926,-6.4926,-6.4926,-6.4891,-6.4708,-6.4521,-6.4366,-6.4,-6.3714,-6.3647,-6.3602,-6.3602,-6.3602,-6.3602,-6.3602,-6.3602,-6.3602,-6.3602,-6.3602,-6.3602,-6.3602,-6.3602,-6.3602,-6.3602,-6.3602,-6.3602,-6.3602,-6.3602,-6.3602,-6.3602,-6.3602,-6.3602,-6.3602,-6.3602,-6.3602,-6.3602,-6.3602,-6.3602,-6.3602,-6.3602,-6.3602,-6.3602,-6.3602,-6.3602,-6.3602,-7.5518,-7.5594,-7.6379,-7.6761,-7.7144,-7.8557,-7.9302,-7.9589,-8.02,-8.0277,-8.0468,-8.0506,-8.0238,-8.043,-8.0391,-8.0047,-7.9398,-7.8596,-7.7908,-7.7105,-7.6685,-7.615,-7.5671,-7.5518,-7.5518,-7.5518,-7.5518,-7.5518,-7.5518,-7.5518,-7.5518,-7.5518,-7.5518,-7.5518,-7.5518,-7.5518,-7.5518,-7.5518,-7.5518,-7.5518,-7.5501,-7.5445,-7.5392,-7.5208,-7.5095,-7.5036,-7.4825,-7.4197,-7.3265,-7.2413,-7.1559,-7.0725,-7.0119,-6.9891,-6.9891,-6.9891,-6.9891,-6.9816,-6.9702,-6.9247,-6.8792,-6.8603,-6.7428,-6.6404,-6.6025,-6.5533,-6.5154,-6.4964,-6.4926,-6.4926,-6.4926,-6.4926,-6.4926,-6.4891,-6.4745,-6.4652,-6.4539,-6.4206,-6.3915,-6.3676,-6.3624,-6.3602,-6.3602,-6.3602,-6.3602,-6.3602,-6.3602,-6.3602,-6.3602,-6.3602,-6.3602,-6.3602,-6.3602,-6.3602,-6.3602,-6.3602,-6.3602,-6.3602,-6.3602,-6.3602,-6.3557,-6.3442,-6.3442,-6.3579,-6.3602,-6.3579,-6.3579,-6.3602,-6.3602,-6.3602,-6.3602,-6.3602,-6.3602,-6.3602,-6.3602,-7.5518,-7.5594,-7.6379,-7.7105,-7.787,-7.8901,-7.9704,-8.0238,-8.0391,-8.0506,-8.0506,-8.0506,-8.0506,-8.0506,-8.0506,-8.0391,-8.0009,-7.9398,-7.8634,-7.7755,-7.7182,-7.6379,-7.5786,-7.5518,-7.5518,-7.5518,-7.5518,-7.5518,-7.5518,-7.5518,-7.5518,-7.5518,-7.5518,-7.5518,-7.5518,-7.5518,-7.5518,-7.5501,-7.5501,-7.5501,-7.5445,-7.5374,-7.5226,-7.5076,-7.5036,-7.4939,-7.467,-7.4023,-7.3227,-7.2393,-7.1559,-7.0725,-7.0081,-6.9891,-6.9891,-6.9891,-6.9891,-6.9891,-6.9816,-6.974,-6.9247,-6.8754,-6.8186,-6.7352,-6.6556,-6.5894,-6.5423,-6.5004,-6.4909,-6.4926,-6.4926,-6.4926,-6.4926,-6.4909,-6.4891,-6.4763,-6.4615,-6.4366,-6.4067,-6.3894,-6.372,-6.3602,-6.3602,-6.3602,-6.3602,-6.3602,-6.3602,-6.3602,-6.3602,-6.3602,-6.3602,-6.3602,-6.3602,-6.3602,-6.3602,-6.3602,-6.3602,-6.3602,-6.3602,-6.3602,-6.3511,-6.3218,-6.3218,-6.3359,-6.3511,-6.3534,-6.3557,-6.3579,-6.3602,-6.3602,-6.3602,-6.3579,-6.3602,-6.3602,-6.3602,-7.5518,-7.5633,-7.6838,-7.7602,-7.8175,-7.9398,-8.0124,-8.0468,-8.0506,-8.0506,-8.0506,-8.0506,-8.0506,-8.0506,-8.0506,-8.0506,-8.0353,-8.0162,-7.9436,-7.8634,-7.7793,-7.6914,-7.6074,-7.573,-7.5518,-7.5518,-7.5518,-7.5518,-7.5518,-7.5518,-7.5518,-7.5518,-7.5518,-7.5518,-7.5518,-7.5518,-7.5501,-7.5501,-7.5427,-7.5392,-7.5374,-7.5246,-7.5114,-7.4998,-7.4919,-7.4708,-7.4119,-7.3416,-7.2583,-7.1749,-7.0915,-7.0346,-7.0005,-6.9891,-6.9891,-6.9891,-6.9891,-6.9891,-6.9891,-6.9891,-6.9664,-6.9323,-6.8906,-6.83,-6.7335,-6.6466,-6.5426,-6.4823,-6.4835,-6.4926,-6.4926,-6.4926,-6.4926,-6.4926,-6.4926,-6.4873,-6.4745,-6.4521,-6.4326,-6.4046,-6.3808,-6.3647,-6.3602,-6.3602,-6.3602,-6.3602,-6.3602,-6.3602,-6.3602,-6.3602,-6.3602,-6.3602,-6.3602,-6.3602,-6.3602,-6.3602,-6.3602,-6.3602,-6.3602,-6.3602,-6.3534,-6.3289,-6.3171,-6.3194,-6.3289,-6.3349,-6.3534,-6.3557,-6.3579,-6.3557,-6.3534,-6.3511,-6.3557,-6.3602,-6.3534,-7.5518,-7.5615,-7.7105,-7.7831,-7.8252,-7.9589,-8.0315,-8.0468,-8.0506,-8.0506,-8.0506,-8.0506,-8.0506,-8.0506,-8.0506,-8.0506,-8.0506,-8.0468,-7.9971,-7.9169,-7.829,-7.7526,-7.6685,-7.5959,-7.5518,-7.5518,-7.5518,-7.5518,-7.5518,-7.5518,-7.5518,-7.5518,-7.5518,-7.5518,-7.5518,-7.5445,-7.5483,-7.5448,-7.5338,-7.5283,-7.5189,-7.5114,-7.4997,-7.4901,-7.4783,-7.4288,-7.372,-7.2658,-7.19,-7.1142,-7.046,-6.9891,-6.9891,-6.9891,-6.9891,-6.9891,-6.9891,-6.9891,-6.9891,-6.9891,-6.9854,-6.9702,-6.9247,-6.883,-6.7882,-6.6418,-6.4953,-6.4437,-6.4501,-6.4799,-6.4853,-6.4926,-6.4926,-6.4926,-6.4926,-6.4909,-6.4817,-6.469,-6.4501,-6.4227,-6.3873,-6.3714,-6.3647,-6.3602,-6.3602,-6.3602,-6.3602,-6.3602,-6.3602,-6.3602,-6.3602,-6.3602,-6.3602,-6.3602,-6.3602,-6.3602,-6.3602,-6.3602,-6.3602,-6.3602,-6.3534,-6.3442,-6.3312,-6.3171,-6.2904,-6.2953,-6.3218,-6.3373,-6.3171,-6.3123,-6.3265,-6.3289,-6.3147,-6.3147,-6.3147,-7.5518,-7.5556,-7.6456,-7.7296,-7.8061,-7.9016,-7.9856,-8.043,-8.043,-8.0506,-8.0506,-8.0506,-8.0506,-8.0506,-8.0506,-8.0506,-8.0506,-8.0353,-7.9971,-7.9225,-7.8328,-7.7449,-7.6685,-7.59,-7.5556,-7.5518,-7.5518,-7.5518,-7.5518,-7.5518,-7.5518,-7.5518,-7.5501,-7.5501,-7.5445,-7.5374,-7.5338,-7.532,-7.5284,-7.5152,-7.5037,-7.4941,-7.4881,-7.467,-7.4174,-7.3644,-7.3189,-7.209,-7.1256,-7.0991,-7.0308,-6.9929,-6.9891,-6.9891,-6.9891,-6.9891,-6.9891,-6.9891,-6.9891,-6.9891,-6.9815,-6.9815,-6.9683,-6.9092,-6.7851,-6.632,-6.4898,-6.4302,-6.4328,-6.4558,-6.4835,-6.4926,-6.4926,-6.4926,-6.4926,-6.4926,-6.4891,-6.4799,-6.4634,-6.4405,-6.4083,-6.3808,-6.3669,-6.3624,-6.3602,-6.3602,-6.3602,-6.3602,-6.3602,-6.3602,-6.3602,-6.3602,-6.3602,-6.3602,-6.3602,-6.3602,-6.3602,-6.3602,-6.3602,-6.3602,-6.3557,-6.3488,-6.3359,-6.3194,-6.288,-6.2515,-6.2592,-6.2643,-6.2567,-6.2679,-6.2855,-6.2755,-6.2552,-6.2629,-6.2805,-7.5518,-7.5577,-7.6379,-7.6914,-7.7373,-7.8175,-7.9016,-7.9704,-7.9818,-8.0086,-8.043,-8.0506,-8.0506,-8.043,-8.0506,-8.0506,-8.0391,-8.0009,-7.9684,-7.8996,-7.7984,-7.7067,-7.6609,-7.5921,-7.5518,-7.5518,-7.5518,-7.5518,-7.5518,-7.5518,-7.5518,-7.5501,-7.5409,-7.5374,-7.5374,-7.5283,-7.5246,-7.5209,-7.5133,-7.5036,-7.4843,-7.45,-7.4177,-7.4136,-7.3341,-7.2772,-7.2128,-7.1635,-7.0839,-7.0536,-7.0005,-6.9891,-6.9891,-6.9891,-6.9891,-6.9891,-6.9891,-6.9891,-6.9891,-6.9891,-6.9758,-6.9602,-6.9566,-6.9074,-6.7622,-6.6579,-6.5386,-6.4264,-6.4445,-6.467,-6.4835,-6.4909,-6.4926,-6.4926,-6.4926,-6.4926,-6.4909,-6.4873,-6.4726,-6.4501,-6.4326,-6.4063,-6.3808,-6.3714,-6.3647,-6.3602,-6.3602,-6.3602,-6.3602,-6.3602,-6.3602,-6.3602,-6.3602,-6.3602,-6.3602,-6.3602,-6.3602,-6.3602,-6.3602,-6.3579,-6.3579,-6.3511,-6.3442,-6.3242,-6.2978,-6.2618,-6.2192,-6.2176,-6.236,-6.2423,-6.2423,-6.2318,-6.2212,-6.236,-6.2515,-7.5518,-7.5539,-7.615,-7.6494,-7.6761,-7.7411,-7.8175,-7.8901,-7.8978,-7.9283,-7.9818,-8.0009,-8.0086,-7.9971,-7.9971,-7.9971,-7.978,-7.9245,-7.9016,-7.8404,-7.7602,-7.6838,-7.6456,-7.5921,-7.5518,-7.5518,-7.5518,-7.5518,-7.5501,-7.5483,-7.5427,-7.5427,-7.5356,-7.5301,-7.5264,-7.519,-7.5152,-7.5113,-7.4751,-7.4558,-7.4384,-7.372,-7.3416,-7.3037,-7.2507,-7.1768,-7.1218,-7.0626,-7.0171,-7.0081,-6.9737,-6.9699,-6.9853,-6.9891,-6.9891,-6.9891,-6.9891,-6.9891,-6.9891,-6.9872,-6.9679,-6.9542,-6.9269,-6.886,-6.7187,-6.6934,-6.6351,-6.4359,-6.4444,-6.467,-6.4853,-6.4926,-6.4926,-6.4926,-6.4926,-6.4926,-6.4909,-6.4891,-6.4817,-6.4708,-6.4501,-6.4346,-6.4083,-6.383,-6.3714,-6.3624,-6.3602,-6.3602,-6.3602,-6.3602,-6.3602,-6.3602,-6.3602,-6.3602,-6.3602,-6.3602,-6.3602,-6.3713,-6.3713,-6.3653,-6.3728,-6.3631,-6.3511,-6.3326,-6.3246,-6.2855,-6.2515,-6.236,-6.2212,-6.1969,-6.1832,-6.1942,-6.196,-6.2086,-6.2166,-7.5518,-7.5518,-7.5594,-7.6036,-7.6647,-7.6761,-7.7296,-7.8061,-7.8099,-7.8175,-7.8519,-7.8939,-7.8939,-7.8634,-7.9016,-7.8978,-7.8252,-7.8137,-7.8099,-7.7793,-7.7182,-7.6647,-7.6303,-7.5883,-7.5518,-7.5518,-7.5518,-7.5518,-7.5407,-7.5221,-7.5279,-7.532,-7.5207,-7.5208,-7.5095,-7.4961,-7.4731,-7.452,-7.4025,-7.374,-7.3492,-7.2962,-7.2449,-7.224,-7.1653,-7.1142,-7.1009,-6.9968,-6.9487,-6.9659,-6.934,-6.9319,-6.9542,-6.9719,-6.9738,-6.9758,-6.9758,-6.9777,-6.9835,-6.9891,-6.9891,-6.9719,-6.935,-6.8621,-6.7078,-6.6291,-6.5447,-6.455,-6.4482,-6.4596,-6.4781,-6.4926,-6.4926,-6.4926,-6.4926,-6.4926,-6.4926,-6.4926,-6.4891,-6.4817,-6.4708,-6.4463,-6.4326,-6.4063,-6.3808,-6.372,-6.3602,-6.3602,-6.3602,-6.3602,-6.3602,-6.3602,-6.3602,-6.3602,-6.3602,-6.3676,-6.3936,-6.4122,-6.4196,-6.4048,-6.3951,-6.3816,-6.4151,-6.3947,-6.3968,-6.3407,-6.3002,-6.3079,-6.282,-6.1674,-6.127,-6.1466,-6.1579,-6.1628,-6.1712,-7.5518,-7.5518,-7.5518,-7.5671,-7.5959,-7.5959,-7.6456,-7.7105,-7.722,-7.7526,-7.7984,-7.8328,-7.8328,-7.8175,-7.8213,-7.8366,-7.7946,-7.7411,-7.7296,-7.6914,-7.6418,-7.6036,-7.5768,-7.573,-7.5518,-7.548,-7.5501,-7.5427,-7.5336,-7.4824,-7.4504,-7.4543,-7.4771,-7.5038,-7.498,-7.437,-7.3931,-7.3436,-7.3113,-7.2886,-7.2696,-7.207,-7.1441,-7.112,-7.0345,-6.9724,-6.9334,-6.8907,-6.8803,-6.881,-6.872,-6.8848,-6.9025,-6.9277,-6.9419,-6.944,-6.946,-6.9582,-6.9815,-6.9891,-6.9891,-6.9777,-6.9347,-6.8521,-6.72,-6.6854,-6.5988,-6.5238,-6.4596,-6.4707,-6.4817,-6.4926,-6.4926,-6.4926,-6.4926,-6.4926,-6.4926,-6.4926,-6.4909,-6.4853,-6.4726,-6.4577,-6.4424,-6.4287,-6.4025,-6.383,-6.3676,-6.3602,-6.3602,-6.3602,-6.3602,-6.3713,-6.375,-6.3788,-6.3788,-6.3988,-6.4285,-6.4531,-6.4716,-6.4716,-6.4716,-6.5162,-6.5325,-6.5092,-6.486,-6.4596,-6.4377,-6.4174,-6.3411,-6.2133,-6.1442,-6.1152,-6.1241,-6.1234,-6.1321,-7.508,-7.5157,-7.5386,-7.5518,-7.5518,-7.5518,-7.5806,-7.6265,-7.6341,-7.6647,-7.7296,-7.7449,-7.7449,-7.7373,-7.7564,-7.7373,-7.7067,-7.6609,-7.6418,-7.615,-7.5844,-7.5518,-7.5518,-7.5518,-7.5518,-7.5424,-7.5122,-7.4954,-7.4842,-7.4045,-7.3649,-7.3612,-7.3896,-7.4066,-7.3971,-7.3608,-7.2962,-7.2507,-7.1971,-7.1855,-7.1683,-7.0743,-7.0143,-6.9739,-6.9192,-6.8855,-6.8514,-6.8308,-6.8259,-6.8271,-6.8247,-6.8198,-6.8392,-6.8605,-6.8848,-6.8915,-6.9047,-6.9298,-6.9562,-6.9853,-6.9891,-6.9815,-6.9244,-6.8449,-6.7676,-6.7162,-6.6086,-6.5138,-6.4891,-6.4926,-6.4926,-6.4926,-6.4926,-6.4926,-6.4926,-6.4926,-6.4926,-6.4926,-6.4926,-6.4909,-6.4763,-6.4708,-6.4634,-6.4482,-6.4206,-6.3937,-6.3714,-6.3602,-6.3602,-6.3602,-6.3602,-6.375,-6.3913,-6.3951,-6.4025,-6.4619,-6.5176,-6.5213,-6.5459,-6.5682,-6.5831,-6.6202,-6.6165,-6.5733,-6.5588,-6.5814,-6.5533,-6.5027,-6.3852,-6.2502,-6.1854,-6.12,-6.1123,-6.1182,-6.1152,-7.424,-7.4316,-7.508,-7.5403,-7.5365,-7.5518,-7.5556,-7.5671,-7.5671,-7.5709,-7.5921,-7.6418,-7.6341,-7.6036,-7.6532,-7.6418,-7.6036,-7.5747,-7.5671,-7.5633,-7.5633,-7.5518,-7.5365,-7.531,-7.5119,-7.5177,-7.4628,-7.4117,-7.4063,-7.3059,-7.2662,-7.2453,-7.2509,-7.2546,-7.2488,-7.2451,-7.2413,-7.2164,-7.1044,-7.0632,-7.0261,-6.9372,-6.8819,-6.8331,-6.8233,-6.7987,-6.7714,-6.7505,-6.7542,-6.7897,-6.77,-6.7752,-6.8049,-6.8198,-6.832,-6.8344,-6.8788,-6.9047,-6.9155,-6.9602,-6.974,-6.974,-6.9208,-6.8319,-6.7447,-6.6708,-6.595,-6.504,-6.4926,-6.4926,-6.4926,-6.4926,-6.4926,-6.4926,-6.4926,-6.4926,-6.4926,-6.4926,-6.4926,-6.4926,-6.4926,-6.4891,-6.4837,-6.469,-6.4366,-6.4063,-6.378,-6.3647,-6.3661,-6.3825,-6.3899,-6.4159,-6.4396,-6.4716,-6.4976,-6.5645,-6.6054,-6.6091,-6.6277,-6.6611,-6.6648,-6.6722,-6.6611,-6.6314,-6.6476,-6.6776,-6.6271,-6.5681,-6.4412,-6.3184,-6.1975,-6.1307,-6.12,-6.1093,-6.1093,-7.3275,-7.3313,-7.3688,-7.3819,-7.3972,-7.5059,-7.5518,-7.5518,-7.5518,-7.5518,-7.5556,-7.5844,-7.5806,-7.5653,-7.5692,-7.5768,-7.5594,-7.5518,-7.5518,-7.548,-7.5403,-7.5042,-7.4813,-7.4566,-7.432,-7.3771,-7.3298,-7.3132,-7.3022,-7.2111,-7.1712,-7.1541,-7.1219,-7.1086,-7.1389,-7.1503,-7.1332,-7.0705,-6.9988,-6.9541,-6.9438,-6.867,-6.7864,-6.7082,-6.7019,-6.6927,-6.6709,-6.6545,-6.6811,-6.7341,-6.7182,-6.7258,-6.7469,-6.7567,-6.783,-6.7933,-6.8296,-6.8743,-6.8903,-6.9222,-6.9304,-6.9323,-6.8944,-6.8072,-6.7428,-6.6594,-6.576,-6.5154,-6.4926,-6.4926,-6.4926,-6.4926,-6.4926,-6.4926,-6.4926,-6.4926,-6.4926,-6.4926,-6.4926,-6.4926,-6.4926,-6.4926,-6.4891,-6.4781,-6.4501,-6.4419,-6.4192,-6.3891,-6.3818,-6.4256,-6.4531,-6.4791,-6.5065,-6.5459,-6.5905,-6.65,-6.6834,-6.6908,-6.7293,-6.7813,-6.7739,-6.7404,-6.7479,-6.7465,-6.7614,-6.7664,-6.6987,-6.6211,-6.515,-6.4002,-6.2681,-6.1569,-6.1165,-6.1093,-6.1093,-7.231,-7.2348,-7.2744,-7.2893,-7.3101,-7.4146,-7.4622,-7.4698,-7.4889,-7.5042,-7.508,-7.531,-7.5518,-7.5518,-7.5518,-7.5518,-7.548,-7.5119,-7.5042,-7.5004,-7.4698,-7.4222,-7.3823,-7.3691,-7.3448,-7.2785,-7.2371,-7.2204,-7.2073,-7.1238,-7.084,-7.0593,-7.0157,-7.0346,-7.0535,-7.0477,-7.0026,-6.9439,-6.8832,-6.8389,-6.806,-6.7469,-6.6749,-6.5996,-6.5715,-6.5679,-6.5626,-6.5736,-6.5953,-6.6533,-6.6786,-6.6786,-6.6896,-6.7069,-6.7314,-6.7442,-6.7652,-6.8138,-6.8431,-6.8335,-6.847,-6.8754,-6.8186,-6.7542,-6.6935,-6.6101,-6.5533,-6.5078,-6.4926,-6.4926,-6.4926,-6.4926,-6.4926,-6.4926,-6.4926,-6.4926,-6.4926,-6.4926,-6.4926,-6.4926,-6.4926,-6.4926,-6.4909,-6.4799,-6.4671,-6.4633,-6.459,-6.4379,-6.4227,-6.4659,-6.5185,-6.5496,-6.5845,-6.6314,-6.676,-6.728,-6.7577,-6.7688,-6.8036,-6.8444,-6.8407,-6.8036,-6.8333,-6.8481,-6.8221,-6.79,-6.7469,-6.6678,-6.5327,-6.4256,-6.3253,-6.2242,-6.1325,-6.1093,-6.1093,-7.1365,-7.1479,-7.2296,-7.2563,-7.2637,-7.2817,-7.2962,-7.3093,-7.3858,-7.4201,-7.424,-7.4966,-7.5098,-7.5233,-7.531,-7.5195,-7.5025,-7.4396,-7.4205,-7.3976,-7.3653,-7.3122,-7.2858,-7.2726,-7.2483,-7.2202,-7.1805,-7.1274,-7.1124,-7.0308,-6.9873,-6.9797,-6.9436,-6.9321,-6.922,-6.8892,-6.8593,-6.8375,-6.7901,-6.7319,-6.6761,-6.6034,-6.5386,-6.4746,-6.45,-6.4835,-6.5084,-6.541,-6.5953,-6.6424,-6.6714,-6.6714,-6.6714,-6.6714,-6.6714,-6.6798,-6.6934,-6.7347,-6.7718,-6.7542,-6.7391,-6.7466,-6.6708,-6.6215,-6.6025,-6.5646,-6.5154,-6.5002,-6.4926,-6.4926,-6.4926,-6.4926,-6.4926,-6.4926,-6.4926,-6.4926,-6.4926,-6.4926,-6.4926,-6.4926,-6.4926,-6.4926,-6.4926,-6.4817,-6.4839,-6.5124,-6.5255,-6.5605,-6.5464,-6.5382,-6.5849,-6.6239,-6.6648,-6.7182,-6.759,-6.7887,-6.8036,-6.8097,-6.8184,-6.8481,-6.8518,-6.8518,-6.8518,-6.8481,-6.8407,-6.8086,-6.7518,-6.647,-6.5126,-6.4177,-6.3375,-6.2498,-6.1444,-6.1152,-6.1093,-7.0419,-7.0438,-7.0776,-7.0908,-7.0926,-7.1017,-7.1679,-7.2817,-7.325,-7.3361,-7.3361,-7.359,-7.3879,-7.3705,-7.3653,-7.3656,-7.3524,-7.3319,-7.3169,-7.2958,-7.2747,-7.233,-7.2028,-7.1743,-7.1423,-7.095,-7.0535,-7.0346,-7.01,-6.9399,-6.8982,-6.8925,-6.8297,-6.7772,-6.7261,-6.6611,-6.7123,-6.7374,-6.6985,-6.6271,-6.5584,-6.5003,-6.4299,-6.378,-6.3526,-6.3997,-6.4541,-6.4722,-6.5374,-6.6424,-6.617,-6.5953,-6.5953,-6.5475,-6.5162,-6.5667,-6.6014,-6.647,-6.6854,-6.6711,-6.648,-6.6329,-6.576,-6.576,-6.5684,-6.5419,-6.4926,-6.4926,-6.4926,-6.4926,-6.4926,-6.4926,-6.4926,-6.4926,-6.4926,-6.4926,-6.4926,-6.4926,-6.4926,-6.4926,-6.4926,-6.4926,-6.4926,-6.4909,-6.4969,-6.5406,-6.5899,-6.6349,-6.6616,-6.6447,-6.6597,-6.7002,-6.7317,-6.7813,-6.8036,-6.8296,-6.837,-6.8481,-6.8518,-6.8518,-6.8518,-6.8518,-6.8518,-6.8333,-6.8036,-6.7739,-6.7404,-6.6136,-6.4549,-6.4069,-6.332,-6.2468,-6.1764,-6.1473,-6.1211,-6.9948,-6.9985,-7.0041,-7.0077,-7.0077,-7.0114,-7.0776,-7.1685,-7.2192,-7.2342,-7.2418,-7.2761,-7.2876,-7.2935,-7.2899,-7.2864,-7.2826,-7.2409,-7.2182,-7.2144,-7.1898,-7.1347,-7.0986,-7.0798,-7.0571,-7.0022,-6.9606,-6.9417,-6.919,-6.8603,-6.811,-6.8035,-6.7083,-6.6603,-6.6254,-6.5949,-6.5644,-6.5866,-6.5752,-6.5181,-6.4594,-6.4075,-6.3501,-6.2947,-6.2766,-6.3237,-6.3816,-6.3961,-6.4685,-6.5663,-6.5229,-6.5156,-6.5084,-6.4678,-6.4489,-6.4965,-6.5189,-6.5482,-6.5721,-6.5728,-6.567,-6.5533,-6.5229,-6.5267,-6.5267,-6.5154,-6.4964,-6.4926,-6.4926,-6.4926,-6.4926,-6.4926,-6.4926,-6.4926,-6.4926,-6.4926,-6.4926,-6.4926,-6.4926,-6.4926,-6.4926,-6.4926,-6.4926,-6.4926,-6.5174,-6.5782,-6.6446,-6.707,-6.7303,-6.7326,-6.7502,-6.7887,-6.8118,-6.837,-6.8518,-6.8518,-6.8518,-6.8518,-6.8518,-6.8518,-6.8518,-6.8518,-6.8518,-6.8073,-6.7479,-6.7182,-6.6871,-6.5305,-6.3931,-6.3591,-6.3407,-6.2848,-6.2212,-6.1776,-6.1579,-6.9778,-6.9797,-6.9891,-6.991,-6.991,-6.9966,-7.0041,-7.0079,-7.0968,-7.1309,-7.1441,-7.2106,-7.2315,-7.2142,-7.2106,-7.2126,-7.1918,-7.1519,-7.1254,-7.1253,-7.0816,-7.0286,-7.0003,-6.9833,-6.9606,-6.9398,-6.902,-6.8546,-6.8318,-6.7769,-6.7276,-6.7296,-6.6593,-6.6003,-6.5634,-6.4979,-6.451,-6.4086,-6.4144,-6.3838,-6.3384,-6.3011,-6.2766,-6.2223,-6.2186,-6.244,-6.3019,-6.3345,-6.3526,-6.4106,-6.4323,-6.4323,-6.407,-6.4033,-6.4054,-6.4283,-6.4377,-6.4642,-6.4855,-6.4992,-6.5064,-6.504,-6.4926,-6.4964,-6.504,-6.504,-6.4926,-6.4926,-6.4926,-6.4926,-6.4926,-6.4926,-6.4926,-6.4926,-6.4926,-6.4926,-6.4926,-6.4926,-6.4926,-6.4926,-6.4926,-6.4926,-6.4926,-6.4964,-6.5495,-6.6121,-6.6785,-6.7506,-6.8087,-6.8194,-6.8256,-6.857,-6.8558,-6.8602,-6.8518,-6.8518,-6.8518,-6.8518,-6.8518,-6.8518,-6.8518,-6.8518,-6.8518,-6.7999,-6.7465,-6.6685,-6.5993,-6.4698,-6.3836,-6.3604,-6.339,-6.3173,-6.2718,-6.2281,-6.196,-6.8906,-6.8982,-6.9626,-6.9891,-6.9891,-6.9929,-6.9929,-6.9929,-7.0138,-7.0401,-7.051,-7.0718,-7.087,-7.0966,-7.0912,-7.0837,-7.0609,-7.0535,-7.0327,-7.0175,-6.9834,-6.9397,-6.9076,-6.8924,-6.8678,-6.8129,-6.7769,-6.7617,-6.739,-6.6859,-6.6348,-6.6274,-6.5593,-6.4953,-6.4582,-6.3848,-6.3291,-6.286,-6.2749,-6.2766,-6.2512,-6.2331,-6.215,-6.2041,-6.2078,-6.2404,-6.2875,-6.3164,-6.3635,-6.4178,-6.3708,-6.3237,-6.2593,-6.2621,-6.2794,-6.3068,-6.3601,-6.3929,-6.4346,-6.4652,-6.4893,-6.4926,-6.4926,-6.4926,-6.4926,-6.4926,-6.4926,-6.4926,-6.4926,-6.4926,-6.4926,-6.4926,-6.4926,-6.4926,-6.4926,-6.4926,-6.4926,-6.4926,-6.4926,-6.4926,-6.4926,-6.4926,-6.4926,-6.5229,-6.5798,-6.6367,-6.6973,-6.7732,-6.8773,-6.9141,-6.8736,-6.89,-6.872,-6.8693,-6.8589,-6.8518,-6.8518,-6.8518,-6.8518,-6.8518,-6.8518,-6.8518,-6.8444,-6.8023,-6.7428,-6.6685,-6.5794,-6.4619,-6.3928,-6.3668,-6.3534,-6.3336,-6.3265,-6.2892,-6.2567,-6.8072,-6.8148,-6.8565,-6.8982,-6.9285,-6.9323,-6.9512,-6.9854,-6.9891,-6.9967,-7.0041,-7.0059,-7.0059,-7.0059,-6.9966,-6.9606,-6.9474,-6.936,-6.9057,-6.8887,-6.8868,-6.847,-6.8224,-6.8072,-6.7921,-6.7428,-6.6935,-6.6708,-6.6404,-6.595,-6.5515,-6.5461,-6.4614,-6.405,-6.3637,-6.3117,-6.2631,-6.237,-6.2132,-6.2033,-6.2005,-6.2041,-6.2041,-6.2041,-6.2114,-6.2367,-6.244,-6.2657,-6.2911,-6.3164,-6.2838,-6.2621,-6.2195,-6.2186,-6.2338,-6.2718,-6.3215,-6.3637,-6.4151,-6.4577,-6.4909,-6.4926,-6.4926,-6.4926,-6.4926,-6.4926,-6.4926,-6.4926,-6.4926,-6.4926,-6.4926,-6.4926,-6.4926,-6.4926,-6.4926,-6.4926,-6.4926,-6.4926,-6.4926,-6.4926,-6.4926,-6.4926,-6.4926,-6.4926,-6.5646,-6.6783,-6.7352,-6.8072,-6.9134,-6.9777,-6.946,-6.9209,-6.9019,-6.8817,-6.8693,-6.8626,-6.8518,-6.8518,-6.8518,-6.8518,-6.8518,-6.8518,-6.837,-6.8097,-6.7577,-6.6797,-6.5831,-6.4791,-6.4048,-6.3691,-6.3616,-6.3557,-6.3488,-6.3419,-6.3147,-6.7238,-6.7238,-6.739,-6.7807,-6.8375,-6.8451,-6.883,-6.9437,-6.955,-6.9512,-6.9418,-6.9455,-6.9588,-6.9702,-6.9664,-6.9096,-6.8679,-6.8489,-6.8034,-6.7731,-6.7617,-6.7466,-6.7352,-6.72,-6.7011,-6.667,-6.6215,-6.5684,-6.5229,-6.5078,-6.506,-6.4855,-6.4577,-6.4269,-6.3967,-6.3476,-6.2916,-6.2606,-6.236,-6.2105,-6.2033,-6.2041,-6.2041,-6.2041,-6.2041,-6.2041,-6.2014,-6.2014,-6.2014,-6.2087,-6.2223,-6.2123,-6.205,-6.2005,-6.2281,-6.267,-6.3141,-6.3615,-6.4151,-6.4615,-6.4817,-6.4926,-6.4926,-6.4926,-6.4926,-6.4926,-6.4926,-6.4926,-6.4926,-6.4926,-6.4926,-6.4926,-6.4926,-6.4926,-6.4926,-6.4926,-6.4926,-6.4926,-6.4926,-6.4926,-6.4926,-6.4926,-6.4926,-6.4926,-6.5684,-6.6859,-6.7769,-6.8603,-6.9285,-6.9626,-6.9679,-6.944,-6.9273,-6.91,-6.8855,-6.8693,-6.8602,-6.8518,-6.8518,-6.8518,-6.8518,-6.8518,-6.8444,-6.8333,-6.78,-6.6982,-6.6165,-6.5199,-6.4531,-6.3788,-6.3639,-6.3602,-6.3579,-6.3534,-6.3557,-6.6367,-6.6404,-6.7087,-6.7504,-6.7617,-6.7617,-6.7731,-6.7845,-6.7921,-6.7883,-6.7996,-6.7996,-6.8186,-6.883,-6.883,-6.8375,-6.7731,-6.7617,-6.7617,-6.7428,-6.7049,-6.6783,-6.6518,-6.6367,-6.5912,-6.5646,-6.5419,-6.5116,-6.4926,-6.4926,-6.4926,-6.4891,-6.4891,-6.4577,-6.4209,-6.3798,-6.3476,-6.306,-6.2657,-6.2386,-6.2087,-6.2033,-6.2005,-6.2041,-6.2041,-6.2041,-6.2041,-6.2041,-6.2041,-6.2041,-6.2041,-6.2041,-6.2033,-6.2087,-6.2386,-6.2794,-6.3257,-6.3761,-6.4289,-6.467,-6.4853,-6.4926,-6.4926,-6.4926,-6.4926,-6.4926,-6.4926,-6.4926,-6.4926,-6.4926,-6.4926,-6.4926,-6.4926,-6.4926,-6.4926,-6.4926,-6.4926,-6.4926,-6.4926,-6.4926,-6.4926,-6.4926,-6.4926,-6.5154,-6.5646,-6.667,-6.7352,-6.8262,-6.9512,-6.974,-6.9872,-6.9699,-6.9481,-6.9187,-6.8863,-6.8772,-6.867,-6.8602,-6.8518,-6.8518,-6.8518,-6.8518,-6.8444,-6.8407,-6.7887,-6.7094,-6.6253,-6.5496,-6.4642,-6.3936,-6.3713,-6.3602,-6.3602,-6.3602,-6.3602]},{"header":{"parameterUnit":"m.s-1","parameterCategory":1,"la1":31.0,"la2":29.5877,"lo1":-88.7671,"lo2":-86.6584,"dy":0.0162,"dx":0.0185,"nx":115,"ny":88,"refTime":"2024-05-10T06:00:00:Z","depth":0,"parameterNumber":3,"parameterNumberName":"V-component_of_WINDS"},"data":[0.0,0.0,0.0,0.0,0.0,0.0,0.0,0.0,0.0,0.0,0.0,0.0,0.0,0.0,0.0,0.0,0.0,0.0,0.0,0.0,0.0,0.0,0.0,0.0,0.0,0.0,0.0,0.0,0.0,0.0,0.0,0.0,0.0,0.0,0.0,0.0,0.0,0.0,0.0,0.0,0.0,0.0,0.0,0.0,0.0,0.0,0.0,0.0,0.0,0.0,0.0,0.0,0.0,0.0,0.0,0.0,0.0,0.0,0.0,0.0,0.0,0.0,0.0,0.0,0.0,0.0,0.0,0.0,0.0,0.0,0.0,0.0,0.0,0.0,0.0,0.0,0.0,0.0,0.0,0.0,0.0,0.0,0.0,0.0,0.0,0.0,0.0,0.0,0.0,0.0,0.0,0.0,0.0,0.0,0.0,0.0,0.0,0.0,0.0,0.0,0.0,0.0,0.0,0.0,0.0,0.0,0.0,0.0,0.0,0.0,0.0,0.0,0.0,0.0,0.0,0.0,0.0,0.0,0.0,0.0,0.0,0.0,0.0,0.0,0.0,0.0,0.0,0.0,0.0,0.0,0.0,0.0,0.0,0.0,0.0,0.0,0.0,0.0,0.0,0.0,0.0,0.0,0.0,0.0,0.0,0.0,0.0,0.0,0.0,0.0,0.0,0.0,0.0,0.0,0.0,0.0,0.0,0.0,0.0,0.0,0.0,0.0,0.0,0.0,0.0,0.0,0.0,0.0,0.0,0.0,0.0,0.0,0.0,0.0,0.0,0.0,0.0,0.0,0.0,0.0,0.0,0.0,0.0,0.0,0.0,0.0,0.0,0.0,0.0,0.0,0.0,0.0,0.0,0.0,0.0,0.0,0.0,0.0,0.0,0.0,0.0,0.0,0.0,0.0,0.0,0.0,0.0,0.0,0.0,0.0,0.0,0.0,0.0,0.0,0.0,0.0,0.0,0.0,0.0,0.0,0.0,0.0,0.0,0.0,0.0,0.0,0.0,0.0,0.0,0.0,0.0,0.0,0.0,0.0,0.0,0.0,0.0,0.0,0.0,0.0,0.0,0.0,0.0,0.0,0.0,0.0,0.0,0.0,0.0,0.0,0.0,0.0,0.0,0.0,0.0,0.0,0.0,0.0,0.0,0.0,0.0,0.0,0.0,0.0,0.0,0.0,0.0,0.0,0.0,0.0,0.0,0.0,0.0,0.0,0.0,0.0,0.0,0.0,0.0,0.0,0.0,0.0,0.0,0.0,0.0,0.0,0.0,0.0,0.0,0.0,0.0,0.0,0.0,0.0,0.0,0.0,0.0,0.0,0.0,0.0,0.0,0.0,0.0,0.0,0.0,0.0,0.0,0.0,0.0,0.0,0.0,0.0,0.0,0.0,0.0,0.0,0.0,0.0,0.0,0.0,0.0,0.0,0.0,0.0,0.0,0.0,0.0,0.0,0.0,0.0,0.0,0.0,0.0,0.0,0.0,0.0,0.0,0.0,0.0,0.0,0.0,0.0,0.0,0.0,0.0,0.0,0.0,0.0,0.0,0.0,0.0,0.0,0.0,0.0,0.0,0.0,0.0,0.0,0.0,0.0,0.0,0.0,0.0,0.0,0.0,0.0,0.0,0.0,0.0,0.0,0.0,0.0,0.0,0.0,0.0,0.0,0.0,0.0,0.0,0.0,0.0,0.0,0.0,0.0,0.0,0.0,0.0,0.0,0.0,0.0,0.0,0.0,0.0,0.0,0.0,0.0,0.0,0.0,0.0,0.0,0.0,0.0,0.0,0.0,0.0,0.0,0.0,0.0,0.0,0.0,0.0,0.0,0.0,0.0,0.0,0.0,0.0,0.0,0.0,0.0,0.0,0.0,0.0,0.0,0.0,0.0,0.0,0.0,0.0,0.0,0.0,0.0,0.0,0.0,0.0,0.0,0.0,0.0,0.0,0.0,0.0,0.0,0.0,0.0,0.0,0.0,0.0,0.0,0.0,0.0,0.0,0.0,0.0,0.0,0.0,0.0,0.0,0.0,0.0,0.0,0.0,0.0,0.0,0.0,0.0,0.0,0.0,0.0,0.0,0.0,0.0,0.0,0.0,0.0,0.0,0.0,0.0,0.0,0.0,0.0,0.0,0.0,0.0,0.0,0.0,0.0,0.0,0.0,0.0,0.0,0.0,0.0,0.0,0.0,0.0,0.0,0.0,0.0,0.0,0.0,0.0,0.0,0.0,0.0,0.0,0.0,0.0,0.0,0.0,0.0,0.0,0.0,0.0,0.0,0.0,0.0,0.0,0.0,0.0,0.0,0.0,0.0,0.0,0.0,0.0,0.0,0.0,0.0,0.0,0.0,0.0,0.0,0.0,0.0,0.0,0.0,0.0,0.0,0.0,0.0,0.0,0.0,0.0,0.0,0.0,0.0,0.0,0.0,0.0,0.0,0.0,0.0,0.0,0.0,0.0,0.0,0.0,0.0,0.0,0.0,0.0,0.0,0.0,0.0,0.0,0.0,0.0,0.0,0.0,0.0,0.0,0.0,0.0,0.0,0.0,0.0,0.0,0.0,0.0,0.0,0.0,0.0,0.0,0.0,0.0,0.0,0.0,0.0,0.0,0.0,0.0,0.0,0.0,0.0,0.0,0.0,0.0,0.0,0.0,0.0,0.0,0.0,0.0,0.0,0.0,0.0,0.0,0.0,0.0,0.0,0.0,0.0,0.0,0.0,0.0,0.0,0.0,0.0,0.0,0.0,0.0,0.0,0.0,0.0,0.0,0.0,0.0,0.0,0.0,0.0,0.0,0.0,0.0,0.0,0.0,0.0,0.0,0.0,0.0,0.0,0.0,0.0,0.0,0.0,0.0,0.0,0.0,0.0,0.0,0.0,0.0,0.0,0.0,0.0,0.0,0.0,0.0,0.0,0.0,0.0,0.0,0.0,0.0,0.0,0.0,0.0,0.0,0.0,0.0,0.0,0.0,0.0,0.0,0.0,0.0,0.0,0.0,0.0,0.0,0.0,0.0,0.0,0.0,0.0,0.0,0.0,0.0,0.0,0.0,0.0,0.0,0.0,0.0,0.0,0.0,0.0,0.0,0.0,0.0,0.0,0.0,0.0,0.0,0.0,0.0,0.0,0.0,0.0,0.0,0.0,0.0,0.0,0.0,0.0,0.0,0.0,0.0,0.0,0.0,0.0,0.0,0.0,0.0,0.0,0.0,0.0,0.0,0.0,0.0,0.0,0.0,0.0,0.0,0.0,0.0,0.0,0.0,0.0,0.0,0.0,0.0,0.0,0.0,0.0,0.0,0.0,0.0,0.0,0.0,0.0,0.0,0.0,0.0,0.0,0.0,0.0,0.0,0.0,0.0,0.0,0.0,0.0,0.0,0.0,0.0,0.0,0.0,0.0,0.0,0.0,0.0,0.0,0.0,0.0,0.0,0.0,0.0,0.0,0.0,0.0,0.0,0.0,0.0,0.0,0.0,0.0,0.0,0.0,0.0,0.0,0.0,0.0,0.0,0.0,0.0,0.0,0.0,0.0,0.0,0.0,0.0,0.0,0.0,0.0,0.0,0.0,0.0,0.0,0.0,0.0,0.0,0.0,0.0,0.0,0.0,0.0,0.0,0.0,0.0,0.0,0.0,0.0,0.0,0.0,0.0,0.0,0.0,0.0,0.0,0.0,0.0,0.0,0.0,0.0,0.0,0.0,0.0,0.0,0.0,0.0,0.0,0.0,0.0,0.0,0.0,0.0,0.0,0.0,0.0,0.0,0.0,0.0,0.0,0.0,0.0,0.0,0.0,0.0,0.0,0.0,0.0,0.0,0.0,0.0,0.0,0.0,0.0,0.0,0.0,0.0,0.0,0.0,0.0,0.0,0.0,0.0,0.0,0.0,0.0,0.0,0.0,0.0,0.0,0.0,0.0,0.0,0.0,0.0,0.0,0.0,0.0,0.0,0.0,0.0,0.0,0.0,0.0,0.0,0.0,0.0,0.0,0.0,0.0,0.0,0.0,0.0,0.0,0.0,0.0,0.0,0.0,0.0,0.0,0.0,0.0,0.0,0.0,0.0,0.0,0.0,0.0,0.0,0.0,0.0,0.0,0.0,0.0,0.0,0.0,0.0,0.0,0.0,0.0,0.0,0.0,0.0,0.0,0.0,0.0,0.0,0.0,0.0,0.0,0.0,0.0,0.0,0.0,0.0,0.0,0.0,0.0,0.0,0.0,0.0,0.0,0.0,0.0,0.0,0.0,0.0,0.0,0.0,0.0,0.0,0.0,0.0,2.0072,0.0,0.0,0.0,0.0,0.0,0.0,0.0,0.0,0.0,0.0,0.0,0.0,0.0,0.0,0.0,0.0,0.0,0.0,0.0,0.0,0.0,0.0,0.0,0.0,0.0,0.0,0.0,0.0,0.0,0.0,0.0,0.0,0.0,0.0,0.0,0.0,0.0,0.0,0.0,0.0,0.0,0.0,0.0,0.0,0.0,0.0,0.0,0.0,0.0,0.0,0.0,0.0,0.0,0.0,0.0,0.0,0.0,0.0,0.0,0.0,0.0,0.0,0.0,0.0,0.0,0.0,0.0,0.0,0.0,0.0,0.0,0.0,0.0,0.0,0.0,0.0,0.0,0.0,0.0,0.0,0.0,0.0,0.0,0.0,0.0,0.0,0.0,0.0,0.0,0.0,0.0,0.0,0.0,0.0,0.0,0.0,0.0,0.0,0.0,0.0,0.0,0.0,0.0,0.0,0.0,0.0,0.0,0.0,0.0,0.0,1.8997,1.8997,1.9241,1.9392,1.9392,0.0,0.0,0.0,0.0,0.0,0.0,0.0,0.0,0.0,0.0,0.0,0.0,0.0,0.0,0.0,0.0,0.0,0.0,0.0,0.0,0.0,0.0,0.0,0.0,0.0,0.0,0.0,0.0,0.0,0.0,0.0,0.0,0.0,0.0,0.0,0.0,0.0,0.0,0.0,0.0,0.0,0.0,0.0,0.0,0.0,0.0,0.0,0.0,0.0,0.0,0.0,0.0,0.0,0.0,0.0,0.0,0.0,0.0,0.0,0.0,0.0,0.0,0.0,0.0,0.0,0.0,0.0,0.0,0.0,0.0,0.0,0.0,0.0,0.0,0.0,0.0,0.0,0.0,0.0,0.0,0.0,0.0,0.0,0.0,0.0,0.0,0.0,0.0,0.0,0.0,0.0,0.0,0.0,0.0,0.0,0.0,0.0,0.0,0.0,0.0,0.0,0.0,0.0,0.0,0.0,0.0,0.0,0.0,0.0,0.0,0.0,0.0,1.8549,1.8769,1.8785,0.0,0.0,0.0,0.0,0.0,0.0,0.0,0.0,0.0,0.0,0.0,0.0,0.0,0.0,0.0,0.0,0.0,0.0,0.0,0.0,0.0,0.0,0.0,0.0,0.0,0.0,0.0,0.0,0.0,0.0,0.0,0.0,0.0,0.0,0.0,0.0,0.0,0.0,0.0,0.0,0.0,0.0,0.0,0.0,0.0,0.0,0.0,0.0,0.0,0.0,0.0,0.0,0.0,0.0,0.0,0.0,0.0,0.0,0.0,0.0,0.0,0.0,0.0,0.0,0.0,0.0,0.0,0.0,0.0,0.0,0.0,0.0,0.0,0.0,0.0,0.0,0.0,0.0,0.0,0.0,0.0,0.0,0.0,0.0,0.0,0.0,0.0,0.0,0.0,0.0,0.0,0.0,0.0,0.0,0.0,0.0,0.0,0.0,0.0,0.0,0.0,0.0,0.0,0.0,0.0,0.0,0.0,0.0,0.0,0.0,1.8491,1.8207,1.8446,0.0,1.8694,0.0,0.0,0.0,0.0,0.0,0.0,0.0,0.0,0.0,0.0,0.0,0.0,0.0,0.0,0.0,0.0,0.0,0.0,0.0,0.0,0.0,0.0,0.0,0.0,0.0,0.0,0.0,0.0,0.0,0.0,0.0,0.0,0.0,0.0,0.0,0.0,0.0,0.0,0.0,0.0,0.0,0.0,0.0,0.0,0.0,0.0,0.0,0.0,0.0,0.0,0.0,0.0,0.0,0.0,0.0,0.0,0.0,0.0,0.0,0.0,0.0,0.0,0.0,0.0,0.0,0.0,0.0,0.0,0.0,0.0,0.0,0.0,0.0,0.0,0.0,0.0,0.0,0.0,0.0,0.0,0.0,0.0,0.0,0.0,0.0,0.0,0.0,0.0,0.0,0.0,0.0,0.0,0.0,0.0,0.0,0.0,0.0,0.0,0.0,0.0,0.0,0.0,0.0,0.0,0.0,0.0,0.0,0.0,0.0,0.0,1.6819,1.6993,1.8056,1.8572,0.0,0.0,0.0,0.0,0.0,0.0,0.0,0.0,0.0,0.0,0.0,0.0,0.0,0.0,0.0,0.0,0.0,0.0,0.0,0.0,0.0,0.0,0.0,0.0,0.0,0.0,0.0,0.0,0.0,0.0,0.0,0.0,0.0,0.0,0.0,0.0,0.0,0.0,0.0,0.0,0.0,0.0,0.0,0.0,0.0,0.0,0.0,0.0,0.0,0.0,0.0,0.0,0.0,0.0,0.0,0.0,0.0,0.0,0.0,0.0,0.0,0.0,0.0,0.0,0.0,0.0,0.0,0.0,0.0,0.0,0.0,0.0,0.0,0.0,0.0,0.0,0.0,0.0,0.0,0.0,0.0,0.0,0.0,0.0,0.0,0.0,0.0,0.0,0.0,0.0,0.0,0.0,0.0,0.0,0.0,0.0,0.0,0.0,0.0,0.0,0.0,0.0,0.0,0.0,0.0,0.0,0.0,0.0,0.0,0.0,1.4698,1.5566,1.6266,1.7571,1.8289,1.8239,0.0,0.0,0.0,0.0,0.0,0.0,0.0,0.0,0.0,0.0,0.0,0.0,0.0,0.0,0.0,0.0,0.0,0.0,0.0,0.0,0.0,0.0,0.0,0.0,0.0,0.0,0.0,0.0,0.0,0.0,0.0,0.0,0.0,0.0,0.0,0.0,0.0,0.0,0.0,0.0,0.0,0.0,0.0,0.0,0.0,0.0,0.0,0.0,0.0,0.0,0.0,0.0,0.0,0.0,0.0,0.0,0.0,0.0,0.0,0.0,0.0,0.0,0.0,0.0,0.0,0.0,0.0,0.0,0.0,0.0,0.0,0.0,0.0,0.0,0.0,0.0,0.0,0.0,0.0,0.0,0.0,0.0,0.0,0.0,0.0,0.0,0.0,0.0,0.0,0.0,0.0,0.0,0.0,0.0,0.0,0.0,0.0,0.0,0.0,0.0,0.0,0.0,0.0,0.0,0.0,0.0,0.0,0.0,1.2751,1.4223,1.5403,1.6237,1.7081,1.7449,0.0,0.0,0.0,0.0,0.0,0.0,0.0,0.0,0.0,0.0,0.0,0.0,0.0,0.0,0.0,0.0,0.0,0.0,0.0,0.0,0.0,0.0,0.0,0.0,0.0,0.0,0.0,0.0,0.0,0.0,0.0,0.0,0.0,0.0,0.0,0.0,0.0,0.0,0.0,0.0,0.0,0.0,0.0,0.0,0.0,0.0,0.0,0.0,0.0,0.0,0.0,0.0,0.0,0.0,0.0,0.0,0.0,0.0,0.0,0.0,0.0,0.0,0.0,0.0,0.0,0.0,0.0,0.0,0.0,0.0,0.0,0.0,0.0,0.0,0.0,0.0,0.0,0.0,0.0,0.0,0.0,0.0,0.0,0.0,0.0,0.0,0.0,0.0,0.0,0.0,0.0,0.0,0.0,0.0,0.0,0.0,0.0,0.0,0.0,0.0,0.0,0.0,0.0,0.0,0.0,0.0,0.0,0.0,0.0,1.288,1.3911,1.482,1.5446,1.6299,1.7134,0.0,0.0,0.0,0.0,0.0,0.0,0.0,0.0,0.0,0.0,0.0,0.0,0.0,0.0,0.0,0.0,0.0,0.0,0.0,0.0,0.0,0.0,0.0,0.0,0.0,0.0,0.0,0.0,0.0,0.0,0.0,0.0,0.0,0.0,0.0,0.0,0.0,0.0,0.0,0.0,0.0,0.0,0.0,0.0,0.0,0.0,0.0,0.0,0.0,0.0,0.0,0.0,0.0,0.0,0.0,0.0,0.0,0.0,0.0,0.0,0.0,0.0,0.0,0.0,0.0,0.0,0.0,0.0,0.0,0.0,0.0,0.0,0.0,0.0,0.0,0.0,0.0,0.0,0.0,0.0,0.0,0.0,0.0,0.0,0.0,0.0,0.0,0.0,0.0,0.0,0.0,0.0,0.0,0.0,0.0,0.0,0.0,0.0,0.0,0.0,0.0,0.0,0.0,0.0,0.0,0.0,0.0,0.0,0.0,1.2836,0.0,1.39,1.445,1.5179,1.614,0.0,0.0,0.0,0.0,0.0,0.0,0.0,0.0,0.0,0.0,0.0,0.0,0.0,0.0,0.0,0.0,0.0,0.0,0.0,0.0,0.0,0.0,0.0,0.0,0.0,0.0,0.0,0.0,0.0,0.0,0.0,0.0,0.0,0.0,0.0,0.0,0.0,0.0,0.0,0.0,0.0,0.0,0.0,0.0,0.0,0.0,0.0,0.0,0.0,0.0,0.0,0.0,0.0,0.0,0.0,0.0,0.0,0.0,0.0,0.0,0.0,0.0,0.0,0.0,0.0,0.0,0.0,0.0,0.0,0.0,0.0,0.0,0.0,0.0,0.0,0.0,0.0,0.0,0.0,0.0,0.0,0.0,0.0,0.0,0.0,0.0,0.0,0.0,0.0,0.0,0.0,0.0,0.0,0.0,0.0,0.0,0.0,0.0,0.0,0.0,0.0,0.0,0.0,0.0,0.0,0.0,0.0,0.0,1.2446,1.2446,1.2436,1.2762,1.3315,1.3954,1.4493,0.0,0.0,0.0,0.0,0.0,0.0,0.0,0.0,0.0,0.0,0.0,0.0,0.0,0.0,0.0,0.0,0.0,0.0,0.0,0.0,0.0,0.0,0.0,0.0,0.0,0.0,0.0,0.0,0.0,0.0,0.0,0.0,0.0,0.0,0.0,0.0,0.0,0.0,0.0,0.0,0.0,0.0,0.0,0.0,0.0,0.0,0.0,0.0,0.0,0.0,0.0,0.0,0.0,0.0,0.0,0.0,0.0,0.0,0.0,0.0,0.0,0.0,0.0,0.0,0.0,0.0,0.0,0.0,0.0,0.0,0.0,0.0,0.0,0.0,0.0,0.0,0.0,0.0,0.0,0.0,0.0,0.0,0.0,0.0,0.0,0.0,0.0,0.0,0.0,0.0,0.0,0.0,0.0,0.0,0.0,0.0,0.0,0.0,0.0,0.0,0.0,0.0,0.0,0.0,0.0,0.0,0.0,0.0,0.0,1.2663,1.2521,1.2708,1.3261,1.3478,1.4331,0.0,0.0,0.0,0.0,0.0,0.0,0.0,0.0,0.0,0.0,0.0,0.0,0.0,0.0,0.0,0.0,0.0,0.0,0.0,0.0,0.0,0.0,0.0,0.0,0.0,0.0,0.0,0.0,0.0,0.0,0.0,0.0,0.0,0.0,0.0,0.0,0.0,0.0,0.0,0.0,0.0,0.0,0.0,0.0,0.0,0.0,0.0,0.0,0.0,0.0,0.0,0.0,0.0,0.0,0.0,0.0,0.0,0.0,0.0,0.0,0.0,0.0,0.0,0.0,0.0,0.0,0.0,0.0,0.0,0.0,0.0,0.0,0.0,0.0,0.0,0.0,0.0,0.0,0.0,0.0,0.0,0.0,0.0,0.0,0.0,0.0,0.0,0.0,0.0,0.0,0.0,0.0,0.0,0.0,0.0,0.0,0.0,0.0,0.0,0.0,0.0,0.0,0.0,0.0,0.0,0.0,0.0,0.0,0.0,1.2937,1.2748,1.2839,1.3236,1.3392,1.4025,1.5137,0.0,0.0,0.0,0.0,0.0,0.0,0.0,0.0,0.0,0.0,0.0,0.0,0.0,0.0,0.0,0.0,0.0,0.0,0.0,0.0,0.0,0.0,0.0,0.0,0.0,0.0,0.0,0.0,0.0,0.0,0.0,0.0,0.0,0.0,0.0,0.0,0.0,0.0,0.0,0.0,0.0,0.0,0.0,0.0,0.0,0.0,0.0,0.0,0.0,0.0,0.0,0.0,0.0,0.0,0.0,0.0,0.0,0.0,0.0,0.0,0.0,0.0,0.0,0.0,0.0,0.0,0.0,0.0,0.0,0.0,0.0,0.0,0.0,0.0,0.0,0.0,0.0,0.0,0.0,0.0,0.0,0.0,0.0,0.0,0.0,0.0,0.0,0.0,0.0,0.0,0.0,0.0,0.0,0.0,0.0,0.0,0.0,0.0,0.0,0.0,0.0,0.0,0.0,0.0,0.0,0.0,0.0,0.0,1.3136,1.3136,1.3184,1.3165,1.3603,1.3678,0.0,0.0,0.0,0.0,0.0,0.0,0.0,0.0,0.0,0.0,0.0,0.0,0.0,0.0,0.0,0.0,0.0,0.0,0.0,0.0,0.0,0.0,0.0,0.0,0.0,0.0,0.0,0.0,0.0,0.0,0.0,0.0,0.0,0.0,0.0,0.0,0.0,0.0,0.0,0.0,0.0,0.0,0.0,0.0,0.0,0.0,0.0,0.0,0.0,0.0,0.0,0.0,0.0,0.0,0.0,0.0,0.0,0.0,0.0,0.0,0.0,0.0,0.0,0.0,0.0,0.0,0.0,0.0,0.0,0.0,0.0,0.0,0.0,0.0,0.0,0.0,0.0,0.0,0.0,0.0,0.0,0.0,0.0,0.0,0.0,0.0,0.0,0.0,0.0,0.0,0.0,0.0,0.0,0.0,0.0,0.0,0.0,0.0,0.0,0.0,0.0,0.0,0.0,0.0,0.0,0.0,0.0,0.0,0.0,1.3967,1.3986,1.3844,1.3542,1.3557,1.3586,0.0,0.0,0.0,0.0,0.0,0.0,0.0,0.0,0.0,0.0,0.0,0.0,0.0,0.0,0.0,0.0,0.0,0.0,0.0,0.0,0.0,0.0,0.0,0.0,0.0,0.0,0.0,0.0,0.0,0.0,0.0,0.0,0.0,0.0,0.0,0.0,0.0,0.0,0.0,0.0,0.0,0.0,0.0,0.0,0.0,0.0,0.0,0.0,0.0,0.0,0.0,0.0,0.0,0.0,0.0,0.0,0.0,0.0,0.0,0.0,0.0,0.0,0.0,0.0,0.0,0.0,0.0,0.0,0.0,0.0,0.0,0.0,0.0,0.0,0.0,0.0,0.0,0.0,0.0,0.0,0.0,0.0,0.0,0.0,0.0,0.0,0.0,0.0,0.0,0.0,0.0,0.0,0.0,0.0,0.0,0.0,0.0,0.0,0.0,0.0,0.0,0.0,0.0,0.0,0.0,0.0,0.0,0.0,1.391,1.4185,1.4525,1.4581,1.4345,1.3892,1.3681,0.0,0.0,0.0,0.0,0.0,0.0,0.0,0.0,0.0,0.0,0.0,0.0,0.0,0.0,0.0,0.0,0.0,0.0,0.0,0.0,0.0,0.0,0.0,0.0,0.0,0.0,0.0,0.0,0.0,0.0,0.0,0.0,0.0,0.0,0.0,0.0,0.0,0.0,0.0,0.0,0.0,0.0,0.0,0.0,0.0,0.0,0.0,0.0,0.0,0.0,0.0,0.0,0.0,0.0,0.0,0.0,0.0,0.0,0.0,0.0,0.0,0.0,0.0,0.0,0.0,0.0,0.0,0.0,0.0,0.0,0.0,0.0,0.0,0.0,0.0,0.0,0.0,0.0,0.0,0.0,0.0,0.0,0.0,0.0,0.0,0.0,0.0,0.0,0.0,0.0,0.0,0.0,0.0,0.0,0.0,0.0,0.0,0.0,0.0,0.0,0.0,0.0,0.0,0.0,0.0,0.0,0.0,0.0,1.427,1.4118,1.4865,1.5262,1.5243,1.4496,1.3892,0.0,0.0,0.0,0.0,0.0,0.0,0.0,0.0,0.0,0.0,0.0,0.0,0.0,0.0,0.0,0.0,0.0,0.0,0.0,0.0,0.0,0.0,0.0,0.0,0.0,0.0,0.0,0.0,0.0,0.0,0.0,0.0,0.0,0.0,0.0,0.0,0.0,0.0,0.0,0.0,0.0,0.0,0.0,0.0,0.0,0.0,0.0,0.0,0.0,0.0,0.0,0.0,0.0,0.0,0.0,0.0,0.0,0.0,0.0,0.0,0.0,0.0,0.0,0.0,0.0,0.0,0.0,0.0,0.0,0.0,0.0,0.0,0.0,0.0,0.0,0.0,0.0,0.0,0.0,0.0,0.0,0.0,0.0,0.0,0.0,0.0,0.0,0.0,0.0,0.0,0.0,0.0,0.0,0.0,0.0,0.0,0.0,0.0,0.0,0.0,0.0,0.0,0.0,0.0,0.0,0.0,0.0,0.0,1.4619,1.4678,1.5233,1.5489,1.5489,1.4846,1.4383,0.0,0.0,0.0,0.0,0.0,0.0,0.0,0.0,0.0,0.0,0.0,0.0,0.0,0.0,0.0,0.0,0.0,0.0,0.0,0.0,0.0,0.0,0.0,0.0,0.0,0.0,0.0,0.0,0.0,0.0,0.0,0.0,0.0,0.0,0.0,0.0,0.0,0.0,0.0,0.0,0.0,0.0,0.0,0.0,0.0,0.0,0.0,0.0,2.1655,0.0,0.0,0.0,0.0,0.0,0.0,0.0,0.0,0.0,0.0,0.0,0.0,0.0,0.0,0.0,0.0,0.0,0.0,0.0,0.0,0.0,0.0,0.0,0.0,0.0,0.0,0.0,0.0,0.0,0.0,0.0,0.0,0.0,0.0,0.0,0.0,0.0,0.0,0.0,0.0,0.0,0.0,0.0,0.0,0.0,0.0,0.0,0.0,0.0,0.0,0.0,0.0,0.0,0.0,0.0,0.0,0.0,0.0,0.0,1.477,1.5007,1.5479,1.5775,1.5756,1.529,1.4874,0.0,0.0,0.0,0.0,0.0,0.0,0.0,0.0,0.0,0.0,0.0,0.0,0.0,0.0,0.0,0.0,0.0,0.0,0.0,0.0,0.0,0.0,0.0,0.0,0.0,0.0,0.0,0.0,0.0,0.0,0.0,0.0,0.0,0.0,0.0,0.0,0.0,0.0,0.0,0.0,0.0,0.0,0.0,0.0,0.0,0.0,0.0,0.0,0.0,0.0,0.0,0.0,0.0,0.0,0.0,0.0,0.0,0.0,0.0,0.0,0.0,0.0,0.0,0.0,0.0,0.0,0.0,0.0,0.0,0.0,0.0,0.0,0.0,0.0,0.0,0.0,0.0,0.0,0.0,0.0,0.0,0.0,0.0,0.0,0.0,0.0,0.0,0.0,0.0,0.0,0.0,0.0,0.0,0.0,0.0,0.0,0.0,0.0,0.0,0.0,0.0,0.0,0.0,0.0,0.0,0.0,0.0,1.4418,1.4922,1.5319,1.5706,1.5904,1.5974,1.5784,1.5328,1.4687,0.0,0.0,0.0,0.0,0.0,0.0,0.0,0.0,0.0,0.0,0.0,0.0,0.0,0.0,0.0,0.0,0.0,0.0,0.0,0.0,0.0,0.0,0.0,0.0,0.0,0.0,0.0,0.0,0.0,0.0,0.0,0.0,0.0,0.0,0.0,0.0,0.0,0.0,2.0525,2.0525,0.0,0.0,0.0,0.0,0.0,0.0,0.0,0.0,2.1579,0.0,0.0,0.0,0.0,0.0,0.0,0.0,0.0,0.0,0.0,0.0,0.0,0.0,0.0,0.0,0.0,0.0,0.0,0.0,0.0,0.0,0.0,0.0,0.0,0.0,0.0,0.0,0.0,0.0,0.0,0.0,0.0,0.0,0.0,0.0,0.0,0.0,0.0,0.0,0.0,0.0,0.0,0.0,0.0,0.0,0.0,0.0,0.0,0.0,0.0,0.0,0.0,0.0,0.0,0.0,0.0,1.4697,1.4969,1.5337,1.5753,1.5999,1.6131,1.6122,1.5993,1.5602,1.5148,0.0,0.0,0.0,0.0,0.0,0.0,0.0,0.0,0.0,0.0,0.0,0.0,0.0,0.0,0.0,0.0,0.0,0.0,0.0,0.0,0.0,0.0,0.0,0.0,0.0,0.0,0.0,0.0,0.0,0.0,0.0,0.0,0.0,0.0,0.0,0.0,0.0,0.0,0.0,2.0219,2.0435,0.0,0.0,0.0,0.0,0.0,0.0,0.0,0.0,2.2442,0.0,0.0,0.0,0.0,0.0,0.0,0.0,0.0,0.0,0.0,0.0,0.0,0.0,0.0,0.0,0.0,0.0,0.0,0.0,0.0,0.0,0.0,0.0,0.0,0.0,0.0,0.0,0.0,0.0,0.0,0.0,0.0,0.0,0.0,0.0,0.0,0.0,0.0,0.0,0.0,0.0,0.0,0.0,0.0,0.0,0.0,0.0,0.0,0.0,0.0,0.0,0.0,0.0,0.0,0.0,1.4545,1.5099,1.5602,1.6018,1.6122,1.6188,1.6178,1.5971,1.5659,0.0,0.0,0.0,0.0,0.0,0.0,0.0,0.0,0.0,0.0,0.0,0.0,0.0,0.0,0.0,0.0,0.0,0.0,0.0,0.0,0.0,0.0,0.0,0.0,0.0,0.0,0.0,0.0,0.0,0.0,0.0,0.0,0.0,0.0,0.0,0.0,0.0,0.0,0.0,0.0,2.0073,2.0044,2.0408,0.0,0.0,0.0,0.0,0.0,0.0,2.1797,2.1994,0.0,0.0,0.0,0.0,0.0,0.0,0.0,0.0,0.0,0.0,0.0,0.0,0.0,0.0,0.0,0.0,0.0,0.0,0.0,0.0,0.0,0.0,0.0,0.0,0.0,0.0,0.0,0.0,0.0,0.0,0.0,0.0,0.0,0.0,0.0,0.0,0.0,0.0,0.0,0.0,0.0,0.0,0.0,0.0,0.0,0.0,0.0,0.0,0.0,0.0,0.0,0.0,0.0,0.0,0.0,1.4361,1.5245,1.587,1.6169,1.6188,1.6188,1.6178,1.5933,1.564,0.0,0.0,0.0,0.0,0.0,0.0,0.0,0.0,0.0,0.0,0.0,0.0,0.0,0.0,0.0,0.0,0.0,0.0,0.0,0.0,0.0,0.0,0.0,0.0,0.0,0.0,0.0,0.0,0.0,0.0,0.0,0.0,0.0,0.0,0.0,0.0,0.0,0.0,0.0,0.0,0.0,1.9641,2.0476,2.0617,0.0,0.0,0.0,0.0,2.1524,2.1331,0.0,0.0,0.0,0.0,0.0,0.0,0.0,0.0,0.0,0.0,0.0,0.0,0.0,0.0,0.0,0.0,0.0,0.0,0.0,0.0,0.0,0.0,0.0,0.0,0.0,0.0,0.0,0.0,0.0,0.0,0.0,0.0,0.0,0.0,0.0,0.0,0.0,0.0,0.0,0.0,0.0,0.0,0.0,0.0,0.0,0.0,0.0,0.0,0.0,0.0,0.0,0.0,0.0,0.0,0.0,0.0,1.4896,1.5509,1.5942,1.6169,1.6188,1.6188,1.6178,1.58,1.5642,0.0,0.0,0.0,0.0,0.0,0.0,0.0,0.0,0.0,0.0,0.0,0.0,0.0,0.0,0.0,0.0,0.0,0.0,0.0,0.0,0.0,0.0,0.0,0.0,0.0,0.0,0.0,0.0,0.0,0.0,0.0,0.0,0.0,0.0,0.0,0.0,0.0,0.0,0.0,0.0,0.0,1.9116,1.868,1.9794,2.0055,0.0,0.0,2.0763,2.016,2.159,0.0,0.0,0.0,0.0,0.0,0.0,0.0,0.0,0.0,0.0,0.0,0.0,0.0,0.0,0.0,0.0,0.0,0.0,0.0,0.0,0.0,0.0,0.0,0.0,0.0,0.0,0.0,0.0,0.0,0.0,0.0,0.0,0.0,0.0,0.0,0.0,0.0,0.0,0.0,0.0,0.0,0.0,0.0,0.0,0.0,0.0,0.0,0.0,0.0,0.0,0.0,0.0,0.0,0.0,0.0,1.4499,1.4395,1.5241,1.5802,1.5895,1.5935,1.6087,1.6188,1.5886,1.5678,0.0,0.0,0.0,0.0,0.0,0.0,0.0,0.0,0.0,0.0,0.0,0.0,0.0,0.0,0.0,0.0,0.0,0.0,0.0,0.0,0.0,0.0,0.0,0.0,0.0,0.0,0.0,0.0,0.0,0.0,0.0,0.0,0.0,0.0,0.0,0.0,0.0,0.0,0.0,0.0,0.0,0.0,1.8337,1.8861,0.0,0.0,0.0,1.9555,1.9507,0.0,0.0,0.0,0.0,0.0,0.0,0.0,0.0,0.0,0.0,0.0,0.0,0.0,0.0,0.0,0.0,0.0,0.0,0.0,0.0,0.0,0.0,0.0,0.0,0.0,0.0,0.0,0.0,0.0,0.0,0.0,0.0,0.0,0.0,0.0,0.0,0.0,0.0,0.0,0.0,0.0,0.0,0.0,0.0,0.0,0.0,0.0,0.0,0.0,0.0,0.0,0.0,0.0,0.0,0.0,0.0,0.0,1.4268,1.515,1.5703,1.5758,1.5985,1.6139,1.6196,1.6122,0.0,0.0,0.0,0.0,0.0,0.0,0.0,0.0,0.0,0.0,0.0,0.0,0.0,0.0,0.0,0.0,0.0,0.0,0.0,0.0,0.0,0.0,0.0,0.0,0.0,0.0,0.0,1.7088,0.0,0.0,0.0,0.0,0.0,0.0,0.0,0.0,0.0,0.0,0.0,0.0,0.0,0.0,1.83,1.83,1.83,1.8312,0.0,0.0,1.8484,1.9063,1.9766,2.0266,0.0,0.0,0.0,0.0,0.0,0.0,0.0,0.0,0.0,0.0,0.0,0.0,0.0,0.0,0.0,0.0,0.0,0.0,0.0,0.0,0.0,0.0,0.0,0.0,0.0,0.0,0.0,0.0,0.0,0.0,0.0,0.0,0.0,0.0,0.0,0.0,0.0,0.0,0.0,0.0,0.0,0.0,0.0,0.0,0.0,0.0,0.0,0.0,0.0,0.0,0.0,0.0,0.0,0.0,0.0,1.4991,1.557,1.5985,1.6159,1.6554,1.6554,1.6241,1.633,1.6245,0.0,0.0,0.0,0.0,0.0,0.0,0.0,0.0,0.0,0.0,0.0,0.0,0.0,0.0,0.0,0.0,0.0,0.0,0.0,0.0,0.0,0.0,0.0,0.0,0.0,0.0,0.0,0.0,0.0,0.0,0.0,0.0,0.0,0.0,0.0,0.0,0.0,0.0,0.0,0.0,0.0,1.83,1.83,1.83,1.8384,0.0,0.0,1.8372,1.8714,1.9789,2.0354,1.9842,0.0,0.0,0.0,0.0,0.0,0.0,0.0,0.0,0.0,0.0,0.0,0.0,0.0,0.0,0.0,0.0,0.0,0.0,0.0,0.0,0.0,0.0,0.0,0.0,0.0,0.0,0.0,0.0,0.0,0.0,0.0,0.0,0.0,0.0,0.0,0.0,0.0,0.0,0.0,0.0,0.0,0.0,0.0,0.0,0.0,0.0,0.0,0.0,0.0,0.0,0.0,0.0,0.0,1.4534,1.4395,1.5496,1.5985,1.5845,1.6332,1.6638,1.6582,1.6653,1.6424,0.0,0.0,0.0,0.0,0.0,0.0,0.0,0.0,0.0,0.0,0.0,0.0,0.0,0.0,0.0,0.0,0.0,0.0,0.0,0.0,0.0,0.0,0.0,0.0,0.0,0.0,0.0,0.0,1.807,1.807,1.7889,0.0,0.0,0.0,0.0,0.0,0.0,0.0,0.0,0.0,0.0,1.8348,1.8517,1.8529,0.0,0.0,1.8601,1.8517,1.8456,1.8975,1.9262,1.8653,1.8626,0.0,0.0,0.0,0.0,0.0,0.0,0.0,0.0,0.0,0.0,0.0,0.0,0.0,0.0,0.0,0.0,0.0,0.0,0.0,0.0,0.0,0.0,0.0,0.0,0.0,0.0,0.0,0.0,0.0,0.0,0.0,0.0,0.0,0.0,0.0,0.0,0.0,0.0,0.0,0.0,0.0,0.0,0.0,0.0,0.0,0.0,0.0,0.0,0.0,0.0,0.0,0.0,1.4597,1.4283,1.5389,1.5878,1.5799,1.6307,1.6683,1.6768,1.6917,1.6727,0.0,0.0,0.0,0.0,0.0,0.0,0.0,0.0,0.0,0.0,0.0,0.0,0.0,0.0,0.0,0.0,0.0,0.0,0.0,0.0,0.0,0.0,0.0,0.0,0.0,0.0,0.0,0.0,1.7997,1.8094,1.7889,0.0,0.0,0.0,0.0,0.0,0.0,0.0,0.0,0.0,0.0,1.8444,1.8553,1.8565,1.8565,1.8565,1.8493,1.8408,1.8312,1.8444,1.8444,1.8058,0.0,0.0,0.0,0.0,0.0,0.0,0.0,0.0,0.0,0.0,0.0,0.0,0.0,0.0,0.0,0.0,0.0,0.0,0.0,0.0,0.0,0.0,0.0,0.0,0.0,0.0,0.0,0.0,0.0,0.0,1.1784,0.0,0.0,0.0,0.0,0.0,0.0,0.0,0.0,0.0,0.0,0.0,0.0,0.0,0.0,0.0,0.0,0.0,0.0,0.0,0.0,0.0,0.0,1.4291,1.5089,1.5276,1.5606,1.6177,1.6568,1.6788,1.6779,1.7178,1.7209,1.6783,0.0,0.0,0.0,0.0,0.0,0.0,0.0,0.0,0.0,0.0,0.0,0.0,0.0,0.0,0.0,0.0,0.0,0.0,0.0,0.0,0.0,0.0,0.0,0.0,0.0,0.0,1.6547,1.7375,1.7877,0.0,0.0,0.0,0.0,0.0,0.0,0.0,0.0,0.0,0.0,1.8336,1.8577,1.8336,1.83,1.8312,1.8312,1.8082,1.7998,1.8251,1.83,1.83,0.0,0.0,0.0,0.0,0.0,0.0,0.0,0.0,0.0,0.0,0.0,0.0,0.0,0.0,0.0,0.0,0.0,0.0,0.0,0.0,0.0,0.0,0.0,0.0,0.0,0.0,0.0,1.2359,1.2359,0.0,0.0,0.0,0.0,0.0,0.0,0.0,0.0,0.0,0.0,0.0,1.2921,1.331,0.0,0.0,0.0,0.0,0.0,0.0,0.0,0.0,0.0,0.0,0.0,0.0,1.4685,1.4662,1.5488,1.5828,1.5812,1.6203,1.651,1.6806,1.6959,1.6926,1.6812,0.0,0.0,0.0,0.0,0.0,0.0,0.0,0.0,0.0,0.0,0.0,0.0,0.0,0.0,0.0,0.0,0.0,0.0,0.0,0.0,0.0,0.0,0.0,0.0,0.0,1.555,0.0,0.0,0.0,0.0,0.0,0.0,0.0,0.0,0.0,0.0,0.0,1.7937,1.8131,1.8155,1.8179,1.8275,1.83,1.836,0.0,0.0,0.0,0.0,0.0,0.0,0.0,0.0,0.0,0.0,0.0,0.0,0.0,0.0,2.2038,2.3116,2.3026,2.2889,2.3166,0.0,0.0,0.0,0.0,0.0,0.0,0.0,0.0,0.0,0.0,0.0,0.0,0.0,0.0,1.2621,0.0,1.2629,0.0,0.0,0.0,0.0,0.0,0.0,0.0,0.0,1.3361,1.3442,1.3287,1.3615,1.3706,0.0,1.3498,1.3376,0.0,0.0,0.0,0.0,0.0,0.0,0.0,0.0,1.4703,1.4367,1.5287,1.5744,1.5582,1.582,1.6203,1.6586,1.673,1.6763,1.6796,1.6334,1.6018,0.0,0.0,0.0,0.0,0.0,0.0,0.0,0.0,0.0,0.0,0.0,0.0,0.0,0.0,0.0,0.0,0.0,0.0,0.0,0.0,0.0,0.0,0.0,1.537,0.0,0.0,0.0,0.0,0.0,0.0,0.0,0.0,0.0,1.7937,1.7962,1.8082,1.8263,1.8215,1.8155,1.8143,0.0,0.0,0.0,0.0,0.0,0.0,0.0,1.7986,1.7913,1.8058,1.8203,1.8275,1.9147,1.9785,1.9742,0.0,0.0,2.2481,2.266,2.2751,2.3033,2.3626,2.3996,2.37,2.3878,2.4114,0.0,0.0,0.0,0.0,0.0,0.0,0.0,0.0,1.2807,1.2775,0.0,1.28,0.0,0.0,0.0,0.0,0.0,1.3197,0.0,0.0,1.3717,1.3815,1.3598,1.3669,1.3758,1.3904,1.3758,1.3766,1.3904,1.3758,0.0,0.0,0.0,0.0,0.0,0.0,1.4351,1.4229,1.4784,1.5198,1.559,1.559,1.582,1.6203,1.6577,1.6797,1.6779,1.6591,1.6481,1.6462,1.5697,0.0,0.0,0.0,0.0,0.0,0.0,0.0,0.0,0.0,0.0,0.0,0.0,0.0,0.0,0.0,0.0,0.0,0.0,0.0,0.0,1.4627,0.0,0.0,0.0,0.0,0.0,0.0,0.0,0.0,0.0,0.0,1.7925,1.8118,1.8287,1.8275,0.0,0.0,0.0,0.0,1.8106,1.7624,1.7539,1.7563,1.7575,1.7998,1.8408,1.865,0.0,0.0,1.912,1.9638,2.0022,1.9785,2.0671,2.1402,2.1064,2.1853,2.2318,2.1537,2.2752,2.3613,2.296,2.3438,2.4075,1.2014,0.0,0.0,0.0,0.0,1.2728,1.3246,1.3348,1.3348,1.3316,1.3336,1.3392,0.0,0.0,0.0,0.0,0.0,0.0,1.3441,1.3579,1.3798,1.3945,1.4026,1.4148,1.4156,1.4278,1.4229,1.4302,1.4464,1.4432,1.4229,1.3904,0.0,0.0,0.0,0.0,1.4351,1.4554,1.483,1.5045,1.5198,1.5198,1.5352,1.5735,1.6127,1.6501,1.6806,1.6434,1.6341,1.6481,1.5971,0.0,0.0,0.0,0.0,0.0,0.0,0.0,0.0,0.0,0.0,0.0,0.0,0.0,0.0,0.0,0.0,0.0,0.0,0.0,1.4014,1.4323,1.4735,0.0,0.0,0.0,0.0,0.0,0.0,0.0,0.0,0.0,1.842,1.8179,1.7998,0.0,0.0,1.7768,1.7612,1.7986,1.8312,1.8336,0.0,0.0,0.0,1.8867,1.8879,1.8951,1.9241,1.9446,1.9362,1.9719,1.9899,1.9878,2.0135,2.0356,2.032,2.1312,2.2052,2.1962,2.2334,2.2581,2.241,2.3074,2.3749,1.3122,1.2145,1.202,1.2064,1.2212,1.3128,1.3579,1.3742,1.375,1.3709,1.3582,1.3717,1.3612,1.3376,1.3449,0.0,0.0,0.0,1.3782,1.3889,1.4066,1.4172,1.4286,1.4383,1.4473,1.4538,1.4538,1.4635,1.4806,1.4741,1.4546,1.4229,0.0,0.0,1.418,1.4318,1.4456,1.4603,1.4846,1.5045,1.5045,1.5045,1.5122,1.5352,1.5744,1.605,1.6271,1.6274,1.6223,1.6386,1.6061,1.5744,0.0,0.0,0.0,0.0,0.0,0.0,0.0,0.0,0.0,0.0,0.0,1.3958,1.3825,0.0,0.0,0.0,1.4128,1.4251,1.4498,1.4537,0.0,0.0,0.0,0.0,0.0,0.0,0.0,1.8118,1.8396,1.8662,1.8807,1.8553,1.8384,1.8493,1.8434,1.8227,1.8131,0.0,1.8782,1.8831,1.8976,1.9132,1.9354,1.9362,1.947,1.9742,1.9833,1.9893,1.9808,1.9929,2.0002,1.9917,1.9881,1.9881,1.9881,2.0653,2.1392,2.1764,2.2148,2.2376,2.2251,2.2729,2.3204,1.3928,1.3912,1.3595,1.3547,1.3685,1.3615,1.379,1.3937,1.3945,1.3855,1.3647,1.3872,1.3766,1.3465,1.3628,0.0,1.4196,1.4196,1.4278,1.4432,1.4448,1.4456,1.4448,1.4464,1.4562,1.4732,1.4724,1.4814,1.4952,1.4806,1.4724,1.4708,1.4708,1.4538,1.4237,1.4505,1.4594,1.4456,1.4781,1.5028,1.4968,1.5045,1.5045,1.5045,1.5352,1.5582,1.5582,1.5966,1.6131,1.6186,1.5994,1.5946,1.5917,0.0,0.0,0.0,0.0,0.0,0.0,0.0,0.0,0.0,0.0,0.0,0.0,0.0,0.0,0.0,1.4317,0.0,1.5222,1.5175,0.0,0.0,0.0,1.7177,1.7771,1.8333,1.8794,1.9012,0.0,0.0,1.9136,0.0,1.9181,1.9524,1.9446,1.9314,1.9072,1.9229,1.935,1.9096,1.9108,1.9145,1.9229,1.9591,2.005,2.0484,2.0665,2.0545,2.034,2.0303,2.0207,2.0026,1.9953,1.9965,1.9953,2.0087,2.0209,2.1196,2.1991,2.2525,2.2277,2.2337,2.2524,1.4188,1.4302,1.4213,1.4131,1.405,1.405,1.4148,1.4302,1.431,1.4286,1.4245,1.4286,1.4253,1.418,1.4229,1.4286,1.4367,1.4367,1.4391,1.444,1.4578,1.4643,1.4651,1.4773,1.4862,1.4903,1.4903,1.4927,1.496,1.4927,1.4838,1.4716,1.4708,1.4594,1.4375,1.4326,1.4416,1.4643,1.4724,1.4838,1.5037,1.5045,1.5045,1.5045,1.5122,1.5275,1.5582,1.5685,1.5919,1.6195,1.6134,1.6027,1.5867,1.5621,0.0,0.0,0.0,0.0,0.0,0.0,0.0,0.0,0.0,1.3939,1.3778,0.0,1.4033,0.0,1.4374,1.4683,1.4955,1.5515,0.0,0.0,1.7423,1.807,1.8721,1.8912,1.8927,1.8794,1.8782,1.8855,1.9048,1.9136,1.9253,1.97,1.9253,1.8855,1.8794,1.9,1.9145,1.9132,1.9422,1.9688,1.97,1.9965,2.0291,2.0617,2.0665,2.0641,2.0581,2.0638,2.0557,2.0496,2.0484,2.0484,2.0472,2.0484,2.0541,2.0791,2.0767,2.0655,2.0844,2.1477,2.2105,1.4343,1.4432,1.4432,1.4424,1.4408,1.4326,1.4343,1.4432,1.4432,1.4432,1.4432,1.4432,1.4481,1.4554,1.4554,1.4594,1.4667,1.4667,1.4667,1.4676,1.4773,1.4822,1.483,1.4919,1.5045,1.5045,1.5045,1.5045,1.5045,1.5045,1.4919,1.483,1.4822,1.4732,1.4554,1.4383,1.4432,1.47,1.4708,1.4789,1.5037,1.5045,1.4927,1.4854,1.4846,1.489,1.5035,1.5129,1.5223,1.5424,1.5486,1.5431,1.5518,1.5332,1.5231,0.0,0.0,0.0,0.0,0.0,0.0,0.0,0.0,0.0,0.0,0.0,1.4264,1.4411,1.4649,1.4847,1.4866,1.5495,1.6067,1.6537,1.7365,1.8093,1.87,1.9047,1.9241,1.9217,1.9217,1.9277,1.941,1.9434,1.9543,1.9845,1.9398,1.9072,1.9205,1.935,1.9434,1.9458,1.97,1.9881,1.9881,2.011,2.0327,2.0472,2.0593,2.0665,2.0665,2.0665,2.0665,2.0665,2.0665,2.0665,2.0665,2.0665,2.0665,2.0629,2.0436,2.0275,2.0356,2.0789,2.1286,1.4481,1.4497,1.4497,1.4594,1.4724,1.4594,1.4521,1.4497,1.4497,1.4497,1.4497,1.4497,1.4603,1.4773,1.4773,1.4871,1.5033,1.5033,1.5041,1.5033,1.5041,1.5041,1.5033,1.5041,1.5033,1.5033,1.5041,1.5041,1.5033,1.5033,1.5025,1.5,1.5,1.4911,1.4741,1.4562,1.4538,1.4667,1.4692,1.4781,1.5004,1.4911,1.483,1.4684,1.4676,1.4594,1.4432,1.4452,1.4474,1.4608,1.4527,1.4737,1.5105,1.4922,1.4965,0.0,1.512,0.0,0.0,0.0,0.0,0.0,0.0,0.0,0.0,1.4612,1.4687,1.495,1.513,1.5167,1.5026,1.543,1.5853,1.609,1.7108,1.7923,1.8399,1.909,1.9555,1.9808,1.9808,1.9784,1.9748,1.9784,1.9772,1.9736,1.9579,1.956,1.9736,1.9736,1.9712,1.982,1.9869,1.9893,1.9965,2.0134,2.0291,2.0352,2.0521,2.0665,2.0665,2.0665,2.0665,2.0665,2.0665,2.0665,2.0665,2.0665,2.0665,2.0665,2.0641,2.0626,2.0525,2.0532,2.0447,1.4732,1.4862,1.4862,1.4887,1.4927,1.5033,1.5,1.4862,1.4862,1.4862,1.4862,1.4871,1.496,1.5061,1.5139,1.5244,1.5407,1.5415,1.5415,1.5415,1.5415,1.5407,1.5415,1.5407,1.5415,1.5407,1.5415,1.5415,1.5415,1.5415,1.5333,1.5195,1.5187,1.5098,1.4919,0.0,0.0,0.0,1.4635,1.4724,1.4749,1.4611,1.4521,1.4489,1.4481,0.0,1.4424,1.4452,1.4625,1.4893,1.4882,0.0,0.0,0.0,0.0,0.0,0.0,0.0,0.0,0.0,0.0,0.0,1.4912,1.4789,1.4865,1.4874,1.4959,1.5158,1.5148,1.529,1.5499,1.6077,1.6536,1.6644,1.7751,1.8627,1.8774,1.9196,1.9495,1.9531,1.9362,1.9241,1.9265,1.9229,1.9241,1.9366,1.9374,1.9548,1.9543,1.941,1.9326,1.9507,1.9748,1.9965,2.0171,2.0243,2.0352,2.0533,2.0686,2.0665,2.0665,2.0665,2.0665,2.0665,2.0665,2.0665,2.0665,2.0665,2.0665,2.0665,2.0665,2.0792,2.1007,2.0995,2.1189,1.5074,0.0,1.5236,1.5236,0.0,1.5333,1.5325,1.5236,1.5236,1.5236,1.5236,1.5236,1.5293,1.5374,1.5374,1.5431,1.5512,1.5512,1.5512,1.5512,1.5512,1.5512,1.5512,1.5512,1.5512,1.5512,1.5512,1.5512,1.5512,1.5512,1.5463,1.5374,1.5374,1.5333,1.5236,1.5057,1.4838,1.457,1.4659,1.4749,1.483,1.4749,1.4659,1.457,0.0,0.0,0.0,0.0,0.0,0.0,0.0,0.0,0.0,0.0,0.0,1.5848,1.5737,1.5564,1.5564,1.5545,1.5536,1.5545,1.5545,1.546,1.5262,1.5432,1.5593,1.5687,1.5611,1.5593,1.5756,1.5866,1.5932,1.6,1.71,1.7895,1.8016,1.8711,1.9277,1.9265,1.9157,1.912,1.9253,1.9265,1.9326,1.9458,1.9579,1.9676,1.9664,1.9567,1.9543,1.9652,1.9784,1.9929,2.0062,2.0219,2.0315,2.0448,2.0581,2.0653,2.0665,2.0665,2.0665,2.0665,2.0665,2.0665,2.0665,2.0665,2.0665,2.0665,2.0665,2.0735,2.0943,2.0943,2.1069,1.5374,1.5512,1.5512,1.5512,1.552,1.5553,1.5577,1.561,0.0,0.0,0.0,1.5512,1.5528,1.5561,1.5561,1.5577,1.561,1.561,1.561,1.561,1.561,1.561,1.561,1.561,1.561,1.561,1.561,1.561,1.561,1.561,1.561,1.561,1.561,1.5593,1.5553,1.5382,1.513,1.4814,1.4741,1.4781,1.4911,1.4887,1.4806,1.4659,1.4659,1.4586,1.4432,1.427,1.4253,1.4245,1.4432,1.4705,1.5168,1.53,1.5649,1.6018,1.5936,1.5832,1.5725,1.5876,1.5952,1.5984,1.6084,1.6037,1.5687,1.598,1.6169,1.6131,1.5961,1.5829,1.5753,1.5451,1.5215,1.5186,1.6181,1.6947,1.7142,1.8212,1.9059,1.9217,1.9253,1.9289,1.9507,1.9543,1.9615,1.9833,1.9905,1.9977,2.0002,1.9977,1.9929,1.9953,2.0038,2.005,2.0062,2.0219,2.034,2.0388,2.0614,2.0665,2.0665,2.0665,2.0665,2.0665,2.0665,2.0665,2.0665,2.0665,2.0665,2.0665,2.0665,2.0665,2.0665,2.0665,2.0804,1.5496,1.5512,1.5512,1.5512,1.5528,1.5675,1.5829,1.5943,1.565,1.552,1.5512,1.5512,1.5601,1.574,1.574,1.5829,1.5885,1.5893,1.5975,0.0,1.5893,1.5893,1.5967,1.5975,1.5967,1.5893,1.5967,1.5893,1.5893,1.5885,1.5893,1.5885,1.5975,1.5886,1.5731,1.5561,1.5374,1.5163,1.4862,1.4724,1.4741,1.4586,1.4497,1.4473,1.4481,1.4464,1.4432,1.427,1.4326,1.4617,1.4504,1.4837,1.5714,1.5777,1.6048,1.6651,1.6642,1.6547,1.6358,1.6377,1.632,1.616,1.6169,1.615,1.6103,1.615,1.6103,1.6002,1.5955,1.5706,1.5375,1.5281,1.512,1.5035,1.5847,1.6598,1.7248,1.8205,1.9061,1.967,1.9772,1.976,1.9808,1.9833,1.9845,1.9917,2.011,2.0291,2.0493,2.0364,2.0243,2.0255,2.0412,2.0533,2.0509,2.0569,2.0593,2.0617,2.0629,2.0665,2.0665,2.0665,2.0665,2.0665,2.0665,2.0665,2.0665,2.0665,2.0665,2.0665,2.0665,2.0665,2.0665,2.0665,2.0804,1.5715,1.5796,1.5804,1.5723,1.5813,1.5886,1.5967,1.595,1.5796,1.5804,1.5804,1.5723,1.5845,1.5918,1.5918,1.5967,1.5966,1.5966,1.5966,1.5966,1.5966,1.5966,1.5966,1.5966,1.5966,1.5966,1.5966,1.5966,1.5966,1.5966,1.5966,1.5966,1.5966,1.6008,1.5918,1.574,1.5569,1.539,1.513,1.4944,1.4846,1.4765,1.4716,1.4716,1.4724,1.4724,1.4716,1.4643,1.4677,1.4827,1.4976,1.534,1.6023,1.6156,1.6434,1.6879,1.6755,1.6538,1.633,1.6207,1.616,1.6178,1.6188,1.6188,1.6188,1.6188,1.6141,1.6037,1.5933,1.5782,1.5583,1.547,1.5375,1.5281,1.597,1.6758,1.7494,1.8239,1.9,1.9747,1.9881,1.9941,2.0086,2.0098,2.0171,2.0279,2.0436,2.0545,2.0723,2.0638,2.0553,2.0565,2.0662,2.0653,2.0665,2.0665,2.0665,2.0665,2.0665,2.0665,2.0665,2.0665,2.0665,2.0665,2.0665,2.0665,2.0665,2.0665,2.0665,2.0665,2.0665,2.0665,2.0665,2.0665,2.0804,1.5918,1.5966,1.5966,1.5966,1.5966,1.5966,1.5966,1.5966,1.5958,1.5966,1.5966,1.5966,1.5966,1.5966,1.5966,1.5966,1.5966,1.5966,1.5966,1.5966,1.5966,1.5966,1.5966,1.5966,1.5966,1.5966,1.5966,1.5966,1.5966,1.5966,1.5966,1.5966,1.5966,1.5966,1.5958,1.5902,1.5748,1.5577,1.539,1.5195,1.5053,1.5045,1.5045,1.5045,1.5045,1.5045,1.5045,1.5045,1.5045,1.5045,1.5275,1.5659,1.6042,1.629,1.6578,1.6917,1.6757,1.6509,1.6264,1.6056,1.6008,1.6169,1.6188,1.6188,1.6188,1.6188,1.616,1.6103,1.6021,1.5908,1.5832,1.5649,1.5564,1.5632,1.6079,1.678,1.7662,1.8316,1.9026,1.9848,2.0062,2.0158,2.0315,2.0364,2.0436,2.0593,2.0665,2.0665,2.0665,2.0665,2.0665,2.0665,2.0665,2.0665,2.0665,2.0665,2.0665,2.0665,2.0665,2.0665,2.0665,2.0665,2.0665,2.0665,2.0665,2.0665,2.0665,2.0665,2.0665,2.0665,2.0665,2.0665,2.0665,2.0665,2.0804,1.595,1.5966,1.5966,1.5966,1.5966,1.5966,1.5966,1.5966,1.5966,1.5966,1.5966,1.5966,1.5966,1.5966,1.5966,1.5966,1.5966,1.5966,1.5966,1.5966,1.5966,1.5966,1.5966,1.5966,1.5966,1.5966,1.5966,1.5966,1.5966,1.5966,1.5966,1.5966,1.5966,1.5966,1.5958,1.6024,1.5926,1.5756,1.5577,1.5317,1.4992,1.5045,1.5045,1.5045,1.5045,1.5045,1.5045,1.5045,1.5045,1.5045,1.5045,1.5275,1.5659,1.6033,1.6406,1.6837,1.6936,1.6878,1.649,1.6264,1.616,1.6178,1.6188,1.6188,1.6188,1.6188,1.6093,1.6021,1.5886,1.587,1.5621,1.5661,1.567,1.5699,1.595,1.652,1.7781,1.8287,1.8974,2.0455,2.0533,2.0605,2.0593,2.0593,2.0629,2.0653,2.0665,2.0665,2.0665,2.0665,2.0665,2.0665,2.0665,2.0665,2.0665,2.0665,2.0665,2.0665,2.0665,2.0665,2.0665,2.0665,2.0665,2.0665,2.0665,2.0665,2.0665,2.0665,2.0665,2.0665,2.0665,2.0665,2.0665,2.0665,2.0735,1.5966,1.5966,1.5966,1.5966,1.5966,1.5966,1.5966,1.5966,1.5966,1.5966,1.5966,1.5966,1.5966,1.5966,1.5966,1.5966,1.5966,1.5966,1.5966,1.5966,1.5966,1.5966,1.5966,1.5966,1.5966,1.5966,1.5966,1.5966,1.5966,1.5966,1.5966,1.5966,1.5966,1.5966,1.5966,1.5966,1.5959,1.578,1.5699,1.5545,1.5293,1.5074,1.5045,1.5045,1.5045,1.5045,1.5045,1.5045,1.5045,1.5045,1.5198,1.5514,1.5974,1.6357,1.673,1.7093,1.6955,1.6745,1.633,1.6226,1.6188,1.6188,1.6188,1.6188,1.6188,1.6188,1.6141,1.6075,1.6056,1.6008,1.5933,1.5923,1.5993,1.6002,1.6419,1.7157,1.8133,1.8696,1.9529,2.0527,2.0665,2.0665,2.0665,2.0665,2.0665,2.0665,2.0665,2.0665,2.0665,2.0665,2.0665,2.0665,2.0665,2.0665,2.0665,2.0665,2.0665,2.0665,2.0665,2.0665,2.0665,2.0665,2.0665,2.0665,2.0665,2.0665,2.0665,2.0665,2.0665,2.0665,2.0665,2.0665,2.0665,2.0665,2.0665,1.5966,1.5966,1.5966,1.5966,1.5966,1.5966,1.5966,1.5966,1.5966,1.5966,1.5966,1.5966,1.5966,1.5966,1.5966,1.5966,1.5966,1.5966,1.5966,1.5966,1.5966,1.5966,1.5966,1.5966,1.5966,1.5966,1.5966,1.5966,1.5966,1.5966,1.5966,1.5966,1.5966,1.5966,1.5966,1.5966,1.5983,1.5861,1.5804,1.5715,1.5561,1.5277,1.5114,1.5114,1.5114,1.5114,1.5114,1.5065,1.5041,1.5041,1.5385,1.5735,1.605,1.6501,1.6913,1.7161,1.6925,1.6556,1.6207,1.6188,1.6188,1.6188,1.6188,1.6188,1.6188,1.6188,1.6188,1.6178,1.6188,1.6178,1.6188,1.6188,1.6188,1.6259,1.6673,1.7369,1.8272,1.8901,1.9529,2.0457,2.0665,2.0665,2.0665,2.0665,2.0665,2.0665,2.0665,2.0665,2.0665,2.0665,2.0665,2.0665,2.0665,2.0665,2.0665,2.0665,2.0665,2.0665,2.0665,2.0665,2.0665,2.0665,2.0665,2.0665,2.0665,2.0665,2.0665,2.0665,2.0665,2.0665,2.0665,2.0665,2.0665,2.0665,2.0665,1.5966,1.5966,1.5966,1.5966,1.5966,1.5966,1.5966,1.5966,1.5966,1.5966,1.5966,1.5966,1.5966,1.5966,1.5966,1.5966,1.5966,1.5966,1.5966,1.5966,1.5966,1.5966,1.5966,1.5966,1.5966,1.5966,1.5966,1.5966,1.5966,1.5966,1.5966,1.5966,1.5966,1.5966,1.5966,1.5966,1.5958,1.5917,1.5869,1.5772,1.5748,1.5585,1.5496,1.5488,1.548,1.5463,1.5455,1.5317,1.522,1.522,1.5452,1.5659,1.5735,1.6415,1.686,1.6813,1.6632,1.6415,1.6216,1.6188,1.6188,1.6188,1.6188,1.6188,1.6188,1.6188,1.6188,1.6188,1.6188,1.6188,1.6188,1.6188,1.6188,1.6178,1.6249,1.7026,1.8272,1.8622,1.9181,2.0318,2.0665,2.0665,2.0665,2.0665,2.0665,2.0665,2.0665,2.0665,2.0665,2.0665,2.0665,2.0665,2.0665,2.0665,2.0665,2.0665,2.0665,2.0665,2.0665,2.0665,2.0665,2.0665,2.0665,2.0665,2.0665,2.0665,2.0665,2.0665,2.0665,2.0665,2.0665,2.0665,2.0665,2.0665,2.0665,1.5966,1.5966,1.5966,1.5966,1.5966,1.5966,1.5966,1.5966,1.5966,1.5966,1.5966,1.5966,1.5966,1.5966,1.5966,1.5966,1.5966,1.5966,1.5966,1.5966,1.5966,1.5966,1.5966,1.5966,1.5966,1.5966,1.5966,1.5966,1.5966,1.5966,1.5966,1.5966,1.5966,1.5966,1.5966,1.5966,1.5966,1.5958,1.5975,1.5951,1.5943,1.5886,1.5853,1.5845,1.5634,1.5512,1.5512,1.5342,1.5236,1.5236,1.5692,1.5974,1.6042,1.6612,1.6946,1.6821,1.6604,1.6396,1.6216,1.6188,1.6188,1.6188,1.6188,1.6188,1.6188,1.6188,1.6188,1.6188,1.6188,1.6188,1.6188,1.6188,1.6188,1.633,1.7017,1.7721,1.8412,1.9251,2.0098,2.0596,2.0665,2.0665,2.0665,2.0665,2.0665,2.0665,2.0665,2.0665,2.0665,2.0665,2.0665,2.0665,2.0665,2.0665,2.0665,2.0665,2.0665,2.0665,2.0665,2.0665,2.0665,2.0665,2.0665,2.0665,2.0665,2.0665,2.0665,2.0665,2.0665,2.0665,2.0665,2.0665,2.0665,2.0665,2.0665,1.5966,1.5966,1.5966,1.5966,1.5966,1.5966,1.5966,1.5966,1.5966,1.5966,1.5966,1.5966,1.5966,1.5966,1.5966,1.5966,1.5966,1.5966,1.5966,1.5966,1.5966,1.5966,1.5966,1.5966,1.5966,1.5966,1.5966,1.5966,1.5966,1.5966,1.5966,1.5966,1.5966,1.5966,1.5966,1.5966,1.5966,1.5966,1.5966,1.5966,1.5966,1.5966,1.5966,1.5933,1.5813,1.5691,1.5683,1.5512,1.5382,1.5396,1.5932,1.6419,1.6577,1.6917,1.701,1.6812,1.6604,1.6396,1.6216,1.6188,1.6188,1.6188,1.6188,1.6188,1.6188,1.6188,1.6188,1.6188,1.6188,1.6188,1.6188,1.6188,1.6188,1.632,1.7298,1.8131,1.8412,1.9529,2.0306,2.0596,2.0665,2.0665,2.0665,2.0665,2.0665,2.0665,2.0665,2.0665,2.0665,2.0665,2.0665,2.0665,2.0665,2.0665,2.0665,2.0665,2.0665,2.0665,2.0665,2.0665,2.0665,2.0665,2.0665,2.0665,2.0665,2.0665,2.0665,2.0665,2.0665,2.0665,2.0665,2.0665,2.0665,2.0665,2.0665,1.5966,1.5966,1.5966,1.5966,1.5966,1.5966,1.5966,1.5966,1.5966,1.5966,1.5966,1.5966,1.5966,1.5966,1.5966,1.5966,1.5966,1.5966,1.5966,1.5966,1.5966,1.5966,1.5966,1.5966,1.5966,1.5966,1.5966,1.5966,1.5966,1.5966,1.5966,1.5966,1.5966,1.5966,1.5966,1.5966,1.5966,1.5966,1.5966,1.5966,1.5966,1.5966,1.5966,1.5966,1.5933,1.5925,1.5933,1.5837,1.565,1.5575,1.6102,1.6775,1.7206,1.7218,1.702,1.6812,1.6604,1.6396,1.6216,1.6188,1.6188,1.6188,1.6188,1.6188,1.6188,1.6188,1.6188,1.6188,1.6188,1.6188,1.6188,1.6188,1.6188,1.633,1.7026,1.7791,1.8342,1.9111,1.982,2.0527,2.0665,2.0665,2.0665,2.0665,2.0665,2.0665,2.0665,2.0665,2.0665,2.0665,2.0665,2.0665,2.0665,2.0665,2.0665,2.0665,2.0665,2.0665,2.0665,2.0665,2.0665,2.0665,2.0665,2.0665,2.0665,2.0665,2.0665,2.0665,2.0665,2.0665,2.0665,2.0665,2.0665,2.0665,2.0665,1.5966,1.5966,1.5966,1.5966,1.5966,1.5966,1.5966,1.5966,1.5966,1.5966,1.5966,1.5966,1.5966,1.5966,1.5966,1.5966,1.5966,1.5966,1.5966,1.5966,1.5966,1.5966,1.5966,1.5966,1.5966,1.5966,1.5966,1.5966,1.5966,1.5966,1.5966,1.5966,1.5966,1.5966,1.5966,1.5966,1.5966,1.5966,1.5966,1.5966,1.5966,1.5966,1.5966,1.5966,1.5966,1.5966,1.5958,1.5869,1.5852,1.5918,1.6276,1.6784,1.7206,1.7218,1.702,1.6812,1.6604,1.6396,1.6216,1.6188,1.6188,1.6188,1.6188,1.6188,1.6188,1.6188,1.6188,1.6188,1.6188,1.6188,1.6188,1.6188,1.6188,1.6188,1.7298,1.8061,1.8552,1.9541,2.0318,2.0596,2.0665,2.0665,2.0665,2.0665,2.0665,2.0665,2.0665,2.0665,2.0665,2.0665,2.0665,2.0665,2.0665,2.0665,2.0665,2.0665,2.0665,2.0665,2.0665,2.0665,2.0665,2.0665,2.0665,2.0665,2.0665,2.0665,2.0665,2.0665,2.0665,2.0665,2.0665,2.0665,2.0665,2.0665,2.0665,1.5966,1.5966,1.5966,1.5966,1.5966,1.5966,1.5966,1.5966,1.5966,1.5966,1.5966,1.5966,1.5966,1.5966,1.5966,1.5966,1.5966,1.5966,1.5966,1.5966,1.5966,1.5966,1.5966,1.5966,1.5966,1.5966,1.5966,1.5966,1.5966,1.5966,1.5966,1.5966,1.5966,1.5966,1.5966,1.5966,1.5966,1.5966,1.5966,1.5966,1.5966,1.5966,1.5966,1.5966,1.5966,1.5966,1.5958,1.5926,1.5917,1.6148,1.645,1.6866,1.735,1.7294,1.7133,1.6925,1.6717,1.6519,1.632,1.6235,1.6188,1.6188,1.6188,1.6188,1.6188,1.6188,1.6188,1.6188,1.6188,1.6188,1.6188,1.6188,1.6188,1.6178,1.7228,1.8201,1.8762,1.9889,2.0596,2.0665,2.0665,2.0665,2.0665,2.0665,2.0665,2.0665,2.0665,2.0665,2.0665,2.0665,2.0665,2.0665,2.0665,2.0665,2.0665,2.0665,2.0665,2.0665,2.0665,2.0665,2.0665,2.0665,2.0665,2.0665,2.0665,2.0665,2.0665,2.0665,2.0665,2.0665,2.0665,2.0665,2.0665,2.0665,2.0665,1.5966,1.5966,1.5966,1.5966,1.5966,1.5966,1.5966,1.5966,1.5966,1.5966,1.5966,1.5966,1.5966,1.5966,1.5966,1.5966,1.5966,1.5966,1.5966,1.5966,1.5966,1.5966,1.5966,1.5966,1.5966,1.5966,1.5966,1.5966,1.5966,1.5966,1.5966,1.5966,1.5966,1.5966,1.5966,1.5966,1.5966,1.5966,1.5966,1.5966,1.5966,1.5966,1.5966,1.5966,1.5966,1.5966,1.5958,1.6073,1.6162,1.6228,1.6656,1.7063,1.735,1.7426,1.7312,1.7095,1.6916,1.6708,1.65,1.633,1.6216,1.6188,1.6188,1.6188,1.6188,1.6188,1.6188,1.6188,1.6188,1.6188,1.6188,1.6188,1.6188,1.632,1.7097,1.8072,1.932,2.0179,2.0596,2.0665,2.0665,2.0665,2.0665,2.0665,2.0665,2.0665,2.0665,2.0665,2.0665,2.0665,2.0665,2.0665,2.0665,2.0665,2.0665,2.0665,2.0665,2.0665,2.0665,2.0665,2.0665,2.0665,2.0665,2.0665,2.0665,2.0665,2.0665,2.0665,2.0665,2.0665,2.0665,2.0665,2.0665,2.0665,2.0665,1.5966,1.5966,1.5966,1.5966,1.5966,1.5966,1.5966,1.5966,1.5974,1.599,1.5974,1.5966,1.5982,1.5966,1.5974,1.5966,1.5974,1.5974,1.5966,1.5966,1.5966,1.5966,1.5966,1.5966,1.5966,1.5966,1.5966,1.5966,1.5966,1.5966,1.5966,1.5966,1.5966,1.5966,1.5966,1.5966,1.5966,1.5966,1.5966,1.5966,1.5966,1.5966,1.5966,1.5966,1.5966,1.5966,1.6032,1.6481,1.6635,1.6625,1.6957,1.7273,1.735,1.7426,1.7341,1.7152,1.7048,1.6859,1.6566,1.6434,1.6339,1.6197,1.6188,1.6188,1.6188,1.6188,1.6188,1.6188,1.6188,1.6188,1.6188,1.6188,1.6188,1.632,1.7298,1.8412,1.932,2.0167,2.0665,2.0665,2.0665,2.0665,2.0665,2.0665,2.0665,2.0665,2.0665,2.0665,2.0665,2.0665,2.0665,2.0665,2.0665,2.0665,2.0665,2.0665,2.0665,2.0665,2.0665,2.0665,2.0665,2.0665,2.0665,2.0665,2.0665,2.0665,2.0665,2.0665,2.0665,2.0665,2.0665,2.0665,2.0665,2.0665,2.0665,1.5966,1.5966,1.5966,1.5966,1.5974,1.6121,1.6154,1.617,1.6243,1.6267,1.6267,1.6267,1.6267,1.6276,1.6276,1.6219,1.6162,1.6154,1.6113,1.5966,1.5966,1.5966,1.5966,1.5966,1.5966,1.5966,1.5966,1.5966,1.5966,1.5966,1.5966,1.5966,1.5966,1.5966,1.5966,1.5966,1.5966,1.5966,1.5966,1.5966,1.5966,1.5966,1.5966,1.5966,1.5966,1.604,1.6344,1.6927,1.7217,1.7074,1.7349,1.752,1.7435,1.7426,1.7369,1.7237,1.7161,1.6982,1.6774,1.6604,1.6434,1.632,1.6245,1.6188,1.6188,1.6188,1.6188,1.6188,1.6188,1.6188,1.6188,1.6188,1.6188,1.6391,1.751,1.8552,1.9041,2.0028,2.0596,2.0665,2.0665,2.0665,2.0665,2.0665,2.0665,2.0665,2.0665,2.0665,2.0665,2.0665,2.0665,2.0665,2.0665,2.0665,2.0665,2.0665,2.0665,2.0665,2.0665,2.0665,2.0665,2.0665,2.0665,2.0665,2.0665,2.0665,2.0665,2.0665,2.0665,2.0665,2.0665,2.0665,2.0665,2.0665,2.0665,1.5966,1.5966,1.5966,1.5974,1.6097,1.6235,1.6308,1.6365,1.6479,1.6552,1.6552,1.6568,1.6527,1.6584,1.6511,1.6479,1.6332,1.6332,1.6227,1.6129,1.6064,1.5966,1.5966,1.5966,1.5966,1.5966,1.5966,1.5966,1.5966,1.5966,1.5966,1.5966,1.5966,1.5966,1.5966,1.5966,1.5966,1.5966,1.5966,1.5966,1.5966,1.5966,1.5966,1.6048,1.613,1.6451,1.6901,1.735,1.7654,1.7496,1.7607,1.7547,1.7454,1.7426,1.7416,1.7388,1.7256,1.7142,1.7048,1.6755,1.6528,1.6462,1.6301,1.6197,1.6197,1.6188,1.6188,1.6188,1.6188,1.6188,1.6188,1.6188,1.6188,1.6391,1.751,1.8131,1.8622,1.975,2.0665,2.0665,2.0665,2.0665,2.0665,2.0665,2.0665,2.0665,2.0665,2.0665,2.0665,2.0665,2.0665,2.0665,2.0665,2.0665,2.0665,2.0665,2.0665,2.0665,2.0665,2.0665,2.0665,2.0665,2.0665,2.0665,2.0665,2.0665,2.0665,2.0665,2.0665,2.0665,2.0665,2.0665,2.0665,2.0665,2.0665,1.5966,1.5966,1.5966,1.6129,1.6243,1.6292,1.6389,1.6527,1.6568,1.6609,1.6592,1.6592,1.6592,1.6592,1.6617,1.6552,1.6519,1.6503,1.6422,1.6251,1.6097,1.5966,1.5966,1.5966,1.5966,1.5966,1.5966,1.5966,1.5966,1.5966,1.5966,1.5966,1.5966,1.5966,1.5966,1.5966,1.5966,1.5966,1.5966,1.5966,1.5966,1.5966,1.5966,1.6048,1.6369,1.6944,1.7592,1.7883,1.7934,1.7859,1.7764,1.7634,1.7473,1.7426,1.7426,1.7416,1.7388,1.7284,1.7123,1.7001,1.6821,1.6547,1.6443,1.6349,1.6197,1.6188,1.6188,1.6188,1.6188,1.6188,1.6188,1.6188,1.6188,1.6391,1.7026,1.7791,1.8482,1.975,2.0527,2.0665,2.0665,2.0665,2.0665,2.0665,2.0665,2.0665,2.0665,2.0665,2.0665,2.0665,2.0665,2.0665,2.0665,2.0665,2.0665,2.0665,2.0665,2.0665,2.0665,2.0665,2.0665,2.0665,2.0665,2.0665,2.0665,2.0665,2.0665,2.0665,2.0665,2.0665,2.0665,2.0665,2.0665,2.0665,2.0665,1.5966,1.5974,1.6129,1.6219,1.6324,1.6487,1.6617,1.6714,1.6803,1.6828,1.6828,1.6828,1.6828,1.6828,1.6828,1.6795,1.6698,1.6609,1.6479,1.6316,1.6194,1.6129,1.5966,1.5966,1.5966,1.5966,1.5966,1.5966,1.5966,1.5966,1.5966,1.5966,1.5966,1.5966,1.5966,1.5966,1.5966,1.5966,1.5966,1.5966,1.5966,1.5966,1.6122,1.6451,1.6944,1.7592,1.7919,1.8144,1.8111,1.7999,1.7842,1.7634,1.7473,1.7426,1.7426,1.7426,1.7426,1.7388,1.7275,1.7152,1.701,1.6783,1.6613,1.6443,1.632,1.6245,1.6188,1.6188,1.6188,1.6188,1.6188,1.6188,1.6188,1.633,1.6885,1.7439,1.8002,1.9262,2.0318,2.0527,2.0665,2.0665,2.0665,2.0665,2.0665,2.0665,2.0665,2.0665,2.0665,2.0665,2.0665,2.0665,2.0665,2.0665,2.0665,2.0665,2.0665,2.0665,2.0665,2.0665,2.0665,2.0665,2.0665,2.0665,2.0665,2.0665,2.0665,2.0665,2.0665,2.0665,2.0665,2.0665,2.0665,2.0665,2.0665,1.5966,1.5982,1.6235,1.6316,1.6397,1.6698,1.6766,1.6917,1.7047,1.7063,1.7104,1.7112,1.7055,1.7096,1.7088,1.7015,1.6877,1.6706,1.656,1.6389,1.63,1.6186,1.5998,1.5966,1.5966,1.5966,1.5966,1.5966,1.5966,1.5966,1.5966,1.5966,1.5966,1.5966,1.5966,1.5966,1.5966,1.5966,1.5966,1.5966,1.6048,1.6122,1.6369,1.7018,1.751,1.7928,1.8137,1.8242,1.8267,1.7971,1.7842,1.7634,1.7483,1.7426,1.7426,1.7426,1.7426,1.7407,1.7379,1.7265,1.7152,1.7105,1.6812,1.6556,1.6462,1.6339,1.6245,1.6197,1.6188,1.6188,1.6188,1.6188,1.6188,1.633,1.6744,1.7097,1.752,1.8563,1.9541,2.0306,2.0596,2.0665,2.0665,2.0665,2.0665,2.0665,2.0665,2.0665,2.0665,2.0665,2.0665,2.0665,2.0665,2.0665,2.0665,2.0665,2.0665,2.0665,2.0665,2.0665,2.0804,2.1151,2.1151,2.0735,2.0665,2.0735,2.0735,2.0665,2.0665,2.0665,2.0665,2.0665,2.0665,2.0665,2.0665,1.5966,1.5982,1.6235,1.6389,1.6552,1.6771,1.6942,1.7055,1.7088,1.7112,1.7112,1.7112,1.7112,1.7112,1.7112,1.7088,1.7006,1.6877,1.6714,1.6527,1.6405,1.6235,1.6022,1.5966,1.5966,1.5966,1.5966,1.5966,1.5966,1.5966,1.5966,1.5966,1.5966,1.5966,1.5966,1.5966,1.5966,1.6048,1.6048,1.6048,1.6122,1.6451,1.6936,1.7592,1.7928,1.8164,1.8444,1.8456,1.8258,1.805,1.7842,1.7634,1.7473,1.7426,1.7426,1.7426,1.7426,1.7426,1.7407,1.7388,1.7265,1.7142,1.7001,1.6793,1.6594,1.6506,1.6615,1.6358,1.6259,1.6188,1.6188,1.6188,1.6188,1.6259,1.633,1.6673,1.7238,1.8002,1.8901,1.9611,2.0167,2.0665,2.0665,2.0665,2.0665,2.0665,2.0665,2.0665,2.0665,2.0665,2.0665,2.0665,2.0665,2.0665,2.0665,2.0665,2.0665,2.0665,2.0665,2.0665,2.0943,2.1691,2.1691,2.1276,2.0943,2.0873,2.0804,2.0735,2.0665,2.0665,2.0665,2.0735,2.0665,2.0665,2.0665,1.5966,1.599,1.6332,1.6495,1.6617,1.6877,1.7031,1.7104,1.7112,1.7112,1.7112,1.7112,1.7112,1.7112,1.7112,1.7112,1.708,1.7039,1.6885,1.6714,1.6535,1.6349,1.617,1.6097,1.5966,1.5966,1.5966,1.5966,1.5966,1.5966,1.5966,1.5966,1.5966,1.5966,1.5966,1.5966,1.6048,1.6048,1.6205,1.6369,1.6451,1.7026,1.76,1.7919,1.8246,1.8454,1.8394,1.8305,1.8097,1.7889,1.7681,1.7539,1.7454,1.7426,1.7426,1.7426,1.7426,1.7426,1.7426,1.7426,1.7369,1.7284,1.718,1.7029,1.7023,1.7267,1.7531,1.7218,1.6391,1.6188,1.6188,1.6188,1.6188,1.6188,1.6188,1.64,1.6744,1.7439,1.8142,1.8971,1.9889,2.0527,2.0665,2.0665,2.0665,2.0665,2.0665,2.0665,2.0665,2.0665,2.0665,2.0665,2.0665,2.0665,2.0665,2.0665,2.0665,2.0665,2.0665,2.0665,2.0873,2.1484,2.1829,2.176,2.1484,2.1427,2.0873,2.0804,2.0735,2.0804,2.0873,2.0943,2.0804,2.0665,2.0873,1.5966,1.6073,1.6389,1.6544,1.6633,1.6917,1.7071,1.7104,1.7112,1.7112,1.7112,1.7112,1.7112,1.7112,1.7112,1.7112,1.7112,1.7104,1.6998,1.6828,1.6641,1.6479,1.63,1.6146,1.5966,1.5966,1.5966,1.5966,1.5966,1.5966,1.5966,1.5966,1.5966,1.5966,1.5966,1.6122,1.613,1.6295,1.6616,1.6862,1.71,1.76,1.8092,1.8155,1.8472,1.8522,1.838,1.8116,1.7927,1.7738,1.7568,1.7426,1.7426,1.7426,1.7426,1.7426,1.7426,1.7426,1.7426,1.7426,1.7416,1.7379,1.7265,1.7321,1.7872,1.8497,1.8932,1.8325,1.751,1.6532,1.632,1.6188,1.6188,1.6188,1.6188,1.6259,1.6461,1.6956,1.751,1.8493,1.968,2.0318,2.0527,2.0665,2.0665,2.0665,2.0665,2.0665,2.0665,2.0665,2.0665,2.0665,2.0665,2.0665,2.0665,2.0665,2.0665,2.0665,2.0665,2.0665,2.0873,2.1151,2.1415,2.1829,2.2585,2.2448,2.1691,2.1358,2.1829,2.1966,2.1553,2.1484,2.1897,2.1897,2.1897,1.5966,1.5974,1.6251,1.643,1.6592,1.6795,1.6974,1.7096,1.7096,1.7112,1.7112,1.7112,1.7112,1.7112,1.7112,1.7112,1.7112,1.708,1.6998,1.675,1.6649,1.6462,1.63,1.6047,1.5974,1.5966,1.5966,1.5966,1.5966,1.5966,1.5966,1.5966,1.6048,1.6048,1.6122,1.6451,1.6616,1.6698,1.7035,1.7437,1.7755,1.7992,1.8237,1.8444,1.8494,1.8361,1.8248,1.7974,1.7766,1.77,1.753,1.7435,1.7426,1.7426,1.7426,1.7426,1.7426,1.7426,1.7426,1.7426,1.7569,1.7569,1.7455,1.8029,1.8737,1.9409,1.9532,1.8514,1.7991,1.7298,1.6391,1.6188,1.6188,1.6188,1.6188,1.6188,1.633,1.6532,1.7168,1.7861,1.8982,1.9889,2.0457,2.0596,2.0665,2.0665,2.0665,2.0665,2.0665,2.0665,2.0665,2.0665,2.0665,2.0665,2.0665,2.0665,2.0665,2.0665,2.0665,2.0665,2.0804,2.1012,2.1276,2.176,2.2654,2.3529,2.3324,2.3188,2.3393,2.3201,2.2722,2.2996,2.3543,2.3338,2.2859,1.5966,1.6064,1.6235,1.6349,1.6446,1.6617,1.6795,1.6942,1.6966,1.7023,1.7096,1.7112,1.7112,1.7096,1.7112,1.7112,1.7088,1.7006,1.6846,1.6701,1.6576,1.6381,1.6284,1.6137,1.5966,1.5966,1.5966,1.5966,1.5966,1.5966,1.5966,1.6048,1.6287,1.6451,1.6451,1.6862,1.7026,1.7191,1.7519,1.7928,1.8228,1.8316,1.8323,1.8484,1.8286,1.8144,1.7983,1.7861,1.7662,1.7587,1.7454,1.7426,1.7426,1.7426,1.7426,1.7426,1.7426,1.7426,1.7426,1.7426,1.7797,1.8243,1.8072,1.7944,1.8833,1.8934,1.8981,1.8503,1.757,1.6875,1.6391,1.6259,1.6188,1.6188,1.6188,1.6188,1.6259,1.64,1.6815,1.751,1.8142,1.9052,1.9889,2.0318,2.0527,2.0665,2.0665,2.0665,2.0665,2.0665,2.0665,2.0665,2.0665,2.0665,2.0665,2.0665,2.0665,2.0665,2.0665,2.0735,2.0735,2.0943,2.1151,2.1622,2.2379,2.3256,2.4263,2.4413,2.3938,2.3884,2.3884,2.4156,2.4428,2.3938,2.3529,1.5966,1.6056,1.6186,1.6259,1.6316,1.6454,1.6617,1.6771,1.6787,1.6852,1.6966,1.7006,1.7023,1.6998,1.6998,1.6998,1.6958,1.6844,1.6795,1.6665,1.6495,1.6332,1.6251,1.6137,1.5966,1.5966,1.5966,1.5966,1.6048,1.613,1.6205,1.6205,1.6534,1.678,1.6944,1.7273,1.7609,1.7773,1.7946,1.8244,1.846,1.838,1.8305,1.821,1.8078,1.7811,1.7757,1.8183,1.8229,1.7473,1.8035,1.8025,1.7578,1.7426,1.7426,1.7426,1.7426,1.7426,1.7426,1.7502,1.8101,1.8471,1.8885,1.8451,1.8791,1.8091,1.7701,1.8455,1.7721,1.6875,1.632,1.6188,1.6188,1.6188,1.6188,1.6188,1.6259,1.633,1.6461,1.6885,1.751,1.8072,1.8982,1.982,2.0318,2.0596,2.0665,2.0665,2.0665,2.0665,2.0665,2.0665,2.0665,2.0665,2.0665,2.0665,2.0665,2.0702,2.0702,2.0759,2.0783,2.0828,2.0943,2.1496,2.2087,2.2722,2.3529,2.3938,2.4428,2.5037,2.5375,2.5105,2.4955,2.4535,2.4331,1.5966,1.5966,1.5982,1.6162,1.6292,1.6316,1.643,1.6592,1.66,1.6617,1.669,1.6779,1.6779,1.6714,1.6795,1.6787,1.6633,1.6609,1.66,1.6535,1.6405,1.6292,1.6219,1.6129,1.5966,1.5966,1.5966,1.5966,1.6114,1.6418,1.6517,1.6698,1.6845,1.7018,1.7337,1.7737,1.8028,1.8235,1.8285,1.83,1.8324,1.8191,1.8148,1.8179,1.7948,1.7738,1.7787,1.8993,1.927,1.8177,1.9067,1.9143,1.8471,1.7949,1.7873,1.7797,1.7797,1.7721,1.7493,1.7426,1.7426,1.7949,1.8582,1.903,1.8602,2.0188,2.0009,1.8357,1.758,1.7157,1.6603,1.6188,1.6188,1.6188,1.6188,1.6188,1.6188,1.6188,1.633,1.6461,1.6885,1.765,1.8142,1.9052,1.9889,2.0167,2.0665,2.0665,2.0665,2.0665,2.0665,2.0665,2.0665,2.0665,2.0665,2.069,2.0774,2.0834,2.0859,2.081,2.0856,2.0889,2.0999,2.1241,2.1792,2.222,2.2775,2.3584,2.4587,2.6258,2.68,2.6249,2.5981,2.5764,2.5562,1.5966,1.5966,1.5966,1.5998,1.6146,1.6146,1.6251,1.6389,1.6414,1.6479,1.6576,1.6649,1.6649,1.6617,1.6625,1.6657,1.6568,1.6454,1.643,1.6349,1.6243,1.6162,1.6105,1.6097,1.5966,1.5958,1.6048,1.6205,1.6443,1.6588,1.6944,1.7124,1.7348,1.7583,1.7828,1.8026,1.8176,1.8225,1.8229,1.8172,1.8125,1.8053,1.831,1.9223,1.9096,1.9582,2.0373,2.0985,2.0789,2.0628,2.0928,2.0639,2.0037,1.9294,1.8926,1.885,1.8774,1.8319,1.7569,1.7426,1.7426,1.7721,1.8744,1.9244,1.8006,1.8383,1.8145,1.7328,1.7157,1.6734,1.6461,1.6188,1.6188,1.6188,1.6188,1.6188,1.6188,1.6188,1.6259,1.632,1.6815,1.7379,1.7791,1.8282,1.9041,1.982,2.0306,2.0665,2.0665,2.0665,2.0665,2.0702,2.0714,2.0726,2.0726,2.0868,2.0965,2.0967,2.1028,2.1028,2.1028,2.1172,2.1304,2.1386,2.1466,2.2006,2.2639,2.3437,2.4579,2.5975,2.6796,2.7067,2.6867,2.6784,2.6584,1.5959,1.5975,1.6024,1.5966,1.5966,1.5966,1.6113,1.6211,1.6227,1.6292,1.643,1.6462,1.6462,1.6446,1.6487,1.6446,1.6381,1.6284,1.6243,1.6186,1.6121,1.5966,1.5966,1.5966,1.5966,1.6032,1.6139,1.636,1.6506,1.667,1.7003,1.7503,1.7826,1.7953,1.8015,1.8182,1.8191,1.8078,1.8445,1.8583,1.8622,1.9121,1.9535,2.0658,2.0578,2.0887,2.1849,2.236,2.2509,2.2347,2.2422,2.2571,2.1975,2.1302,2.0639,2.0414,1.9962,1.9218,1.8395,1.7578,1.7426,1.7569,1.8069,1.8021,1.7266,1.6745,1.686,1.6467,1.633,1.6188,1.6188,1.6188,1.6188,1.6188,1.6188,1.6188,1.6188,1.6188,1.6188,1.6259,1.6673,1.6885,1.7168,1.758,1.8563,1.9471,2.0318,2.0665,2.0665,2.0665,2.0665,2.0714,2.0844,2.0856,2.088,2.1074,2.1256,2.1268,2.1269,2.1341,2.139,2.151,2.1498,2.1437,2.1628,2.1941,2.2405,2.3027,2.4191,2.5491,2.6335,2.7248,2.7134,2.7,2.7067,1.578,1.5796,1.5959,1.5942,1.5933,1.5966,1.5974,1.5998,1.5998,1.6006,1.6137,1.6243,1.6227,1.6162,1.6267,1.6243,1.6162,1.6014,1.5998,1.599,1.599,1.5966,1.5933,1.6008,1.5967,1.6065,1.6203,1.6347,1.6589,1.6951,1.7277,1.7478,1.7743,1.792,1.7989,1.798,1.7971,1.816,1.9202,1.9671,1.9981,2.0796,2.1534,2.2037,2.2088,2.2337,2.3151,2.3988,2.4001,2.3462,2.414,2.3992,2.3017,2.2571,2.2198,2.2124,2.0703,1.9962,1.9585,1.8243,1.755,1.7388,1.7737,1.7272,1.6895,1.6632,1.6443,1.6216,1.6188,1.6188,1.6188,1.6188,1.6188,1.6188,1.6188,1.6188,1.6188,1.6188,1.6188,1.6188,1.6188,1.633,1.6542,1.6956,1.8002,1.9052,2.011,2.0527,2.0608,2.0738,2.0762,2.0847,2.1001,2.1028,2.1112,2.1329,2.1462,2.1474,2.1535,2.1643,2.1655,2.1679,2.1643,2.1547,2.168,2.2019,2.2174,2.2456,2.3923,2.5368,2.6547,2.7296,2.7248,2.72,2.72,1.5993,1.6002,1.5747,1.5691,1.5723,1.5869,1.5966,1.5966,1.5966,1.5966,1.5974,1.6121,1.6113,1.6081,1.6089,1.6105,1.5982,1.5966,1.5966,1.5958,1.5942,1.5951,1.5902,1.5935,1.5967,1.6102,1.625,1.6632,1.711,1.7229,1.7382,1.7589,1.7592,1.7641,1.7717,1.7745,1.7785,1.7875,1.8917,1.9941,2.0157,2.1487,2.2707,2.3426,2.3486,2.3865,2.4693,2.5461,2.5312,2.5011,2.5873,2.5566,2.4891,2.4509,2.377,2.3474,2.2273,2.0853,1.9758,1.8305,1.736,1.7284,1.719,1.6972,1.6812,1.6604,1.6396,1.6245,1.6188,1.6188,1.6188,1.6188,1.6188,1.6188,1.6188,1.6188,1.6188,1.6188,1.6188,1.6188,1.6188,1.6188,1.633,1.6603,1.751,1.8244,1.9167,2.0145,2.0505,2.0801,2.0967,2.1052,2.1219,2.1269,2.1414,2.1607,2.1716,2.174,2.1946,2.2116,2.2091,2.1982,2.2007,2.1921,2.1969,2.2067,2.2251,2.2718,2.3954,2.5211,2.6284,2.7091,2.7232,2.72,2.72,1.6196,1.6205,1.6044,1.591,1.5872,1.5845,1.5861,1.5878,1.5918,1.5951,1.5959,1.6008,1.5966,1.5966,1.5966,1.5966,1.5958,1.5967,1.5951,1.5943,1.5878,1.5861,1.586,1.5916,1.6115,1.6219,1.6459,1.6836,1.722,1.7185,1.7334,1.7519,1.7492,1.7539,1.775,1.7981,1.8927,1.9584,2.0962,2.1727,2.2114,2.2903,2.413,2.4593,2.4897,2.5212,2.6099,2.6559,2.6647,2.6881,2.6983,2.6983,2.6604,2.6166,2.5419,2.4964,2.3212,2.1484,1.9703,1.7991,1.7151,1.7142,1.7001,1.684,1.6689,1.6481,1.6339,1.6226,1.6188,1.6188,1.6188,1.6188,1.6188,1.6188,1.6188,1.6188,1.6188,1.6188,1.6188,1.6188,1.6188,1.6188,1.6259,1.6532,1.7026,1.7621,1.8216,1.9223,2.0251,2.0697,2.1101,2.1281,2.1474,2.1547,2.1691,2.186,2.1957,2.1993,2.2188,2.2321,2.2309,2.2188,2.2285,2.2334,2.2249,2.2226,2.2411,2.3041,2.3696,2.4666,2.5717,2.642,2.7063,2.72,2.72,1.6476,1.6502,1.6608,1.6669,1.6519,1.5893,1.5592,1.5536,1.5699,1.5772,1.578,1.5934,1.5877,1.5991,1.6008,1.5983,1.6033,1.5983,1.5942,1.5893,1.5908,1.596,1.6069,1.6123,1.6318,1.6669,1.6825,1.6865,1.7157,1.7204,1.734,1.7483,1.7635,1.7928,1.8466,1.9511,2.04,2.0986,2.2473,2.3098,2.3396,2.4936,2.5427,2.5667,2.5651,2.5867,2.6296,2.6427,2.6647,2.6837,2.6954,2.6954,2.6954,2.6954,2.6954,2.5892,2.3374,2.1396,1.9498,1.7782,1.6959,1.6821,1.6632,1.6509,1.6462,1.6367,1.6245,1.6207,1.6188,1.6188,1.6188,1.6188,1.6188,1.6188,1.6188,1.6188,1.6188,1.6188,1.6188,1.6188,1.6188,1.6188,1.6188,1.6461,1.6693,1.7146,1.7714,1.8502,1.9547,2.0615,2.1078,2.1523,2.1655,2.191,2.2043,2.214,2.2188,2.2126,2.2237,2.2334,2.2346,2.2346,2.2346,2.2334,2.2309,2.2287,2.2264,2.2563,2.2982,2.3995,2.4884,2.5808,2.6398,2.7067,2.72,1.6744,1.6667,1.6421,1.637,1.6293,1.6069,1.5973,1.5893,1.5737,1.5593,1.5593,1.5642,1.5788,1.5666,1.5908,1.6077,1.6132,1.6338,1.6472,1.6341,1.6211,1.6284,1.6381,1.6398,1.6571,1.6707,1.6934,1.7051,1.7234,1.7303,1.7199,1.7265,1.7981,1.8875,2.0083,2.1643,2.1325,2.1567,2.3228,2.3957,2.4358,2.5442,2.5734,2.5769,2.5666,2.5857,2.6076,2.6149,2.6413,2.6837,2.6735,2.6647,2.6647,2.637,2.5997,2.447,2.2569,2.0799,1.9249,1.7564,1.6575,1.6538,1.6396,1.6396,1.6377,1.6311,1.6188,1.6188,1.6188,1.6188,1.6188,1.6188,1.6188,1.6188,1.6188,1.6188,1.6188,1.6188,1.6188,1.6188,1.6188,1.6188,1.6188,1.6259,1.65,1.6839,1.7273,1.8011,1.8945,2.0077,2.0918,2.1448,2.1873,2.2116,2.2188,2.2273,2.2297,2.2334,2.2346,2.2346,2.2346,2.2346,2.2346,2.2285,2.2188,2.2091,2.1982,2.2209,2.2384,2.2924,2.3832,2.4843,2.5742,2.6331,2.6934,1.7035,1.7044,1.6815,1.6662,1.6662,1.651,1.6421,1.6303,1.6005,1.5872,1.5889,1.5964,1.5989,1.6086,1.6245,1.6404,1.6395,1.6467,1.6582,1.6573,1.6599,1.6554,1.6552,1.6671,1.678,1.6892,1.6952,1.7067,1.7171,1.7105,1.6982,1.7121,1.8289,1.9413,2.0573,2.1906,2.2443,2.2519,2.3203,2.4208,2.4876,2.524,2.5415,2.5432,2.5359,2.5549,2.5783,2.5842,2.6135,2.653,2.6354,2.6325,2.6296,2.6049,2.5892,2.4451,2.2446,2.1198,1.978,1.7612,1.6754,1.6339,1.6264,1.6273,1.6273,1.6245,1.6197,1.6188,1.6188,1.6188,1.6188,1.6188,1.6188,1.6188,1.6188,1.6188,1.6188,1.6188,1.6188,1.6188,1.6188,1.6188,1.6188,1.6188,1.6325,1.663,1.703,1.758,1.8665,1.9863,2.0637,2.1242,2.1805,2.2297,2.2346,2.2346,2.2346,2.2346,2.2346,2.2346,2.2346,2.2346,2.2346,2.22,2.2007,2.191,2.1728,2.1613,2.1779,2.2285,2.2687,2.342,2.4428,2.551,2.5981,1.7398,1.7321,1.7426,1.735,1.735,1.6959,1.6815,1.6824,1.6629,1.6545,1.6493,1.6564,1.6529,1.6407,1.6564,1.6652,1.6686,1.6676,1.6778,1.6614,1.6593,1.6631,1.6806,1.6846,1.6952,1.7142,1.7209,1.7011,1.6954,1.6897,1.6774,1.6857,1.8155,1.9238,2.0066,2.2216,2.3082,2.3563,2.4302,2.5308,2.5288,2.5378,2.5359,2.514,2.5125,2.5227,2.5461,2.5593,2.5666,2.59,2.5988,2.5988,2.5886,2.5871,2.5717,2.4596,2.2403,2.1003,1.9674,1.7643,1.66,1.6216,1.6188,1.6197,1.6216,1.6216,1.6188,1.6188,1.6188,1.6188,1.6188,1.6188,1.6188,1.6188,1.6188,1.6188,1.6188,1.6188,1.6188,1.6188,1.6188,1.6188,1.6188,1.6197,1.633,1.6562,1.6806,1.7301,1.8164,1.9393,2.0299,2.0882,2.1452,2.196,2.2346,2.2346,2.2346,2.2346,2.2346,2.2346,2.2346,2.2346,2.2346,2.2176,2.1921,2.1667,2.1522,2.1334,2.1204,2.1282,2.1672,2.2061,2.2983,2.4142,2.4955,1.718,1.7199,1.736,1.7426,1.7426,1.7273,1.7273,1.7273,1.7244,1.6821,1.6359,1.6326,1.6362,1.6465,1.6698,1.6843,1.6789,1.6934,1.7128,1.7091,1.7007,1.6821,1.6983,1.6945,1.6964,1.6907,1.6897,1.6859,1.6802,1.667,1.6619,1.6755,1.796,1.8932,1.9899,2.2141,2.3349,2.4051,2.4876,2.5359,2.5257,2.5183,2.511,2.5066,2.5081,2.5213,2.5403,2.552,2.571,2.593,2.574,2.5549,2.5369,2.5301,2.4656,2.3502,2.1899,2.0541,1.906,1.755,1.6481,1.6188,1.6188,1.6188,1.6188,1.6188,1.6188,1.6188,1.6188,1.6188,1.6188,1.6188,1.6188,1.6188,1.6188,1.6188,1.6188,1.6188,1.6188,1.6188,1.6188,1.6188,1.6188,1.6264,1.6405,1.6547,1.6698,1.7045,1.7546,1.8607,1.9629,2.0327,2.0928,2.1412,2.1873,2.2346,2.2346,2.2346,2.2346,2.2346,2.2346,2.2346,2.2321,2.2102,2.1909,2.1667,2.1378,2.1074,2.0926,2.0841,2.0873,2.1346,2.1553,2.2503,2.3393,1.6972,1.6991,1.7095,1.7199,1.7275,1.7284,1.7331,1.7416,1.7426,1.7121,1.6815,1.6739,1.6739,1.6739,1.6959,1.6952,1.7,1.7133,1.7058,1.7096,1.7171,1.6992,1.701,1.6972,1.6934,1.6812,1.6689,1.6632,1.6556,1.6443,1.6411,1.6625,1.7691,1.8821,1.9912,2.1502,2.3106,2.402,2.4631,2.4984,2.5052,2.5066,2.5066,2.5066,2.5096,2.5198,2.5227,2.5315,2.5418,2.552,2.5388,2.5301,2.5207,2.5125,2.432,2.2983,2.1459,1.9912,1.8471,1.7228,1.6259,1.6188,1.6188,1.6188,1.6188,1.6188,1.6188,1.6188,1.6188,1.6188,1.6188,1.6188,1.6188,1.6188,1.6188,1.6188,1.6188,1.6188,1.6188,1.6188,1.6188,1.6188,1.6188,1.6188,1.6367,1.6651,1.6793,1.6972,1.7397,1.7721,1.8774,1.9682,2.0199,2.0876,2.1412,2.1885,2.2346,2.2346,2.2346,2.2346,2.2346,2.2346,2.2297,2.2126,2.1957,2.1704,2.139,2.1052,2.081,2.0771,2.0747,2.0804,2.1012,2.122,2.1897,1.6764,1.6764,1.6802,1.6906,1.7048,1.7067,1.7161,1.7312,1.7341,1.7331,1.7227,1.7237,1.735,1.7379,1.7369,1.7227,1.7123,1.7076,1.6963,1.6887,1.6859,1.6821,1.6793,1.6755,1.6708,1.6623,1.6509,1.6377,1.6264,1.6226,1.6297,1.6471,1.7228,1.8201,1.91,2.0548,2.2203,2.3174,2.3938,2.4699,2.4984,2.5066,2.5066,2.5066,2.5066,2.5066,2.5134,2.5134,2.5134,2.5163,2.514,2.5178,2.5149,2.5052,2.4142,2.2887,2.1433,1.9982,1.8471,1.7087,1.6461,1.6188,1.6188,1.6188,1.6188,1.6188,1.6188,1.6188,1.6188,1.6188,1.6188,1.6188,1.6188,1.6188,1.6188,1.6188,1.6188,1.6188,1.6188,1.6188,1.6188,1.6188,1.6188,1.6188,1.6377,1.667,1.6897,1.7105,1.7275,1.7521,1.8101,1.885,1.9455,2.0059,2.0887,2.1412,2.196,2.2346,2.2346,2.2346,2.2346,2.2346,2.2321,2.2285,2.2029,2.1764,2.1498,2.1185,2.0967,2.0726,2.0678,2.0665,2.0735,2.0873,2.0804,1.6547,1.6556,1.6727,1.6831,1.6859,1.6859,1.6887,1.6916,1.6934,1.6925,1.6953,1.6953,1.7001,1.7161,1.7161,1.7048,1.6887,1.6859,1.6859,1.6812,1.6717,1.6651,1.6585,1.6547,1.6434,1.6367,1.6311,1.6235,1.6188,1.6188,1.6188,1.633,1.633,1.7228,1.8412,1.9657,2.0548,2.179,2.3038,2.387,2.4849,2.4984,2.5052,2.5066,2.5066,2.5066,2.5066,2.5066,2.5066,2.5066,2.5066,2.5066,2.4984,2.4849,2.387,2.2545,2.1089,1.9646,1.8131,1.6875,1.632,1.6188,1.6188,1.6188,1.6188,1.6188,1.6188,1.6188,1.6188,1.6188,1.6188,1.6188,1.6188,1.6188,1.6188,1.6188,1.6188,1.6188,1.6188,1.6188,1.6188,1.6188,1.6188,1.6245,1.6367,1.6623,1.6793,1.702,1.7331,1.7388,1.7502,1.8025,1.8699,1.9757,2.0725,2.1026,2.1487,2.196,2.2346,2.2346,2.2346,2.2346,2.2321,2.2309,2.214,2.18,2.1607,2.1281,2.1003,2.0774,2.0702,2.0665,2.0665,2.0665,2.0665]}]]